[[[{"header":{"parameterUnit":"kt","parameterCategory":2,"dx":1,"dy":1,"la1":29.285339999999998,"la2":30.599998999999997,"lo1":-89.70041500000002,"lo2":-87.6738589999976,"nx":112,"ny":82,"refTime":"2022-10-05T12:00:00:Z","depth":0,"parameterNumber":1,"parameterNumberName":"U-component_of_WINDS"},"data":[12.4186,12.3633,0.0,12.2208,12.1685,0.0,12.0347,0.0,0.0,0.0,0.0,0.0,0.0,0.0,0.0,0.0,0.0,0.0,0.0,0.0,0.0,0.0,0.0,0.0,0.0,0.0,0.0,0.0,0.0,0.0,0.0,13.5327,13.6432,13.7157,13.7622,13.7797,13.7797,13.7797,13.7797,13.7797,13.7797,13.7797,13.7797,13.7797,13.7797,13.7797,13.7797,13.7797,13.7797,13.7797,13.7797,13.7797,13.7797,13.7797,13.7797,13.7797,13.7797,13.7797,13.7797,13.7797,13.7797,13.7797,13.7797,13.7797,13.7797,13.7797,13.7797,13.7797,13.7797,13.7797,13.7797,13.7797,13.7797,13.7797,13.7797,13.7797,13.7797,13.7797,13.7797,13.7797,13.7797,13.7797,13.7797,13.7797,13.7797,13.7797,13.7797,13.7797,13.7797,13.7797,13.7797,13.7797,13.7797,13.7797,13.7797,13.7797,13.7797,13.7797,13.7797,13.7797,13.7797,13.7797,13.7797,13.7797,13.7797,13.7797,13.7797,13.7797,13.7797,13.7797,13.7797,13.7797,0.0,0.0,12.1713,12.0405,0.0,0.0,0.0,0.0,0.0,0.0,0.0,0.0,0.0,0.0,0.0,0.0,0.0,0.0,0.0,0.0,0.0,0.0,0.0,0.0,0.0,0.0,0.0,0.0,13.105,0.0,13.5909,13.6432,13.7014,13.7797,13.7797,13.7797,13.7797,13.7797,13.7797,13.7797,13.7797,13.7797,13.7797,13.7797,13.7797,13.7797,13.7797,13.7797,13.7797,13.7797,13.7797,13.7797,13.7797,13.7797,13.7797,13.7797,13.7797,13.7797,13.7797,13.7797,13.7797,13.7797,13.7797,13.7797,13.7797,13.7797,13.7797,13.7797,13.7797,13.7797,13.7797,13.7797,13.7797,13.7797,13.7797,13.7797,13.7797,13.7797,13.7797,13.7797,13.7797,13.7797,13.7797,13.7797,13.7797,13.7797,13.7797,13.7797,13.7797,13.7797,13.7797,13.7797,13.7797,13.7797,13.7797,13.7797,13.7797,13.7797,13.7797,13.7797,13.7797,13.7797,13.7797,13.7797,13.7797,13.7797,13.7797,13.7797,13.7797,13.7797,13.7797,13.7797,0.0,0.0,0.0,11.904,0.0,0.0,0.0,0.0,11.6767,0.0,0.0,0.0,0.0,0.0,0.0,0.0,0.0,0.0,0.0,0.0,0.0,0.0,0.0,0.0,0.0,12.7589,12.8897,0.0,13.2736,13.4714,13.6025,13.7215,13.7797,13.7797,13.7797,13.7797,13.7797,13.7797,13.7797,13.7797,13.7797,13.7797,13.7797,13.7797,13.7797,13.7797,13.7797,13.7797,13.7797,13.7797,13.7797,13.7797,13.7797,13.7797,13.7797,13.7797,13.7797,13.7797,13.7797,13.7797,13.7797,13.7797,13.7797,13.7797,13.7797,13.7797,13.7797,13.7797,13.7797,13.7797,13.7797,13.7797,13.7797,13.7797,13.7797,13.7797,13.7797,13.7797,13.7797,13.7797,13.7797,13.7797,13.7797,13.7797,13.7797,13.7797,13.7797,13.7797,13.7797,13.7797,13.7797,13.7797,13.7797,13.7797,13.7797,13.7797,13.7797,13.7797,13.7797,13.7797,13.7797,13.7797,13.7797,13.7797,13.7797,13.7797,13.7797,13.7797,13.7797,13.7797,13.7797,13.7797,11.9389,0.0,0.0,0.0,0.0,0.0,0.0,0.0,0.0,0.0,0.0,0.0,0.0,0.0,0.0,0.0,0.0,0.0,0.0,11.8718,0.0,0.0,0.0,0.0,0.0,12.8956,13.0672,13.2853,13.4629,13.6083,13.7273,13.7622,13.7797,13.7797,13.7797,13.7797,13.7797,13.7797,13.7797,13.7797,13.7797,13.7797,13.7797,13.7797,13.7797,13.7797,13.7797,13.7797,13.7797,13.7797,13.7797,13.7797,13.7797,13.7797,13.7797,13.7797,13.7797,13.7797,13.7797,13.7797,13.7797,13.7797,13.7797,13.7797,13.7797,13.7797,13.7797,13.7797,13.7797,13.7797,13.7797,13.7797,13.7797,13.7797,13.7797,13.7797,13.7797,13.7797,13.7797,13.7797,13.7797,13.7797,13.7797,13.7797,13.7797,13.7797,13.7797,13.7797,13.7797,13.7797,13.7797,13.7797,13.7797,13.7797,13.7797,13.7797,13.7797,13.7797,13.7797,13.7797,13.7797,13.7797,13.7797,13.7797,13.7797,13.7797,13.7797,13.7797,13.7797,13.7797,13.7797,13.7797,0.0,0.0,0.0,0.0,0.0,0.0,11.5054,0.0,11.5694,0.0,0.0,0.0,0.0,0.0,0.0,0.0,11.8575,0.0,0.0,0.0,12.3023,12.4972,12.6367,12.7705,12.8956,13.0759,13.2736,13.4772,13.5618,13.6607,13.7739,13.7797,13.7797,13.7797,13.7797,13.7797,13.7797,13.7797,13.7797,13.7797,13.7797,13.7797,13.7797,13.7797,13.7797,13.7797,13.7797,13.7797,13.7797,13.7797,13.7797,13.7797,13.7797,13.7797,13.7797,13.7797,13.7797,13.7797,13.7797,13.7797,13.7797,13.7797,13.7797,13.7797,13.7797,13.7797,13.7797,13.7797,13.7797,13.7797,13.7797,13.7797,13.7797,13.7797,13.7797,13.7797,13.7797,13.7797,13.7797,13.7797,13.7797,13.7797,13.7797,13.7797,13.7797,13.7797,13.7797,13.7797,13.7797,13.7797,13.7797,13.7797,13.7797,13.7797,13.7797,13.7797,13.7797,13.7797,13.7797,13.7797,13.7797,13.7797,13.7797,13.7797,13.7797,13.7797,13.7797,13.7797,13.7797,13.7797,13.7797,13.7797,0.0,0.0,0.0,0.0,11.3806,0.0,0.0,0.0,0.0,11.7,0.0,11.8982,0.0,0.0,0.0,11.4795,11.9009,12.1247,11.6624,12.1219,12.5524,12.6658,12.8054,12.9421,13.0584,13.2736,13.4656,13.5967,13.6199,13.6723,13.7739,13.7797,13.7797,13.7797,13.7797,13.7797,13.7797,13.7797,13.7797,13.7797,13.7797,13.7797,13.7797,13.7797,13.7797,13.7797,13.7797,13.7797,13.7797,13.7797,13.7797,13.7797,13.7797,13.7797,13.7797,13.7797,13.7797,13.7797,13.7797,13.7797,13.7797,13.7797,13.7797,13.7797,13.7797,13.7797,13.7797,13.7797,13.7797,13.7797,13.7797,13.7797,13.7797,13.7797,13.7797,13.7797,13.7797,13.7797,13.7797,13.7797,13.7797,13.7797,13.7797,13.7797,13.7797,13.7797,13.7797,13.7797,13.7797,13.7797,13.7797,13.7797,13.7797,13.7797,13.7797,13.7797,13.7797,13.7797,13.7797,13.7797,13.7797,13.7797,13.7797,13.7797,13.7797,13.7797,13.7797,13.7797,13.7797,13.7797,13.7797,13.7797,0.0,0.0,0.0,0.0,0.0,11.3864,0.0,0.0,0.0,11.8195,11.9416,12.0347,12.0347,12.1422,12.1945,12.0956,12.2643,12.3721,12.2732,12.6338,12.9188,12.9479,13.1573,13.3085,13.3318,13.3842,13.4656,13.5967,13.6924,13.7564,13.7797,13.7797,13.7797,13.7797,13.7797,13.7797,13.7797,13.7797,13.7797,13.7797,13.7797,13.7797,13.7797,13.7797,13.7797,13.7797,13.7797,13.7797,13.7797,13.7797,13.7797,13.7797,13.7797,13.7797,13.7797,13.7797,13.7797,13.7797,13.7797,13.7797,13.7797,13.7797,13.7797,13.7797,13.7797,13.7797,13.7797,13.7797,13.7797,13.7797,13.7797,13.7797,13.7797,13.7797,13.7797,13.7797,13.7797,13.7797,13.7797,13.7797,13.7797,13.7797,13.7797,13.7797,13.7797,13.7797,13.7797,13.7797,13.7797,13.7797,13.7797,13.7797,13.7797,13.7797,13.7797,13.7797,13.7797,13.7797,13.7797,13.7797,13.7797,13.7797,13.7797,13.7797,13.7797,13.7797,13.7797,13.7797,13.7797,13.7797,13.7797,13.7797,0.0,0.0,0.0,11.1796,0.0,0.0,0.0,11.7815,11.8951,11.9591,12.0754,12.1887,12.2441,12.3109,12.3749,12.4419,12.4972,12.5844,12.7152,12.9567,13.1429,13.2097,13.3318,13.4365,13.5036,13.5094,13.5618,13.6808,13.7506,13.7797,13.7797,13.7797,13.7797,13.7797,13.7797,13.7797,13.7797,13.7797,13.7797,13.7797,13.7797,13.7797,13.7797,13.7797,13.7797,13.7797,13.7797,13.7797,13.7797,13.7797,13.7797,13.7797,13.7797,13.7797,13.7797,13.7797,13.7797,13.7797,13.7797,13.7797,13.7797,13.7797,13.7797,13.7797,13.7797,13.7797,13.7797,13.7797,13.7797,13.7797,13.7797,13.7797,13.7797,13.7797,13.7797,13.7797,13.7797,13.7797,13.7797,13.7797,13.7797,13.7797,13.7797,13.7797,13.7797,13.7797,13.7797,13.7797,13.7797,13.7797,13.7797,13.7797,13.7797,13.7797,13.7797,13.7797,13.7797,13.7797,13.7797,13.7797,13.7797,13.7797,13.7797,13.7797,13.7797,13.7797,13.7797,13.7797,13.7797,13.7797,13.7797,13.7797,0.0,0.0,0.0,0.0,0.0,0.0,11.7116,11.9009,12.0754,12.1073,12.212,12.3283,12.4244,12.4651,12.5088,12.6164,12.6571,12.7705,13.0584,13.2127,13.329,13.4365,13.4714,13.5238,13.6316,13.6432,13.6808,13.7739,13.7797,13.7797,13.7797,13.7797,13.7797,13.7797,13.7797,13.7797,13.7797,13.7797,13.7797,13.7797,13.7797,13.7797,13.7797,13.7797,13.7797,13.7797,13.7797,13.7797,13.7797,13.7797,13.7797,13.7797,13.7797,13.7797,13.7797,13.7797,13.7797,13.7797,13.7797,13.7797,13.7797,13.7797,13.7797,13.7797,13.7797,13.7797,13.7797,13.7797,13.7797,13.7797,13.7797,13.7797,13.7797,13.7797,13.7797,13.7797,13.7797,13.7797,13.7797,13.7797,13.7797,13.7797,13.7797,13.7797,13.7797,13.7797,13.7797,13.7797,13.7797,13.7797,13.7797,13.7797,13.7797,13.7797,13.7797,13.7797,13.7797,13.7797,13.7797,13.7797,13.7797,13.7797,13.7797,13.7797,13.7797,13.7797,13.7797,13.7797,13.7797,13.7797,13.7797,13.7797,0.0,0.0,0.0,0.0,0.0,0.0,11.7993,11.9707,12.1045,12.2206,12.34,12.4244,12.436,12.5379,12.6164,12.6338,12.7356,12.9421,13.3144,13.4803,13.5676,13.585,13.675,13.7448,13.7622,13.7622,13.7681,13.7797,13.7797,13.7797,13.7797,13.7797,13.7797,13.7797,13.7797,13.7797,13.7797,13.7797,13.7797,13.7797,13.7797,13.7797,13.7797,13.7797,13.7797,13.7797,13.7797,13.7797,13.7797,13.7797,13.7797,13.7797,13.7797,13.7797,13.7797,13.7797,13.7797,13.7797,13.7797,13.7797,13.7797,13.7797,13.7797,13.7797,13.7797,13.7797,13.7797,13.7797,13.7797,13.7797,13.7797,13.7797,13.7797,13.7797,13.7797,13.7797,13.7797,13.7797,13.7797,13.7797,13.7797,13.7797,13.7797,13.7797,13.7797,13.7797,13.7797,13.7797,13.7797,13.7797,13.7797,13.7797,13.7797,13.7797,13.7797,13.7797,13.7797,13.7797,13.7797,13.7797,13.7797,13.7797,13.7797,13.7797,13.7797,13.7797,13.7797,13.7797,13.7797,13.7797,13.7797,13.7797,0.0,0.0,0.0,0.0,0.0,0.0,11.9474,12.087,12.2178,12.3372,12.407,12.4884,12.6396,12.7123,12.7996,12.9479,13.0177,13.1429,13.3783,13.5269,13.6316,13.6983,13.7506,13.7797,13.7797,13.7797,13.7797,13.7797,13.7797,13.7797,13.7797,13.7797,13.7797,13.7797,13.7797,13.7797,13.7797,13.7797,13.7797,13.7797,13.7797,13.7797,13.7797,13.7797,13.7797,13.7797,13.7797,13.7797,13.7797,13.7797,13.7797,13.7797,13.7797,13.7797,13.7797,13.7797,13.7797,13.7797,13.7797,13.7797,13.7797,13.7797,13.7797,13.7797,13.7797,13.7797,13.7797,13.7797,13.7797,13.7797,13.7797,13.7797,13.7797,13.7797,13.7797,13.7797,13.7797,13.7797,13.7797,13.7797,13.7797,13.7797,13.7797,13.7797,13.7797,13.7797,13.7797,13.7797,13.7797,13.7797,13.7797,13.7797,13.7797,13.7797,13.7797,13.7797,13.7797,13.7797,13.7797,13.7797,13.7797,13.7797,13.7797,13.7797,13.7797,13.7797,13.7797,13.7797,13.7797,13.7797,13.7797,13.7797,10.2804,0.0,0.0,0.0,0.0,0.0,12.0405,12.1713,12.2993,12.4186,12.4709,12.5611,12.7879,12.8607,12.9537,13.1808,13.2506,13.3174,13.4481,13.5792,13.6866,13.7739,13.7797,13.7797,13.7797,13.7797,13.7797,13.7797,13.7797,13.7797,13.7797,13.7797,13.7797,13.7797,13.7797,13.7797,13.7797,13.7797,13.7797,13.7797,13.7797,13.7797,13.7797,13.7797,13.7797,13.7797,13.7797,13.7797,13.7797,13.7797,13.7797,13.7797,13.7797,13.7797,13.7797,13.7797,13.7797,13.7797,13.7797,13.7797,13.7797,13.7797,13.7797,13.7797,13.7797,13.7797,13.7797,13.7797,13.7797,13.7797,13.7797,13.7797,13.7797,13.7797,13.7797,13.7797,13.7797,13.7797,13.7797,13.7797,13.7797,13.7797,13.7797,13.7797,13.7797,13.7797,13.7797,13.7797,13.7797,13.7797,13.7797,13.7797,13.7797,13.7797,13.7797,13.7797,13.7797,13.7797,13.7797,13.7797,13.7797,13.7797,13.7797,13.7797,13.7797,13.7797,13.7797,13.7797,13.7797,13.7797,13.7797,13.7797,0.0,0.0,0.0,11.2617,11.59,11.9098,12.0405,12.1713,12.2993,12.4186,12.5437,12.6687,12.8054,12.9305,13.0614,13.1982,13.3232,13.4481,13.585,13.7041,13.7797,13.7797,13.7797,13.7797,13.7797,13.7797,13.7797,13.7797,13.7797,13.7797,13.7797,13.7797,13.7797,13.7797,13.7797,13.7797,13.7797,13.7797,13.7797,13.7797,13.7797,13.7797,13.7797,13.7797,13.7797,13.7797,13.7797,13.7797,13.7797,13.7797,13.7797,13.7797,13.7797,13.7797,13.7797,13.7797,13.7797,13.7797,13.7797,13.7797,13.7797,13.7797,13.7797,13.7797,13.7797,13.7797,13.7797,13.7797,13.7797,13.7797,13.7797,13.7797,13.7797,13.7797,13.7797,13.7797,13.7797,13.7797,13.7797,13.7797,13.7797,13.7797,13.7797,13.7797,13.7797,13.7797,13.7797,13.7797,13.7797,13.7797,13.7797,13.7797,13.7797,13.7797,13.7797,13.7797,13.7797,13.7797,13.7797,13.7797,13.7797,13.7797,13.7797,13.7797,13.7797,13.7797,13.7797,13.7797,13.7797,13.7797,13.7797,13.7797,10.3653,10.7783,11.1738,11.4763,11.7846,12.0405,12.1713,12.2934,12.4186,12.5437,12.6716,12.8054,12.9363,12.9944,13.0381,13.0847,13.201,13.329,13.4598,13.5819,13.6924,13.7739,13.7797,13.7797,13.7797,13.7797,13.7797,13.7797,13.7797,13.7797,13.7797,13.7797,13.7797,13.7797,13.7797,13.7797,13.7797,13.7797,13.7797,13.7797,13.7797,13.7797,13.7797,13.7797,13.7797,13.7797,13.7797,13.7797,13.7797,13.7797,13.7797,13.7797,13.7797,13.7797,13.7797,13.7797,13.7797,13.7797,13.7797,13.7797,13.7797,13.7797,13.7797,13.7797,13.7797,13.7797,13.7797,13.7797,13.7797,13.7797,13.7797,13.7797,13.7797,13.7797,13.7797,13.7797,13.7797,13.7797,13.7797,13.7797,13.7797,13.7797,13.7797,13.7797,13.7797,13.7797,13.7797,13.7797,13.7797,13.7797,13.7797,13.7797,13.7797,13.7797,13.7797,13.7797,13.7797,13.7797,13.7797,13.7797,13.7797,13.7797,13.7797,13.7797,13.7797,13.7797,13.7797,13.7797,13.7797,13.7797,13.7797,13.7797,10.4211,10.8456,11.2494,11.5953,11.8804,12.1073,12.2353,12.3574,12.4768,12.6048,12.7414,12.8665,13.0032,13.0265,13.0265,13.0265,13.1312,13.2476,13.329,13.4978,13.6374,13.7099,13.7564,13.7797,13.7797,13.7797,13.7797,13.7797,13.7797,13.7797,13.7797,13.7797,13.7797,13.7797,13.7797,13.7797,13.7797,13.7797,13.7797,13.7797,13.7797,13.7797,13.7797,13.7797,13.7797,13.7797,13.7797,13.7797,13.7797,13.7797,13.7797,13.7797,13.7797,13.7797,13.7797,13.7797,13.7797,13.7797,13.7797,13.7797,13.7797,13.7797,13.7797,13.7797,13.7797,13.7797,13.7797,13.7797,13.7797,13.7797,13.7797,13.7797,13.7797,13.7797,13.7797,13.7797,13.7797,13.7797,13.7797,13.7797,13.7797,13.7797,13.7797,13.7797,13.7797,13.7797,13.7797,13.7797,13.7797,13.7797,13.7797,13.7797,13.7797,13.7797,13.7797,13.7797,13.7797,13.7797,13.7797,13.7797,13.7797,13.7797,13.7797,13.7797,13.7797,13.7797,13.7797,13.7797,13.7797,13.7797,13.7797,13.7797,10.4676,10.9154,11.369,11.6302,11.892,12.1131,12.2381,12.3633,12.4884,12.6106,12.7472,12.8781,13.0003,13.0265,13.0265,13.0265,13.1254,13.2099,13.2157,13.4279,13.5909,13.5967,13.6924,13.7681,13.7739,13.7739,13.7739,13.7797,13.7797,13.7797,13.7797,13.7797,13.7797,13.7797,13.7797,13.7797,13.7797,13.7797,13.7797,13.7797,13.7797,13.7797,13.7797,13.7797,13.7797,13.7797,13.7797,13.7797,13.7797,13.7797,13.7797,13.7797,13.7797,13.7797,13.7797,13.7797,13.7797,13.7797,13.7797,13.7797,13.7797,13.7797,13.7797,13.7797,13.7797,13.7797,13.7797,13.7797,13.7797,13.7797,13.7797,13.7797,13.7797,13.7797,13.7797,13.7797,13.7797,13.7797,13.7797,13.7797,13.7797,13.7797,13.7797,13.7797,13.7797,13.7797,13.7797,13.7797,13.7797,13.7797,13.7797,13.7797,13.7797,13.7797,13.7797,13.7797,13.7797,13.7797,13.7797,13.7797,13.7797,13.7797,13.7797,13.7797,13.7797,13.7797,13.7797,13.7797,13.7797,13.7797,13.7797,13.7797,10.5073,11.0517,11.5027,11.7586,12.0231,12.2236,12.2585,12.4302,12.596,12.628,12.817,12.9828,13.0207,13.0265,13.0265,13.0265,13.0498,13.108,13.2041,13.2739,13.3523,13.4481,13.4889,13.5412,13.6432,13.649,13.6898,13.7739,13.7797,13.7797,13.7797,13.7797,13.7797,13.7797,13.7797,13.7797,13.7797,13.7797,13.7797,13.7797,13.7797,13.7797,13.7797,13.7797,13.7797,13.7797,13.7797,13.7797,13.7797,13.7797,13.7797,13.7797,13.7797,13.7797,13.7797,13.7797,13.7797,13.7797,13.7797,13.7797,13.7797,13.7797,13.7797,13.7797,13.7797,13.7797,13.7797,13.7797,13.7797,13.7797,13.7797,13.7797,13.7797,13.7797,13.7797,13.7797,13.7797,13.7797,13.7797,13.7797,13.7797,13.7797,13.7797,13.7797,13.7797,13.7797,13.7797,13.7797,13.7797,13.7797,13.7797,13.7797,13.7797,13.7797,13.7797,13.7797,13.7797,13.7797,13.7797,13.7797,13.7797,13.7797,13.7797,13.7797,13.7797,13.7797,13.7797,13.7797,13.7797,13.7797,13.7797,13.7797,10.3793,11.0135,11.5519,11.811,12.0754,12.2672,12.2672,12.4128,12.5669,12.6222,12.7937,12.9363,12.9363,12.9828,13.0265,13.0265,13.0265,13.0498,13.1196,13.1808,13.2418,13.3174,13.3783,13.4423,13.5121,13.521,13.5703,13.6924,13.7041,13.7273,13.7797,13.7797,13.7797,13.7797,13.7797,13.7797,13.7797,13.7797,13.7797,13.7797,13.7797,13.7797,13.7797,13.7797,13.7797,13.7797,13.7797,13.7797,13.7797,13.7797,13.7797,13.7797,13.7797,13.7797,13.7797,13.7797,13.7797,13.7797,13.7797,13.7797,13.7797,13.7797,13.7797,13.7797,13.7797,13.7797,13.7797,13.7797,13.7797,13.7797,13.7797,13.7797,13.7797,13.7797,13.7797,13.7797,13.7797,13.7797,13.7797,13.7797,13.7797,13.7797,13.7797,13.7797,13.7797,13.7797,13.7797,13.7797,13.7797,13.7797,13.7797,13.7797,13.7797,13.7797,13.7797,13.7797,13.7797,13.7797,13.7797,13.7797,13.7797,13.7797,13.7797,13.7797,13.7797,13.7797,13.7797,13.7797,13.7797,13.7797,13.7797,13.7797,10.1838,10.8365,11.4647,11.7935,12.0754,12.2672,12.2672,12.3574,12.4709,12.5844,12.7007,12.7879,12.8258,12.9188,13.0032,13.0207,13.0265,13.0265,13.0265,13.1196,13.1924,13.1924,13.2941,13.3667,13.3842,13.3842,13.4365,13.5734,13.5792,13.6285,13.7506,13.7564,13.7681,13.7797,13.7797,13.7797,13.7797,13.7797,13.7797,13.7797,13.7797,13.7797,13.7797,13.7797,13.7797,13.7797,13.7797,13.7797,13.7797,13.7797,13.7797,13.7797,13.7797,13.7797,13.7797,13.7797,13.7797,13.7797,13.7797,13.7797,13.7797,13.7797,13.7797,13.7797,13.7797,13.7797,13.7797,13.7797,13.7797,13.7797,13.7797,13.7797,13.7797,13.7797,13.7797,13.7797,13.7797,13.7797,13.7797,13.7797,13.7797,13.7797,13.7797,13.7797,13.7797,13.7797,13.7797,13.7797,13.7797,13.7797,13.7797,13.7797,13.7797,13.7797,13.7797,13.7797,13.7797,13.7797,13.7797,13.7797,13.7797,13.7797,13.7797,13.7797,13.7797,13.7797,13.7797,13.7797,13.7797,13.7797,13.7797,13.7797,10.071,10.5131,11.0226,11.7063,12.0754,12.2672,12.2672,12.3574,12.4477,12.4709,12.4942,12.5756,12.7879,12.8461,12.8956,13.0061,13.0265,13.0265,13.0265,13.044,13.0556,13.0556,13.0789,13.1312,13.2448,13.2476,13.3058,13.4365,13.4481,13.5005,13.6316,13.6374,13.6808,13.7797,13.7797,13.7797,13.7797,13.7797,13.7797,13.7797,13.7797,13.7797,13.7797,13.7797,13.7797,13.7797,13.7797,13.7797,13.7797,13.7797,13.7797,13.7797,13.7797,13.7797,13.7797,13.7797,13.7797,13.7797,13.7797,13.7797,13.7797,13.7797,13.7797,13.7797,13.7797,13.7797,13.7797,13.7797,13.7797,13.7797,13.7797,13.7797,13.7797,13.7797,13.7797,13.7797,13.7797,13.7797,13.7797,13.7797,13.7797,13.7797,13.7797,13.7797,13.7797,13.7797,13.7797,13.7797,13.7797,13.7797,13.7797,13.7797,13.7797,13.7797,13.7797,13.7797,13.7797,13.7797,13.7797,13.7797,13.7797,13.7797,13.7797,13.7797,13.7797,13.7797,13.7797,13.7797,13.7797,13.7797,13.7797,13.7797,10.0419,10.4317,10.8655,11.433,11.8718,12.1829,12.2469,12.3109,12.3516,12.3516,12.3953,12.4768,12.6047,12.7385,12.849,12.913,12.977,13.0265,13.0265,13.0265,13.0265,13.0265,13.0265,13.0498,13.108,13.1138,13.172,13.3,13.3116,13.3698,13.4978,13.5094,13.5587,13.6866,13.6898,13.7215,13.7797,13.7797,13.7797,13.7797,13.7797,13.7797,13.7797,13.7797,13.7797,13.7797,13.7797,13.7797,13.7797,13.7797,13.7797,13.7797,13.7797,13.7797,13.7797,13.7797,13.7797,13.7797,13.7797,13.7797,13.7797,13.7797,13.7797,13.7797,13.7797,13.7797,13.7797,13.7797,13.7797,13.7797,13.7797,13.7797,13.7797,13.7797,13.7797,13.7797,13.7797,13.7797,13.7797,13.7797,13.7797,13.7797,13.7797,13.7797,13.7797,13.7797,13.7797,13.7797,13.7797,13.7797,13.7797,13.7797,13.7797,13.7797,13.7797,13.7797,13.7797,13.7797,13.7797,13.7797,13.7797,13.7797,13.7797,13.7797,13.7797,13.7797,13.7797,13.7797,13.7797,13.7797,13.7797,13.7506,9.9756,10.3711,10.7783,11.1596,11.6016,11.994,12.1829,12.2469,12.2672,12.2672,12.34,12.4098,12.436,12.6105,12.7618,12.817,12.913,12.9886,13.0207,13.0265,13.0265,13.0265,13.0265,13.0265,13.0265,13.0265,13.0672,13.1691,13.172,13.236,13.364,13.3667,13.4307,13.5618,13.5676,13.6052,13.7041,13.7273,13.7448,13.7448,13.7681,13.7797,13.7797,13.7564,13.7448,13.7448,13.7681,13.7797,13.7797,13.7797,13.7797,13.7797,13.7797,13.7797,13.7797,13.7797,13.7797,13.7797,13.7797,13.7797,13.7797,13.7797,13.7797,13.7797,13.7797,13.7797,13.7797,13.7797,13.7797,13.7797,13.7797,13.7797,13.7739,13.7506,13.7622,13.7797,13.7797,13.7797,13.7797,13.7797,13.7797,13.7797,13.7797,13.7797,13.7797,13.7797,13.7797,13.7797,13.7797,13.7797,13.7797,13.7797,13.7797,13.7797,13.7797,13.7797,13.7797,13.7797,13.7797,13.7797,13.7797,13.7797,13.7797,13.7797,13.7797,13.7681,13.7448,13.7448,13.7273,13.7041,13.7041,13.6517,9.7559,10.1687,10.6445,11.0226,11.3309,11.6392,12.0056,12.1829,12.2672,12.2672,12.2702,12.3109,12.4186,12.4593,12.5524,12.7879,12.8403,12.8897,13.0061,13.0265,13.0265,13.0265,13.0265,13.0265,13.0265,13.0265,13.0323,13.044,13.044,13.0963,13.2273,13.239,13.2941,13.4249,13.4307,13.4365,13.4481,13.5676,13.6199,13.6258,13.7332,13.7797,13.7797,13.6692,13.6199,13.6258,13.7332,13.7797,13.7797,13.7797,13.7797,13.7797,13.7797,13.7797,13.7797,13.7797,13.7797,13.7797,13.7797,13.7797,13.7797,13.7797,13.7797,13.7797,13.7797,13.7797,13.7797,13.7797,13.7797,13.7797,13.7797,13.7797,13.7564,13.649,13.7041,13.7797,13.7797,13.7797,13.7797,13.7797,13.7797,13.7797,13.7797,13.7797,13.7797,13.7797,13.7797,13.7797,13.7797,13.7797,13.7797,13.7797,13.7797,13.7797,13.7797,13.7797,13.7797,13.7797,13.7797,13.7797,13.7797,13.7797,13.7797,13.7797,13.7797,13.7273,13.6199,13.6199,13.5618,13.4481,13.4481,13.4423,9.7036,10.0838,10.4957,10.7982,11.1855,11.5519,11.7873,11.8164,11.8602,12.1014,12.212,12.276,12.3283,12.3895,12.4768,12.5815,12.7269,12.849,12.9014,12.977,13.0265,13.0265,13.0265,13.0265,13.0265,13.0265,13.0265,13.0265,13.0265,13.0498,13.0963,13.1021,13.1603,13.2941,13.2941,13.3349,13.4132,13.4598,13.4889,13.4889,13.5354,13.5587,13.5587,13.5121,13.4889,13.4889,13.5412,13.5587,13.5645,13.6432,13.6781,13.6808,13.7564,13.7797,13.7797,13.7797,13.7797,13.7797,13.7797,13.7797,13.7797,13.7797,13.7797,13.7797,13.7797,13.7797,13.7797,13.7797,13.7332,13.6781,13.6781,13.6781,13.649,13.5179,13.5238,13.5819,13.6575,13.6781,13.7014,13.7681,13.7797,13.7797,13.7797,13.7797,13.7797,13.7797,13.7797,13.7797,13.7797,13.7797,13.7797,13.7797,13.7797,13.7797,13.7797,13.7797,13.7797,13.7797,13.7797,13.7506,13.6781,13.6781,13.6401,13.5587,13.5587,13.5354,13.4889,13.4889,13.4598,13.4132,13.4132,13.3667,9.5989,9.9349,10.2862,10.548,10.9412,11.3251,11.5694,11.5519,11.5752,11.8893,12.0898,12.2178,12.2585,12.3342,12.3982,12.436,12.5931,12.7443,12.817,12.9072,12.977,13.0207,13.0265,13.0265,13.0265,13.0265,13.0265,13.0265,13.0265,13.0265,13.0265,13.0265,13.0672,13.1575,13.1603,13.2069,13.2969,13.3318,13.3581,13.3551,13.39,13.3725,13.2969,13.3376,13.3581,13.3551,13.3958,13.4132,13.4191,13.5121,13.5501,13.5559,13.6401,13.675,13.675,13.675,13.6983,13.7273,13.7273,13.7506,13.7797,13.7797,13.7564,13.7273,13.7273,13.7041,13.675,13.675,13.611,13.5501,13.5501,13.521,13.4687,13.3756,13.3842,13.4365,13.5327,13.5501,13.585,13.7041,13.6983,13.6983,13.7649,13.7506,13.739,13.7797,13.7797,13.7797,13.7797,13.7797,13.7797,13.7797,13.7797,13.7797,13.7797,13.7797,13.7797,13.7797,13.7797,13.7099,13.5559,13.5501,13.5063,13.4132,13.4132,13.39,13.3581,13.3581,13.3318,13.2969,13.2969,13.2446,9.3903,9.6673,10.0198,10.2804,10.5422,10.8714,11.3774,11.4879,11.5286,11.6593,11.892,12.1103,12.2439,12.2672,12.3051,12.4186,12.4419,12.5349,12.7937,12.8316,12.8781,13.0061,13.0265,13.0265,13.0265,13.0265,13.0265,13.0265,13.0265,13.0265,13.0265,13.0265,13.0265,13.0265,13.0265,13.0265,13.0265,13.1575,13.2215,13.2215,13.3523,13.2736,13.0323,13.1603,13.2215,13.2273,13.3551,13.4132,13.4132,13.4132,13.4132,13.4132,13.4132,13.4191,13.4191,13.4191,13.4978,13.6083,13.6083,13.6808,13.7797,13.7797,13.7072,13.6083,13.6083,13.5179,13.4191,13.4191,13.4132,13.4132,13.4132,13.3174,13.2215,13.2215,13.3174,13.4132,13.4132,13.4132,13.454,13.585,13.5005,13.4947,13.739,13.6808,13.649,13.7622,13.7797,13.7797,13.7797,13.7797,13.7797,13.7797,13.7797,13.7797,13.7797,13.7797,13.7797,13.7797,13.7797,13.6692,13.4249,13.4132,13.4132,13.4132,13.4132,13.3493,13.2215,13.2215,13.1545,13.0265,13.0265,13.0265,9.367,9.6011,9.8606,10.0315,10.406,10.7749,10.9295,10.9702,11.0808,11.4705,11.6159,11.7671,12.0782,12.2062,12.276,12.3167,12.3865,12.4709,12.5524,12.7123,12.8432,12.8839,12.9712,13.0265,13.0265,13.0265,13.0265,13.0265,13.0265,13.0265,13.0265,13.0265,13.0265,13.0265,13.0265,13.0265,13.0265,13.0672,13.0847,13.0847,13.1282,13.105,13.0265,13.0672,13.0847,13.0847,13.1312,13.1457,13.1457,13.1457,13.201,13.2883,13.3783,13.4132,13.4132,13.4132,13.4365,13.4745,13.4745,13.4947,13.5296,13.5296,13.5063,13.4745,13.4745,13.4423,13.4132,13.4132,13.3465,13.2592,13.172,13.1166,13.0847,13.0847,13.1196,13.172,13.2592,13.2767,13.3174,13.4512,13.4423,13.4365,13.5179,13.4947,13.483,13.5238,13.6052,13.6607,13.6607,13.7332,13.7797,13.7797,13.7797,13.7506,13.6723,13.6607,13.6226,13.5354,13.5296,13.454,13.2883,13.2767,13.236,13.1487,13.1457,13.1254,13.0847,13.0847,13.0672,13.0265,13.0265,13.0265,9.2776,9.4637,9.6629,9.8373,10.1594,10.4467,10.4991,10.6237,10.8215,11.1389,11.3541,11.5635,11.8078,12.0374,12.2062,12.2585,12.3283,12.3895,12.436,12.6251,12.7763,12.8228,12.9421,13.0265,13.0265,13.0265,13.0265,13.0265,13.0265,13.0265,13.0265,13.0265,13.0265,13.0265,13.0265,13.0265,13.0265,13.0265,13.0265,13.0265,13.0265,13.0265,13.0265,13.0265,13.0265,13.0265,13.0265,13.0265,13.0265,13.0265,13.0731,13.1487,13.236,13.262,13.262,13.262,13.2969,13.3407,13.3407,13.3725,13.4132,13.4132,13.3783,13.3407,13.3407,13.3027,13.262,13.262,13.2069,13.1254,13.044,13.0265,13.0265,13.0265,13.0265,13.044,13.1254,13.1429,13.1836,13.3174,13.2969,13.2969,13.3958,13.3725,13.3551,13.4074,13.4772,13.5327,13.5327,13.5994,13.6401,13.6401,13.6401,13.611,13.5354,13.5327,13.4947,13.4191,13.3202,13.2301,13.1487,13.1429,13.108,13.0265,13.0265,13.0265,13.0265,13.0265,13.0265,13.0265,13.0265,13.0265,9.1592,9.2892,9.4484,9.6861,9.8373,9.9617,10.1036,10.4293,10.7051,10.7284,11.1098,11.4588,11.4795,11.7846,12.0782,12.2236,12.2613,12.3079,12.4156,12.5379,12.6687,12.7996,12.9305,13.0149,13.0265,13.0265,13.0265,13.0265,13.0265,13.0265,13.0265,13.0265,13.0265,13.0265,13.0265,13.0265,13.0265,13.0265,13.0265,13.0265,13.0265,13.0265,13.0265,13.0265,13.0265,13.0265,13.0265,13.0265,13.0265,13.0265,13.0265,13.0265,13.0265,13.0265,13.0265,13.0265,13.1021,13.2041,13.2041,13.2825,13.3842,13.3842,13.3058,13.2041,13.2041,13.1196,13.0265,13.0265,13.0265,13.0265,13.0265,13.0265,13.0265,13.0265,13.0265,13.0265,13.0265,13.0265,13.0614,13.1808,13.108,13.0991,13.3434,13.2825,13.2418,13.3667,13.39,13.4016,13.4016,13.4074,13.4132,13.4132,13.4132,13.4132,13.4132,13.4016,13.3958,13.3842,13.1573,13.0265,13.0265,13.0265,13.0265,13.0265,13.0265,13.0265,13.0265,13.0265,13.0265,13.0265,13.0265,13.0265,9.1882,9.2892,9.4252,9.5844,9.6462,9.7277,9.95,10.2257,10.4899,10.6877,10.9029,11.1415,11.4356,11.5635,11.7322,12.0665,12.2004,12.2788,12.2993,12.407,12.5321,12.6629,12.7937,12.913,13.0149,13.0265,13.0265,13.0265,13.0265,13.0265,13.0265,13.0265,13.0265,13.0265,13.0265,13.0265,13.0265,13.0265,13.0265,13.0265,13.0265,13.0265,13.0265,13.0265,13.0265,13.0265,13.0265,13.0265,13.0265,13.0265,13.0265,13.0265,13.0265,13.0265,13.0265,13.0265,13.044,13.0672,13.0672,13.0905,13.1166,13.1166,13.0963,13.0672,13.0672,13.0498,13.0265,13.0265,13.0265,13.0265,13.0265,13.0265,13.0265,13.0265,13.0265,13.0265,13.0265,13.0265,13.0323,13.0614,13.044,13.044,13.105,13.0905,13.0789,13.1108,13.201,13.2592,13.2592,13.3523,13.4132,13.4132,13.4132,13.4132,13.4132,13.3232,13.2243,13.1196,13.0584,13.0265,13.0265,13.0265,13.0265,13.0265,13.0265,13.0265,13.0265,13.0265,13.0265,13.0265,13.0265,13.0265,9.1787,9.2427,9.3437,9.5342,9.5808,9.6485,9.8977,10.1094,10.3095,10.5073,10.7051,10.932,11.2494,11.4065,11.5984,11.93,12.1422,12.2672,12.2672,12.3691,12.4651,12.5379,12.7123,12.8548,12.9305,12.9886,13.0265,13.0265,13.0265,13.0265,13.0265,13.0265,13.0265,13.0265,13.0265,13.0265,13.0265,13.0265,13.0265,13.0265,13.0265,13.0265,13.0265,13.0265,13.0265,13.0265,13.0265,13.0265,13.0265,13.0265,13.0265,13.0265,13.0265,13.0265,13.0265,13.0265,13.0265,13.0265,13.0265,13.0265,13.0265,13.0265,13.0265,13.0265,13.0265,13.0265,13.0265,13.0265,13.0265,13.0265,13.0265,13.0265,13.0265,13.0265,13.0265,13.0265,13.0265,13.0265,13.0265,13.0265,13.0265,13.0265,13.0265,13.0265,13.0265,13.0265,13.0847,13.1254,13.1254,13.1894,13.2329,13.2329,13.2329,13.2329,13.2329,13.172,13.0963,13.0265,13.0265,13.0265,13.0265,13.0265,13.0265,13.0265,13.0265,13.0265,13.0265,13.0265,13.0265,13.0265,13.0265,13.0265,9.165,9.1962,9.2485,9.4681,9.5575,9.6368,9.8476,10.0279,10.1792,10.2862,10.5189,10.7691,11.0018,11.2553,11.517,11.7761,12.0347,12.2178,12.2585,12.3516,12.4186,12.436,12.6338,12.7763,12.7996,12.9188,12.9944,12.9944,13.0149,13.0265,13.0265,13.0265,13.0265,13.0265,13.0265,13.0265,13.0265,13.0265,13.0265,13.0265,13.0265,13.0265,13.0265,13.0265,13.0265,13.0265,13.0265,13.0265,13.0265,13.0265,13.0265,13.0265,13.0265,13.0265,13.0265,13.0265,13.0265,13.0265,13.0265,13.0265,13.0265,13.0265,13.0265,13.0265,13.0265,13.0265,13.0265,13.0265,13.0265,13.0265,13.0265,13.0265,13.0265,13.0265,13.0265,13.0265,13.0265,13.0265,13.0265,13.0265,13.0265,13.0265,13.0265,13.0265,13.0265,13.0265,13.0265,13.0265,13.0265,13.0265,13.0265,13.0265,13.0265,13.0265,13.0265,13.0265,13.0265,13.0265,13.0265,13.0265,13.0265,13.0265,13.0265,13.0265,13.0265,13.0265,13.0265,13.0265,13.0265,13.0265,13.0265,13.0265,9.1882,9.1962,9.2078,9.2427,9.4193,9.5925,9.631,9.9022,10.1501,10.1734,10.3828,10.6096,10.7575,10.9877,11.2436,11.5054,11.7644,12.0114,12.2353,12.2846,12.3283,12.4302,12.4768,12.5466,12.6542,12.7821,12.8607,12.8607,12.9595,13.0265,13.0265,13.0265,13.0265,13.0265,13.0265,13.0265,13.0265,13.0265,13.0265,13.0265,13.0265,13.0265,13.0265,13.0265,13.0265,13.0265,13.0265,13.0265,13.0265,13.0265,13.0265,13.0265,13.0265,13.0265,13.0265,13.0265,13.0265,13.0265,13.0265,13.0265,13.0265,13.0265,13.0265,13.0265,13.0265,13.0265,13.0265,13.0265,13.0265,13.0265,13.0265,13.0265,13.0265,13.0265,13.0265,13.0265,13.0265,13.0265,13.0265,13.0265,13.0265,13.0265,13.0265,13.0265,13.0265,13.0265,13.0265,13.0265,13.0265,13.0265,13.0265,13.0265,13.0265,13.0265,13.0265,13.0265,13.0265,13.0265,13.0265,13.0265,13.0265,13.0265,13.0265,13.0265,13.0265,13.0265,13.0265,13.0265,13.0265,13.0265,13.0265,13.0265,9.1962,9.2427,9.3299,9.4652,9.5895,9.6964,9.7684,9.9174,10.0605,10.1326,10.2955,10.4875,10.6935,10.9295,11.1855,11.4472,11.7063,11.9389,12.1364,12.2178,12.2818,12.34,12.4011,12.4651,12.5262,12.6484,12.724,12.724,12.8432,12.9188,12.9188,12.9828,13.0265,13.0265,13.0265,13.0265,13.0265,13.0265,13.0265,13.0265,13.0265,13.0265,13.0265,13.0265,13.0265,13.0265,13.0265,13.0265,13.0265,13.0265,13.0265,13.0265,13.0265,13.0265,13.0265,13.0265,13.0265,13.0265,13.0265,13.0265,13.0265,13.0265,13.0265,13.0265,13.0265,13.0265,13.0265,13.0265,13.0265,13.0265,13.0265,13.0265,13.0265,13.0265,13.0265,13.0265,13.0265,13.0265,13.0265,13.0265,13.0265,13.0265,13.0265,13.0265,13.0265,13.0265,13.0265,13.0265,13.0265,13.0265,13.0265,13.0265,13.0265,13.0265,13.0265,13.0265,13.0265,13.0265,13.0265,13.0265,13.0265,13.0265,13.0265,13.0265,13.0265,13.0265,13.0265,13.0265,13.0265,13.0265,13.0265,13.0265,9.2311,0.0,9.4775,9.6709,9.7362,9.7827,0.0,9.9303,9.9849,10.078,10.228,10.4026,10.6004,10.868,11.1357,11.36,11.6132,11.84,12.0056,12.1364,12.2294,12.2585,12.3458,12.3982,12.3982,12.5146,12.5873,12.5873,12.7123,12.7821,12.7821,12.9072,12.977,12.977,12.977,12.977,12.977,13.0061,13.0265,13.0265,13.0265,13.0265,13.0265,13.0265,13.0265,13.0265,13.0265,13.0265,13.0265,13.0265,13.0265,13.0265,13.0265,13.0265,13.0265,13.0265,13.0265,13.0265,13.0265,13.0265,13.0265,13.0265,13.0265,13.0265,13.0265,13.0265,13.0265,13.0265,13.0265,13.0265,13.0265,13.0265,13.0265,13.0265,13.0265,13.0265,13.0265,13.0265,13.0265,13.0265,13.0265,13.0265,13.0265,13.0265,13.0265,13.0265,13.0265,13.0265,13.0265,13.0265,13.0265,13.0265,13.0265,13.0265,13.0265,13.0265,13.0265,13.0265,13.0265,13.0265,13.0265,13.0265,13.0265,13.0265,13.0265,13.0265,13.0265,13.0265,13.0265,13.0265,13.0265,13.0265,0.0,9.4681,9.575,9.5925,9.6789,9.7595,9.7711,9.8664,0.0,9.9652,10.1675,10.3468,10.3619,10.6785,10.9811,11.1066,11.3483,11.6016,11.8575,12.0056,12.1305,12.2555,12.273,12.276,12.276,12.3837,12.4535,12.4535,12.5728,12.6513,12.6513,12.7705,12.8403,12.8403,12.8403,12.8403,12.8403,12.9654,13.0265,13.0265,13.0265,13.0265,13.0265,13.0265,13.0265,13.0265,13.0265,13.0265,13.0265,13.0265,13.0265,13.0265,13.0265,13.0265,13.0265,13.0265,13.0265,13.0265,13.0265,13.0265,13.0265,13.0265,13.0265,13.0265,13.0265,13.0265,13.0265,13.0265,13.0265,13.0265,13.0265,13.0265,13.0265,13.0265,13.0265,13.0265,13.0265,13.0265,13.0265,13.0265,13.0265,13.0265,13.0265,13.0265,13.0265,13.0265,13.0265,13.0265,13.0265,13.0265,13.0265,13.0265,13.0265,13.0265,13.0265,13.0265,13.0265,13.0265,13.0265,13.0265,13.0265,13.0265,13.0265,13.0265,13.0265,13.0265,13.0265,13.0265,13.0265,13.0265,13.0265,13.0265,9.5662,9.6535,9.7116,9.7953,9.8454,9.878,9.878,9.9187,9.9536,9.9536,10.1617,10.341,10.341,10.7168,11.0484,11.0924,11.3858,11.6741,11.8517,11.9882,12.1189,12.2469,12.2672,12.2672,12.2672,12.3051,12.3342,12.3342,12.4419,12.5146,12.5146,12.6367,12.6716,12.5931,12.6658,12.7123,12.7123,12.7589,12.8228,12.9014,12.9014,12.9479,13.0265,13.0265,13.0265,13.0265,13.0265,13.0265,0.0,13.0265,13.0265,13.0265,13.0265,13.0265,13.0265,13.0265,13.0265,13.0265,13.0265,13.0265,13.0265,13.0265,13.0265,13.0265,13.0265,13.0265,13.0265,13.0265,13.0265,13.0265,13.0265,13.0265,13.0265,13.0265,13.0265,13.0265,13.0265,13.0265,13.0265,13.0265,13.0265,13.0265,13.0265,13.0265,13.0265,13.0265,13.0265,13.0265,13.0265,13.0265,13.0265,13.0265,13.0265,13.0265,13.0265,13.0265,12.9886,12.9072,12.9014,12.8665,12.7821,12.7821,12.7821,12.7821,12.7821,12.7821,12.7821,12.7821,12.7821,12.7821,12.7821,12.7821,9.7595,9.8467,9.9129,10.0431,10.0722,10.0722,10.0722,10.0722,10.0722,10.0722,10.249,10.4026,10.4026,10.7517,11.0542,11.0949,11.3541,11.6333,11.8458,11.9505,12.0754,12.2469,12.2672,12.2672,12.2672,12.2672,12.2672,12.2672,12.34,12.3865,12.3865,12.503,12.5146,12.3895,12.5088,12.5699,12.5699,12.6106,12.6804,12.7705,12.7705,12.8112,12.9014,12.9014,12.9246,12.9595,12.9595,12.9828,13.0265,13.0265,13.0265,13.0265,13.0265,13.0265,13.0265,13.0265,13.0265,13.0265,13.0265,13.0265,13.0265,13.0265,13.0265,13.0265,13.0265,13.0265,13.0265,13.0265,13.0265,13.0265,13.0265,13.0265,13.0265,13.0265,13.0265,13.0265,13.0265,13.0265,13.0265,13.0265,13.0265,13.0265,13.0265,13.0265,13.0265,13.0265,13.0265,13.0265,13.0265,13.0265,13.0265,13.0265,13.0265,12.9916,12.9072,12.9014,12.8635,12.7705,12.7705,12.7298,12.6397,12.6338,12.6338,12.6338,12.6338,12.6338,12.6338,12.6338,12.6338,12.6338,12.6338,12.6338,9.9187,10.0489,10.1792,10.3095,10.341,10.341,10.341,10.341,10.341,10.341,10.4409,10.5374,10.5374,10.7517,10.9636,11.0833,11.212,11.4303,11.8226,11.8749,11.9765,12.2353,12.2672,12.2672,12.2672,12.2672,12.2672,12.2672,12.2672,12.2672,12.2672,12.3749,12.3865,12.2702,12.3807,12.436,12.436,12.5669,12.6338,12.6338,12.6338,12.6338,12.6338,12.6338,12.7036,12.8286,12.8286,12.9014,13.0207,13.0207,13.0207,13.0207,13.0265,13.0265,13.0265,13.0265,13.0265,13.0265,13.0265,13.0265,13.0265,13.0265,13.0265,13.0265,13.0265,13.0265,13.0265,13.0207,13.0235,13.0265,13.0207,13.0235,13.0265,13.0265,13.0265,13.0265,13.0265,13.0265,13.0265,13.0265,13.0265,13.0265,13.0265,13.0265,13.0265,13.0265,13.0265,13.0265,13.0265,13.0265,13.0265,13.0207,13.0177,12.913,12.6571,12.6338,12.6338,12.6338,12.6338,12.6338,12.628,12.628,12.628,12.628,12.628,12.628,12.628,12.628,12.628,12.628,12.628,12.628,10.0315,10.121,10.1792,10.3095,10.341,10.341,10.341,10.341,10.341,10.341,10.4409,10.5374,10.5374,10.8132,11.06,11.0949,11.2843,11.5376,11.8342,11.8749,11.9765,12.2353,12.2672,12.2672,12.2672,12.2672,12.2672,12.2672,12.2672,12.2672,12.2672,12.2993,12.2993,12.2672,12.2993,12.3167,12.3167,12.3574,12.4186,12.4972,12.4972,12.5437,12.6338,12.6338,12.6571,12.692,12.692,12.7181,12.7589,12.8461,12.8897,12.8956,12.9916,13.0265,13.0265,13.0265,13.0265,13.0265,13.0265,13.0265,13.0265,13.0265,13.0265,13.0265,13.0265,13.0265,13.0032,12.913,12.9537,13.0032,12.913,12.9537,13.0265,13.0265,13.0265,13.0265,13.0265,13.0265,13.0265,13.0265,13.0265,13.0265,13.0265,13.0265,13.0265,13.0265,13.0265,13.0265,13.0265,13.0265,12.9886,12.8956,12.8054,12.7181,12.6397,12.6338,12.5931,12.5058,12.4972,12.4651,12.3779,12.3749,12.3749,12.3749,12.3749,12.3749,12.3749,12.3749,12.3749,12.3749,12.3749,12.3749,10.1559,10.228,10.2688,10.4491,10.4957,10.4957,10.4957,10.4957,10.4957,10.4957,10.5573,10.6154,10.6154,10.8772,11.0982,11.0982,11.3192,11.5783,11.84,11.8749,11.9765,12.2353,12.2672,12.2672,12.2672,12.2672,12.2672,12.2672,12.2672,12.2672,12.2672,12.2672,12.2672,12.2672,12.2672,12.2672,12.2672,12.2672,12.2993,12.3691,12.3691,12.4128,12.4855,12.4855,12.5146,12.5553,12.5553,12.5873,12.6397,12.724,12.753,12.7589,12.8403,12.9014,12.9479,12.9479,12.977,13.0265,13.0265,13.0265,13.0265,13.0265,12.9537,12.8665,12.8665,12.8665,12.8519,12.7763,12.8054,12.8519,12.7705,12.8112,12.8839,12.9363,12.9858,13.0265,13.0265,13.0265,13.0265,13.0265,13.0265,13.0091,12.9537,12.9479,12.9305,12.8752,12.8665,12.8665,12.8665,12.8665,12.8403,12.7589,12.6367,12.5379,12.4914,12.4855,12.4535,12.3749,12.3691,12.34,12.2672,12.2672,12.2672,12.2672,12.2672,12.2672,12.2672,12.2672,12.2672,12.2672,12.2672,12.2672,10.2513,10.3351,10.405,10.6528,10.7226,10.7284,10.7284,10.7284,10.7284,10.7284,10.7284,10.7284,10.7284,10.9295,11.0982,11.0982,11.3192,11.5783,11.84,11.8749,11.9765,12.2353,12.2672,12.2672,12.2672,12.2672,12.2672,12.2672,12.2672,12.2672,12.2672,12.2672,12.2672,12.2672,12.2672,12.2672,12.2672,12.2672,12.2672,12.2672,12.2672,12.2672,12.2672,12.2672,12.3225,12.4244,12.4244,12.4914,12.599,12.6106,12.6164,12.6164,12.628,12.7036,12.8112,12.8112,12.8839,12.9916,12.9916,12.9916,12.9916,12.9916,12.8286,12.6338,12.6338,12.6338,12.6338,12.6222,12.628,12.6338,12.6164,12.628,12.6629,12.7821,12.9014,12.9916,12.9916,12.9916,12.9916,12.9916,12.9916,12.9479,12.8286,12.8112,12.7705,12.6513,12.6338,12.6338,12.6338,12.6338,12.628,12.6077,12.4942,12.3807,12.2788,12.2672,12.2672,12.2672,12.2672,12.2672,12.2672,12.2672,12.2672,12.2672,12.2672,12.2672,12.2672,12.2672,12.2672,12.2672,12.2672,12.2672,10.121,10.263,10.3817,10.5398,10.6561,10.7284,10.7284,10.7284,10.7284,10.7284,10.7284,10.7284,10.7284,10.9295,11.0982,11.0982,11.3192,11.5783,11.84,11.8749,11.9765,12.2353,12.2672,12.2672,12.2672,12.2672,12.2672,12.2672,12.2672,12.2672,12.2672,12.2672,12.2672,12.2672,12.2672,12.2672,12.2672,12.2672,12.2672,12.2672,12.2672,12.2672,12.2672,12.2672,12.2788,12.2993,12.2993,12.3167,12.3516,12.4419,12.4826,12.4942,12.596,12.6513,12.6745,12.6745,12.6949,12.7181,12.7181,12.7181,12.7181,12.7181,12.6804,12.6338,12.6338,12.6338,12.6106,12.5088,12.5553,12.6106,12.5088,12.5611,12.6397,12.6687,12.6978,12.7181,12.7181,12.7181,12.7181,12.7181,12.7181,12.7094,12.6804,12.6745,12.6687,12.6397,12.6338,12.6338,12.6338,12.6338,12.5611,12.3633,12.3225,12.2962,12.2672,12.2672,12.2672,12.2672,12.2672,12.2672,12.2672,12.2672,12.2672,12.2672,12.2672,12.2672,12.2672,12.2672,12.2672,12.2672,12.2672,12.2672,9.9966,10.1501,10.2804,10.406,10.5398,10.6387,10.6387,10.6852,10.7284,10.7284,10.7284,10.7284,10.7284,10.9295,11.0982,11.0982,11.3192,11.5577,11.7555,11.8342,11.9533,12.148,12.2236,12.2672,12.2672,12.2672,12.2672,12.2672,12.2672,12.2672,12.2672,12.2672,12.2672,12.2672,12.2672,12.2672,12.2672,12.2672,12.2672,12.2672,12.2672,12.2672,12.2672,12.2672,12.2672,12.2672,12.2672,12.2672,12.2702,12.3342,12.3574,12.3633,12.4302,12.4942,12.5437,12.5437,12.5844,12.6338,12.6338,12.6338,12.6164,12.5,12.4593,12.4593,12.4593,12.4593,12.4419,12.3749,12.407,12.4419,12.3749,12.407,12.4709,12.5262,12.5437,12.5611,12.6222,12.6338,12.6338,12.6338,12.6338,12.6164,12.5553,12.5437,12.5204,12.4651,12.4593,12.4593,12.4593,12.4593,12.407,12.2788,12.2672,12.2672,12.2672,12.2672,12.2672,12.2672,12.2672,12.2672,12.2672,12.2672,12.2672,12.2672,12.2672,12.2672,12.2672,12.2672,12.2672,12.2672,12.2672,12.2672,9.878,10.014,10.1443,10.2746,10.406,10.5049,10.5049,10.6038,10.6993,10.6993,10.7143,10.7284,10.7284,10.9146,11.0775,11.0949,11.3018,11.5054,11.6593,11.7729,11.9009,12.0521,12.1654,12.2411,12.2672,12.2672,12.2672,12.2672,12.2672,12.2672,12.2672,12.2672,12.2672,12.2672,12.2672,12.2672,12.2672,12.2672,12.2672,12.2672,12.2672,12.2672,12.2672,12.2672,12.2672,12.2672,12.2672,12.2672,12.2672,12.2672,12.2672,12.2672,12.2672,12.3225,12.407,12.407,12.4739,12.5699,12.5699,12.5699,12.5379,12.3342,12.2672,12.2672,12.2672,12.2672,12.2672,12.2672,12.2672,12.2672,12.2672,12.2672,12.2904,12.3865,12.407,12.4419,12.5495,12.5699,12.5699,12.5699,12.5699,12.5379,12.4302,12.407,12.3749,12.2846,12.2672,12.2672,12.2672,12.2672,12.2868,12.3311,12.3367,12.3502,12.3968,12.4023,12.3862,12.3336,12.3367,12.3116,12.2672,12.2672,12.2672,12.2672,12.2672,12.2672,12.2672,12.2672,12.2672,12.2672,12.2672,12.2672,9.721,9.878,10.0082,10.1385,10.2746,10.3677,10.3677,10.4642,10.5607,10.5607,10.6503,10.7284,10.7284,10.8506,10.9811,11.0833,11.2236,11.4039,11.6476,11.7,11.7989,12.0405,12.0898,12.1422,12.2555,12.2672,12.2672,12.2672,12.2672,12.2672,12.2672,12.2672,12.2672,12.2672,12.2672,12.2672,12.2672,12.2672,12.2672,12.2672,12.2672,12.2672,12.2672,12.2672,12.2672,12.2672,12.2672,12.2672,12.2672,12.2672,12.2672,12.2672,12.2672,12.2788,12.2876,12.2876,12.2993,12.3167,12.3167,12.3167,12.3109,12.276,12.2672,12.2672,12.2672,12.2672,12.2672,12.2672,12.2672,12.2672,12.2672,12.2672,12.2702,12.2818,12.2876,12.2934,12.3109,12.3167,12.3167,12.3167,12.3167,12.3109,12.2876,12.2876,12.2818,12.2672,12.2672,12.2672,12.2672,12.2672,12.353,12.5772,12.604,12.6987,12.9385,12.9613,12.8566,12.62,12.604,12.4997,12.2756,12.2672,12.2672,12.2672,12.2672,12.2672,12.2672,12.2672,12.2672,12.2672,12.2672,12.2672,9.5219,9.6942,9.8583,9.9129,10.078,10.2339,10.2339,10.3328,10.4467,10.5199,10.5781,10.6445,10.7168,10.8356,10.9403,10.9927,11.168,11.3341,11.4446,11.5895,11.7233,11.8396,11.9184,12.0114,12.1422,12.1596,12.1887,12.2585,12.1945,12.1887,12.2613,12.2672,12.2672,12.2672,12.2672,12.2672,12.2672,12.2672,12.2672,12.2672,12.2672,12.2672,12.2672,12.2672,12.2672,12.2672,12.2672,12.2672,12.2672,12.2672,12.2672,12.2672,12.2672,12.2672,12.2672,12.2672,12.2672,12.2672,12.2672,12.2672,12.2672,12.2672,12.2672,12.2672,12.2672,12.2672,12.2672,12.2672,12.2672,12.2672,12.2672,12.2672,12.2672,12.2672,12.2672,12.2672,12.2672,12.2672,12.2672,12.2672,12.2672,12.2672,12.2672,12.2672,12.2672,12.2672,12.2672,12.32,12.4648,12.6173,12.7591,12.8721,12.8849,12.9359,13.0506,13.0606,13.0081,12.8926,12.8849,12.7669,12.4975,12.4839,12.416,12.27,12.2672,12.2672,12.2672,12.2672,12.3391,12.4839,12.4839,12.4839,9.3728,9.5197,9.6745,9.7036,9.8803,10.0489,10.0489,10.1734,10.3211,10.4177,10.4642,10.5282,10.6561,10.7575,10.8472,10.9112,11.0833,11.2236,11.285,11.462,11.6069,11.6767,0.0,11.8776,12.0114,12.0231,12.0638,12.1596,12.0754,12.0754,12.2062,12.2178,12.2294,12.2643,12.2672,12.2672,12.2672,12.2672,12.2672,12.2672,12.2672,12.2672,12.2672,12.2672,12.2672,12.2672,12.2672,12.2672,12.2672,12.2672,12.2672,12.2672,12.2672,12.2672,12.2672,12.2672,12.2672,12.2672,12.2672,12.2672,12.2672,12.2672,12.2672,12.2672,12.2672,12.2672,12.2672,12.2672,12.2672,12.2672,12.2672,12.2672,12.2672,12.2672,12.2672,12.2672,12.2672,12.2672,12.2672,12.2672,12.2672,12.2672,12.2672,12.2672,12.2672,12.2672,12.3228,12.4594,12.725,12.9385,13.0855,13.1521,13.1595,13.1927,13.2607,13.2655,13.2365,13.1644,13.1595,13.0381,12.7686,12.7617,12.6705,12.4703,12.4676,12.4676,12.4676,12.4676,12.5698,12.7617,12.7617,12.7224,9.3204,9.3961,9.4368,9.5612,9.6848,9.7769,9.7769,9.971,10.1559,10.1675,10.263,10.391,10.5224,10.549,10.6387,10.8822,10.9345,11.0251,11.2617,11.3024,11.4039,11.6535,11.6884,11.7439,0.0,11.8866,11.8924,11.8982,11.8924,11.9447,12.0782,12.0812,12.1364,12.2613,12.2672,12.2672,12.2672,12.2672,12.2672,12.2672,12.2672,12.2672,12.2672,12.2672,12.2672,12.2672,12.2672,12.2672,12.2672,12.2672,12.2672,12.2672,12.2672,12.2672,12.2672,12.2672,12.2672,12.2672,12.2672,12.2672,12.2672,12.2672,12.2672,12.2672,12.2672,12.2672,12.2672,12.2672,12.2672,12.2672,12.2672,12.2672,12.2672,12.2672,12.2672,12.2672,12.2672,12.2672,12.2672,12.2672,12.2672,12.2672,12.2672,12.2672,12.2672,12.2672,12.4757,12.7355,13.0056,13.0531,13.157,13.4014,13.4337,13.5378,13.7982,13.8159,13.7095,13.4501,13.4337,13.3159,13.0506,13.0406,13.0331,13.0206,13.0206,13.0206,13.0206,13.0206,13.0256,13.0406,13.0406,12.9053,9.1106,9.2601,9.4019,9.4448,9.5532,9.6462,9.6462,9.7756,9.9187,10.0024,10.1268,10.2548,10.3851,10.4816,10.5665,10.662,10.8157,10.9578,11.0426,11.1215,11.2352,11.4097,11.433,11.517,11.7322,11.6016,11.5725,11.738,11.7497,11.8078,11.9416,11.9447,11.9707,12.0172,12.0987,12.1422,12.1422,12.2236,12.2672,12.2672,12.2672,12.2672,12.2672,12.2672,12.2672,12.2672,12.2672,12.2672,12.2672,12.2672,12.2672,12.2672,12.2672,12.2672,12.2672,12.2672,12.2672,12.2672,12.2672,12.2672,12.2672,12.2672,12.2672,12.2672,12.2672,12.2672,12.2672,12.2672,12.2672,12.2672,12.2672,12.2672,12.2672,12.2672,12.2672,12.2672,12.2672,12.2672,12.2672,12.2672,12.2672,12.2672,12.2672,12.4023,12.5719,12.7538,12.998,13.201,13.3016,13.4682,13.6126,13.705,13.714,13.754,13.8509,13.8597,13.7787,13.5838,13.5794,13.4115,13.0496,13.0402,12.9535,12.7784,12.7759,12.7759,12.7759,12.7759,12.8634,13.0402,13.0402,12.982,8.9071,9.0624,9.2041,9.2485,9.3553,9.4622,9.5088,9.6113,9.7232,9.8127,9.8942,10.007,10.1815,10.2839,10.3688,10.4584,10.6528,10.8123,10.8506,10.9611,11.0866,11.212,11.2294,11.3108,11.5286,11.3541,11.3167,11.5345,11.5519,11.6275,11.802,11.811,11.8311,11.8749,11.9622,12.0056,12.0056,12.087,12.1364,12.1364,12.1771,12.2004,12.2004,12.2469,12.2672,12.2672,12.2672,12.2672,12.2672,12.2672,12.2672,12.2672,12.2672,12.2672,12.2672,12.2672,12.2353,12.2004,12.2004,12.2294,12.2672,12.2672,12.2672,12.2672,12.2672,12.2672,12.2672,12.2672,12.2672,12.2672,12.2672,12.2672,12.2672,12.2672,12.2672,12.2672,12.2672,12.2672,12.2893,12.3834,12.3941,12.427,12.5159,12.675,12.8541,13.0331,13.2083,13.3825,13.5631,13.7496,13.8597,13.8597,13.8137,13.7895,13.7895,13.7413,13.6756,13.5812,13.5747,13.4513,13.1723,13.1592,13.0769,12.8951,12.8905,12.8905,12.8905,12.8905,12.9843,13.1592,13.1592,13.1083,8.7192,8.7968,8.8297,8.9536,9.0836,9.2194,9.3495,9.4797,9.575,9.575,9.5808,9.6543,9.8977,9.9442,10.0315,10.2862,10.4409,10.5665,10.6993,10.8298,10.9578,11.0775,11.0924,11.1447,11.2617,11.168,11.1506,11.2792,11.285,11.3981,11.6535,11.6709,11.7264,11.8575,11.8691,11.8691,11.8691,11.8749,11.8749,11.8807,12.0056,12.0638,12.0696,12.1945,12.2555,12.2555,12.2555,12.2555,12.2555,12.2555,12.2555,12.2555,12.2555,12.2555,12.2555,12.2555,12.1713,12.0638,12.0638,12.148,12.2555,12.2555,12.2555,12.2555,12.2555,12.2555,12.2555,12.2555,12.2555,12.2585,12.2585,12.2585,12.2672,12.2672,12.2672,12.2672,12.2672,12.2728,12.353,12.604,12.6591,12.7538,13.0131,13.0681,13.073,13.073,13.0805,13.2727,13.7873,13.8531,13.8531,13.8465,13.7238,13.6404,13.6404,13.5133,13.4279,13.4279,13.4279,13.4213,13.4213,13.4213,13.4147,13.4147,13.4147,13.4081,13.4081,13.4081,13.4081,13.4081,13.4081,13.2645,8.3527,8.5292,8.6707,8.7114,8.8181,8.946,9.0777,9.2057,9.3263,9.4215,9.5146,9.6041,9.6717,9.7523,9.8664,10.0315,10.1652,10.3013,10.4317,10.5597,10.691,10.8157,10.9146,10.9495,10.8888,10.9378,11.0251,11.1447,11.1564,11.1855,11.2578,11.3483,11.4213,11.4562,11.6392,11.7407,11.7407,11.8311,11.8749,11.8749,11.9156,11.9273,11.9331,11.9707,11.9823,11.9823,11.9823,11.9823,11.9823,11.9823,11.9823,11.9823,11.9823,11.9823,11.9823,11.9823,11.9622,11.9273,11.9273,11.9505,11.9823,11.9823,11.9823,11.9823,11.9823,11.9823,11.9823,11.9823,12.0521,12.1247,12.1247,12.1945,12.2672,12.2672,12.2672,12.2672,12.2672,12.4133,12.5725,12.6439,12.8128,12.9703,13.0481,13.218,13.3446,13.3446,13.5124,13.6548,13.6955,13.7062,13.6646,13.5572,13.5133,13.4936,13.4936,13.4542,13.3818,13.27,13.2635,13.2174,13.1102,13.1102,13.0576,12.9564,12.9564,12.9018,12.7966,12.7966,12.7966,12.7966,12.7966,12.8147,7.8968,8.0987,8.3218,8.4303,8.5137,8.6165,8.7986,8.8975,8.9868,9.1168,9.2506,9.3553,9.4077,9.5219,9.6476,9.7778,9.9465,10.0919,10.1675,10.3362,10.484,10.5597,10.6377,10.6494,10.5771,10.6377,10.7541,10.932,10.9437,10.9877,11.0924,11.1738,11.212,11.212,11.36,11.4382,11.4382,11.5667,11.6365,11.6365,11.7412,11.7962,11.7962,11.8517,11.8749,11.8749,11.8749,11.8749,11.8749,11.8749,11.8749,11.8749,11.8749,11.8749,11.8633,11.7528,11.747,11.7962,11.7962,11.8311,11.8749,11.8749,11.8749,11.8749,11.8749,11.8749,11.8749,11.8749,11.9273,12.0155,12.1205,12.2032,12.286,12.3892,12.4097,12.4303,12.4955,12.6306,12.7842,12.9591,13.1152,13.2631,13.3771,13.5193,13.5809,13.4621,13.5821,13.6514,13.5681,13.5549,13.5265,13.441,13.4344,13.4081,13.3424,13.224,13.1188,13.0288,12.961,12.8952,12.8077,12.8077,12.7703,12.6868,12.6802,12.6408,12.5599,12.5599,12.5599,12.5599,12.5599,12.5072,7.4412,7.6158,7.8485,8.0965,8.1683,8.2402,0.0,8.5485,8.5893,8.7308,8.8684,8.9943,9.1243,9.2543,9.3903,9.5401,9.7452,9.8919,9.9093,10.1326,10.2862,10.2595,10.2828,10.2979,10.2979,10.3211,10.4375,10.6702,10.6877,10.7899,11.0226,11.0517,11.0633,11.0833,11.0924,11.0982,11.0982,11.212,11.2734,11.2734,11.5054,11.6186,11.6186,11.7354,11.7877,11.7877,11.7877,11.7993,11.811,11.8284,11.8342,11.8342,11.8342,11.8168,11.7644,11.5286,11.517,11.6186,11.6186,11.6915,11.7877,11.7877,11.7877,11.7877,11.7877,11.7993,11.811,11.811,11.8342,11.9026,12.1254,12.2169,12.2973,12.4887,12.5734,12.6471,12.7577,12.8306,12.9738,13.3312,13.4309,13.5248,13.7722,13.8137,13.7282,13.4739,13.4344,13.4279,13.4081,13.4081,13.4016,13.3818,13.3818,13.3161,13.1648,12.9038,12.746,12.746,12.6256,12.5599,12.5599,12.5401,12.527,12.5138,12.4941,12.4744,12.4612,12.4612,12.4612,12.4612,12.4612,12.2376,0.0,0.0,0.0,0.0,0.0,0.0,0.0,8.1568,8.219,8.4478,8.5989,8.7288,8.8588,8.9868,9.1533,9.3903,9.4659,9.5357,9.6426,9.8709,9.9523,9.7532,9.9058,10.0256,10.0256,10.2164,10.3642,10.4166,10.4166,10.484,10.6363,10.7434,10.8506,10.9578,11.0484,11.0982,11.0982,11.1273,11.1389,11.1389,11.1855,11.2087,11.2171,11.2378,11.2494,11.2494,11.2494,11.3108,11.4129,11.5202,11.5635,11.5635,11.5635,11.4356,11.2436,11.1913,11.1913,11.2087,11.2087,11.2287,11.2494,11.2494,11.2494,11.2494,11.2494,11.3225,11.4071,11.4071,11.5551,11.7282,11.7783,12.0197,12.2082,12.0527,12.3243,12.5711,12.4013,12.6935,13.0083,13.0907,13.2852,13.4533,13.5048,13.5133,13.4981,13.441,13.4344,13.3884,13.2635,13.2437,13.1977,13.0839,13.0707,13.0115,12.8644,12.6999,12.5993,12.5993,12.573,12.5599,12.5599,12.4461,12.3278,12.2133,12.0995,11.9812,11.8497,11.8497,11.8497,11.8497,11.8497,11.6853,0.0,0.0,0.0,0.0,0.0,0.0,0.0,0.0,0.0,0.0,0.0,8.3876,8.5776,0.0,8.8917,9.1533,9.2485,9.3379,9.4681,9.6462,9.6986,9.5088,9.6521,9.7684,9.7684,9.9407,10.0803,10.1443,10.2083,10.3037,10.4293,10.5015,10.5655,10.6319,10.6877,10.7492,10.819,10.883,10.9495,11.0135,11.0717,11.0982,11.0982,11.0982,11.0982,11.0982,11.0982,11.1389,11.2029,11.2669,11.296,11.296,11.296,11.2145,11.0982,11.0982,11.0982,11.1185,11.2348,11.2711,11.2711,11.2711,11.2711,11.2547,11.1329,11.2276,11.3726,11.3726,11.5479,11.7427,11.7551,11.9476,12.1429,12.1477,12.3854,12.6343,12.7037,12.9255,13.1322,13.21,13.3403,13.4344,13.4344,13.3074,13.2088,13.2088,13.2088,13.1825,13.1036,13.0267,12.9564,12.8886,12.8163,12.742,12.6716,12.5993,12.527,12.4527,12.3165,12.2376,12.2376,12.0911,11.9812,11.9088,11.7623,11.6506,11.5782,11.5011,11.4701,11.4635,11.3236,11.1772,0.0,0.0,0.0,0.0,0.0,0.0,0.0,0.0,0.0,0.0,0.0,0.0,0.0,0.0,0.0,8.878,9.037,9.1671,9.2972,9.404,9.431,9.3263,9.4506,9.5459,9.5459,9.6557,9.7675,9.8744,9.9756,10.1059,10.2571,10.263,10.2862,10.341,10.341,10.391,10.4991,10.6038,10.7051,10.8123,10.9088,0.0,10.9553,10.9761,10.9877,10.9935,11.0168,11.0426,11.0658,11.0658,11.0749,11.0916,11.0403,11.0382,11.0742,11.0742,11.0742,11.1036,11.2918,11.3603,11.3603,11.3603,11.3603,11.3215,11.1169,11.235,0.0,11.4168,11.6004,11.7992,11.8235,11.9469,12.1027,12.2601,12.458,12.679,12.9465,13.0635,13.1517,13.2832,13.3292,13.349,13.349,13.097,12.8998,12.8998,12.8998,12.8998,12.8998,12.8032,12.7328,12.7328,12.6256,12.5467,12.5204,12.5138,12.4395,12.2752,12.045,11.9023,11.8675,11.6984,11.5998,11.5998,11.4336,11.3463,11.3463,11.225,11.1724,11.161,10.8221,10.6561,0.0,0.0,0.0,0.0,0.0,0.0,0.0,0.0,0.0,0.0,0.0,0.0,0.0,0.0,0.0,0.0,8.7657,8.8937,9.0233,9.0582,9.0582,9.0466,9.2601,9.4077,9.4077,9.5262,9.6077,9.6252,9.6368,9.7452,9.9849,9.9966,0.0,0.0,0.0,10.3468,10.3619,10.3817,10.3933,10.405,10.4224,10.4282,10.4317,10.5456,10.6014,10.6072,10.7226,10.8389,10.9462,10.9462,11.0044,11.0744,10.8199,10.8299,10.9995,10.9995,10.9995,11.0017,11.0276,0.0,0.0,11.0383,11.0383,11.0137,10.9186,11.1277,11.3797,11.3143,11.5379,11.7969,11.7992,11.9875,12.1202,11.9205,12.2231,12.5152,12.3378,12.5728,12.8249,12.8446,12.9478,13.0378,13.0378,12.7946,12.6059,12.6059,12.6059,12.6059,12.6059,12.5927,12.5796,12.5796,12.5664,0.0,12.3804,12.3653,12.2554,11.9793,11.9351,11.8562,11.7116,11.4485,11.3056,11.3056,11.0391,10.8993,10.8993,10.8862,10.873,10.8599,10.3077,10.0513,0.0,0.0,0.0,0.0,0.0,0.0,0.0,0.0,0.0,0.0,0.0,0.0,0.0,0.0,0.0,0.0,8.4497,8.5989,8.6551,8.7248,8.8024,8.88,9.0487,9.165,9.165,9.3495,9.4681,9.4681,9.5401,9.6252,9.7335,9.7393,9.7859,9.8987,9.964,10.0373,10.1152,10.1908,10.263,10.341,10.341,10.341,10.3468,10.3968,10.4259,10.4235,10.4782,10.5388,10.5854,10.5854,10.6906,10.8391,0.0,0.0,0.0,0.0,10.9838,10.986,10.9986,11.0845,11.1872,11.1872,11.1872,11.1569,10.9835,11.1335,11.3497,11.3179,11.5134,11.7021,11.566,11.7305,11.906,11.8109,12.0716,12.3546,12.3915,12.5333,12.6473,12.6473,12.6979,0.0,12.6302,12.5842,12.5599,12.5599,12.5599,12.5599,12.5599,12.4856,12.433,12.433,12.356,12.2508,12.1042,12.0911,0.0,0.0,0.0,11.7116,11.5651,11.3648,0.0,0.0,0.0,10.5789,10.5789,10.4063,0.0,0.0,9.7818,9.6569,0.0,0.0,0.0,0.0,0.0,0.0,0.0,0.0,0.0,0.0,0.0,0.0,0.0,0.0,0.0,0.0,8.124,8.2671,8.2785,8.3832,8.5351,8.7437,8.8424,8.9071,8.9419,9.1147,9.2274,9.2274,9.3495,9.439,9.4739,9.5088,9.5459,9.5808,9.6673,9.7581,9.8512,9.9465,10.0419,10.1315,10.1315,10.1466,10.1792,10.2164,10.2513,10.292,10.327,10.341,10.341,10.341,10.436,10.5823,10.6119,10.66,10.7314,10.8815,10.9378,10.9398,10.9602,11.0649,11.1927,11.1927,11.1927,11.159,10.9598,11.0625,11.2457,11.2198,11.3858,11.534,11.4045,11.5194,11.6785,11.7375,11.9032,12.1116,12.334,12.3823,12.3955,12.4349,12.3757,12.2837,12.1831,12.2508,12.3165,12.3165,12.3165,12.3165,12.3165,12.2291,12.1634,12.1634,12.0667,11.9633,11.8628,11.8497,11.782,11.6327,11.5866,11.5011,11.3613,11.2118,11.0211,10.7761,10.4474,10.2567,0.0,0.0,0.0,0.0,0.0,0.0,0.0,0.0,0.0,0.0,0.0,0.0,0.0,0.0,0.0,0.0,0.0,0.0,0.0,0.0,0.0,0.0,0.0,0.0,7.92,8.0035,8.2177,8.6258,8.6414,8.6707,8.8006,8.8181,8.8239,8.8239,8.9419,9.0719,9.202,9.3263,9.4506,9.5808,9.5866,9.5925,9.5925,9.5983,9.6041,9.6041,9.6041,9.6695,9.7827,9.9071,10.0315,10.1617,10.2862,10.341,10.341,10.341,10.3457,10.3576,10.4665,10.6297,10.8258,10.831,10.8344,10.8344,10.8344,10.8396,10.843,10.843,10.843,10.8247,10.7316,10.8647,11.0294,10.9418,11.0857,11.2973,11.4311,11.4687,11.5082,11.6479,11.6939,11.7418,11.9004,11.9351,11.9746,12.1146,11.9088,11.705,11.705,11.705,11.7116,11.7116,11.7116,0.0,11.7116,11.705,11.705,11.705,11.6984,11.6918,11.6918,11.6918,11.6243,11.4862,11.3433,11.207,11.0606,10.9142,10.7695,10.6217,10.1909,9.8951,9.7601,0.0,0.0,0.0,0.0,0.0,0.0,0.0,0.0,0.0,0.0,0.0,0.0,0.0,0.0,0.0,0.0,0.0,0.0,0.0,0.0,0.0,0.0,0.0,0.0,7.6381,7.8183,8.2483,8.3626,8.4538,8.5731,8.6641,8.7057,8.6806,8.7172,8.7986,8.9286,8.9751,9.0624,9.1962,9.2776,9.367,9.4564,9.5401,9.5808,9.583,9.7162,9.7312,9.6448,9.8204,9.8546,9.7765,9.8195,9.9115,10.0336,10.0336,10.1057,10.246,10.4254,10.5417,10.6282,10.7741,10.7346,10.63,10.7775,10.7328,10.6336,10.781,10.827,10.8199,10.7898,10.8374,10.8921,10.8616,10.9128,10.9799,11.0308,11.118,11.225,11.3648,11.4748,11.5782,11.7313,11.7642,11.7773,11.8234,11.5209,11.2578,11.2578,11.3385,11.3977,11.3977,11.4814,11.5388,11.5388,11.6243,11.6853,11.6853,11.6853,11.6458,11.5519,11.5388,11.4402,11.1969,11.1395,11.0474,10.9059,10.6709,10.5213,10.4753,10.0347,9.6928,9.4546,0.0,0.0,0.0,0.0,0.0,0.0,0.0,0.0,0.0,0.0,0.0,0.0,0.0,0.0,0.0,0.0,0.0,0.0,0.0,0.0,0.0,0.0,0.0,0.0,0.0,0.0,7.9164,8.038,0.0,8.2545,8.3918,8.4786,8.5046,8.5489,8.6118,8.6886,8.777,8.8374,8.8626,8.9868,9.1267,9.2752,9.3449,9.4113,9.4737,9.58,9.5933,9.5233,9.7173,9.7642,9.6905,9.7613,9.8606,9.9676,9.848,9.9159,10.1065,10.245,10.3021,10.3177,10.4599,10.4214,10.3212,10.4632,10.4197,10.3229,10.4715,10.518,10.518,10.518,10.518,10.518,10.518,10.5509,10.6035,10.6578,10.7827,10.9225,11.0671,11.1706,11.2824,11.4204,11.4157,11.3613,11.3104,11.0803,10.8896,10.8896,11.008,11.1,11.1,11.1837,11.2411,11.2411,11.3678,11.4551,11.4551,11.5011,11.4946,11.4025,11.3481,11.2363,11.0522,10.9488,10.8501,10.7564,10.4753,10.2912,10.2435,9.8112,9.4429,0.0,0.0,0.0,0.0,0.0,0.0,0.0,0.0,0.0,0.0,0.0,0.0,0.0,0.0,0.0,0.0,0.0,0.0,0.0,0.0,0.0,0.0,0.0,0.0,0.0,0.0,0.0,7.661,7.7039,0.0,0.0,0.0,0.0,8.2885,8.4136,8.4812,8.4733,8.7045,8.7643,8.609,8.7255,8.879,9.0551,9.0124,9.0792,9.2515,9.2228,9.2685,9.3937,9.583,9.7349,9.8577,10.0412,10.1315,10.1132,9.7854,9.7615,9.933,9.933,9.933,9.933,9.933,9.933,9.933,9.933,9.933,9.933,9.933,9.933,9.933,9.933,9.933,0.0,0.0,10.0331,10.1794,10.3306,10.4753,10.6217,10.7678,10.8073,10.8467,10.9996,10.9207,10.7678,10.6019,10.569,10.569,10.569,0.0,10.7876,10.7941,10.8007,10.8073,10.8138,10.9405,11.0343,11.0408,11.1544,11.2333,11.2399,11.1132,11.0277,11.0211,10.7598,10.6019,10.5888,10.2978,10.066,9.9264,9.4991,0.0,0.0,0.0,0.0,0.0,0.0,0.0,0.0,0.0,0.0,0.0,0.0,0.0,0.0,0.0,0.0,0.0,0.0,0.0,0.0,0.0,0.0,0.0,0.0,0.0,0.0,6.9228,7.1234,7.5489,7.7032,7.8215,0.0,0.0,0.0,0.0,0.0,0.0,8.1972,8.3646,8.481,8.5385,8.5536,8.6254,8.7711,8.8659,8.9415,8.9984,9.2271,9.3459,9.3613,9.4308,9.4716,9.4893,9.5334,9.6476,9.7797,9.6255,9.5924,9.6321,9.6321,9.6321,9.6321,9.6321,9.6321,9.6321,9.6321,9.6321,9.6321,9.6321,9.6321,9.6321,9.6321,0.0,0.0,0.0,0.0,9.8587,9.8982,10.015,10.1909,10.4474,10.5065,10.5789,10.827,10.7695,10.5279,10.056,9.964,9.964,9.964,10.0808,0.0,10.3224,0.0,10.546,10.6529,10.7975,10.9207,11.0259,10.9799,10.9799,11.0869,10.9668,10.8353,10.7269,10.5542,10.403,10.2846,9.9032,9.6255,9.4794,0.0,0.0,0.0,0.0,0.0,0.0,0.0,0.0,0.0,0.0,0.0,0.0,0.0,0.0,0.0,0.0,0.0,0.0,0.0,0.0,0.0,0.0,0.0,0.0,0.0,0.0,0.0,6.7622,7.0109,7.2534,7.4678,7.6514,0.0,0.0,0.0,0.0,0.0,0.0,0.0,0.0,0.0,8.2498,8.289,8.4212,8.6442,8.6971,8.7985,8.9555,9.11,9.2118,9.2579,9.363,9.4425,9.4876,9.5072,9.4797,9.4068,9.2897,9.2442,9.2376,0.0,0.0,0.0,0.0,9.1484,9.1484,9.1484,9.1484,9.1484,9.1484,0.0,0.0,0.0,0.0,0.0,0.0,0.0,9.4575,9.4575,9.6139,9.8228,10.0545,10.1071,10.1728,10.3931,10.186,9.8522,9.5233,9.4575,9.4575,9.4575,9.6796,0.0,0.0,0.0,10.3224,10.4112,10.6003,10.7646,10.8436,10.8353,10.8599,10.9405,10.8156,10.6709,10.5279,10.3832,10.1991,9.9887,9.6255,9.3362,0.0,0.0,0.0,0.0,0.0,0.0,0.0,0.0,0.0,0.0,0.0,0.0,0.0,0.0,0.0,0.0,0.0,0.0,0.0,0.0,0.0,0.0,0.0,0.0,0.0,0.0,0.0,0.0,0.0,6.8888,6.9419,0.0,0.0,0.0,0.0,0.0,0.0,0.0,0.0,0.0,0.0,0.0,0.0,0.0,8.2287,8.525,8.4935,8.619,8.9103,8.8725,8.9414,9.11,9.2647,9.4267,9.5861,9.5758,0.0,8.9957,8.8577,0.0,0.0,0.0,0.0,0.0,0.0,0.0,0.0,0.0,0.0,0.0,0.0,0.0,0.0,0.0,0.0,0.0,0.0,0.0,0.0,0.0,0.0,9.4495,9.6154,9.6549,9.6812,9.7636,9.3757,9.0103,9.0103,9.0103,9.0103,0.0,0.0,0.0,0.0,0.0,0.0,10.1597,10.3915,10.569,10.6085,10.7104,10.781,10.7958,10.6463,10.5016,10.375,10.1844,9.9624,9.6943,9.3888,0.0,0.0,0.0,0.0,0.0,0.0,0.0,0.0,0.0,0.0,0.0,0.0,0.0,0.0,0.0,0.0,0.0,0.0,0.0,0.0,0.0,0.0,0.0,0.0,0.0,0.0,0.0,0.0,0.0,0.0,0.0,0.0,0.0,0.0,0.0,0.0,0.0,0.0,0.0,0.0,0.0,0.0,0.0,0.0,0.0,0.0,0.0,0.0,0.0,0.0,8.4348,8.6321,8.9254,8.8083,8.9143,9.1755,8.816,8.6182,8.5393,8.3973,0.0,0.0,0.0,0.0,0.0,0.0,0.0,0.0,0.0,0.0,0.0,0.0,0.0,0.0,0.0,0.0,0.0,0.0,0.0,0.0,0.0,0.0,8.8868,9.1499,9.2076,9.1484,8.9394,0.0,0.0,0.0,0.0,0.0,0.0,0.0,0.0,0.0,0.0,0.0,10.1202,10.2123,10.3372,10.5888,10.5279,10.5213,10.6414,10.403,10.232,10.2123,9.8491,9.5598,0.0,0.0,0.0,0.0,0.0,0.0,0.0,0.0,0.0,0.0,0.0,0.0,0.0,0.0,0.0,0.0,0.0,0.0,0.0,0.0,0.0,0.0,0.0,0.0,0.0,0.0,0.0,0.0,0.0,0.0,0.0,0.0,0.0,0.0,0.0,0.0,0.0,0.0,0.0,0.0,0.0,0.0,0.0,0.0,0.0,0.0,0.0,0.0,0.0,0.0,0.0,0.0,0.0,0.0,0.0,0.0,0.0,0.0,8.5157,8.3237,0.0,0.0,0.0,0.0,0.0,0.0,0.0,0.0,0.0,0.0,0.0,0.0,0.0,0.0,0.0,0.0,0.0,0.0,0.0,0.0,0.0,0.0,0.0,0.0,0.0,0.0,0.0,0.0,0.0,0.0,0.0,0.0,0.0,0.0,0.0,0.0,0.0,0.0,0.0,0.0,9.8966,10.0742,10.2517,10.4753,10.4408,10.4276,10.495,10.2978,10.1005,9.9574,9.6124,0.0,0.0,0.0,0.0,0.0,0.0,0.0,0.0,0.0,0.0,0.0,0.0,0.0,0.0,0.0,0.0,0.0,0.0,0.0,0.0,0.0,0.0,0.0,0.0,0.0,0.0,0.0,0.0,0.0,0.0,0.0,0.0,0.0,0.0,0.0,0.0,0.0,0.0,0.0,0.0,0.0,0.0,0.0,0.0,0.0,0.0,0.0,0.0,0.0,0.0,0.0,0.0,0.0,0.0,0.0,0.0,0.0,0.0,0.0,8.2079,8.0369,0.0,0.0,0.0,0.0,0.0,0.0,0.0,0.0,0.0,0.0,0.0,0.0,0.0,0.0,0.0,0.0,0.0,0.0,0.0,0.0,0.0,0.0,0.0,0.0,0.0,0.0,0.0,0.0,0.0,0.0,0.0,0.0,0.0,0.0,0.0,0.0,0.0,0.0,0.0,0.0,9.6549,9.9427,10.1778,10.3372,10.3832,10.3882,10.3553,10.1794,9.964,9.7075,9.3706,0.0,0.0,0.0,0.0,0.0,0.0,0.0,0.0,0.0,0.0,0.0,0.0,0.0,0.0,0.0,0.0,0.0,0.0,0.0,0.0,0.0,0.0,0.0,0.0,0.0,0.0,0.0,0.0,0.0,0.0,0.0,0.0,0.0,0.0,0.0,0.0,0.0,0.0,0.0,0.0,0.0,0.0,0.0,0.0,0.0,0.0,0.0,0.0,0.0,0.0,0.0,0.0,0.0,0.0,0.0,0.0,0.0,0.0,0.0,0.0,0.0,0.0,0.0,0.0,0.0,0.0,0.0,0.0,0.0,0.0,0.0,0.0,0.0,0.0,0.0,0.0,0.0,0.0,0.0,0.0,0.0,0.0,0.0,0.0,0.0,0.0,0.0,0.0,0.0,0.0,0.0,0.0,0.0,0.0,0.0,0.0,0.0,0.0,0.0,0.0,0.0,9.4955,9.7965,10.0266,10.1728,10.3159,10.3422,10.1991,9.9377,9.714,9.5547,0.0,0.0,0.0,0.0,0.0,0.0,0.0,0.0,0.0,0.0,0.0,0.0,0.0,0.0,0.0,0.0,0.0,0.0,0.0,0.0,0.0,0.0,0.0,0.0,0.0,0.0,0.0,0.0,0.0,0.0,0.0,0.0,0.0,0.0,0.0,0.0,0.0,0.0,0.0,0.0,0.0,0.0,0.0,0.0,0.0,0.0,0.0,0.0,0.0,0.0,0.0,0.0,0.0,0.0,0.0,0.0,0.0,0.0,0.0,0.0,0.0,0.0,0.0,0.0,0.0,0.0,0.0,0.0,0.0,0.0,0.0,0.0,0.0,0.0,0.0,0.0,0.0,0.0,0.0,0.0,0.0,0.0,0.0,0.0,0.0,0.0,0.0,0.0,0.0,0.0,0.0,0.0,0.0,0.0,0.0,0.0,0.0,0.0,0.0,0.0,0.0,0.0,9.3282,9.5729,9.8162,10.1334,10.1449,10.1383,10.1646,9.8243,9.5152,9.2785,0.0,0.0,0.0,0.0,0.0,0.0,0.0,0.0,0.0,0.0,0.0,0.0,0.0,0.0,0.0,0.0,0.0,0.0,0.0,0.0,0.0,0.0,0.0,0.0,0.0,0.0,0.0,0.0,0.0,0.0,0.0,0.0,0.0,0.0,0.0,0.0,0.0,0.0,0.0,0.0,0.0,0.0,0.0,0.0,0.0,0.0,0.0,0.0,0.0,0.0,0.0,0.0,0.0,0.0,0.0,0.0,0.0,0.0,0.0,0.0,0.0,0.0,0.0,0.0,0.0,0.0,0.0,0.0,0.0,0.0,0.0,0.0,0.0,0.0,0.0,0.0,0.0,0.0,0.0,0.0,0.0,0.0,0.0,0.0,0.0,0.0,0.0,0.0,0.0,0.0,0.0,0.0,0.0,0.0,0.0,0.0,0.0,0.0,0.0,0.0,0.0,0.0,9.177,9.4085,9.6715,10.0594,10.0118,9.9724,10.0347,9.6847,9.318,8.992,0.0,0.0,0.0,0.0,0.0,0.0,0.0,0.0,0.0,0.0,0.0,0.0,0.0,0.0,0.0,0.0,0.0,0.0,0.0,0.0,0.0,0.0,0.0,0.0,0.0,0.0,0.0,0.0,0.0,0.0,0.0,0.0,0.0,0.0,0.0,0.0,0.0,0.0,0.0,0.0,0.0,0.0,0.0,0.0,0.0,0.0,0.0,0.0,0.0,0.0,0.0,0.0,0.0,0.0,0.0,0.0,0.0,0.0,0.0,0.0,0.0,0.0,0.0,0.0,0.0,0.0,0.0,0.0,0.0,0.0,0.0,0.0,0.0,0.0,0.0,0.0,0.0,0.0,0.0,0.0,0.0,0.0,0.0,0.0,0.0,0.0,0.0,0.0,0.0,0.0,0.0,0.0,0.0,0.0,0.0,0.0,0.0,0.0,0.0,0.0,0.0,0.0,9.0432,9.3443,9.6387,9.9264,9.9527,9.8951,9.7535,9.4809,9.1324,0.0,0.0,0.0,0.0,0.0,0.0,0.0,0.0,0.0,0.0,0.0,0.0,0.0,0.0,0.0,0.0,0.0,0.0,0.0,0.0,0.0,0.0,0.0,0.0,0.0,0.0,0.0,0.0,0.0,0.0,0.0,0.0,0.0,0.0,0.0,0.0,0.0,0.0,0.0,0.0,0.0,0.0,0.0,0.0,0.0,0.0,0.0,0.0,0.0,0.0,0.0,0.0,0.0,0.0,0.0,0.0,0.0,0.0,0.0,0.0,0.0,0.0,0.0,0.0,0.0,0.0,0.0,0.0,0.0,0.0,0.0,0.0,0.0,0.0,0.0,0.0,0.0,0.0,0.0,0.0,0.0,0.0,0.0,0.0,0.0,0.0,0.0,0.0,0.0,0.0,0.0,0.0,0.0,0.0,0.0,0.0,0.0,0.0,0.0,0.0,0.0,0.0,0.0,8.7741,9.1274,9.4313,0.0,9.6584,9.6387,9.5941,9.3311,8.976,8.5341,0.0,0.0,0.0,0.0,0.0,0.0,0.0,0.0,0.0,0.0,0.0,0.0,0.0,0.0,0.0,0.0,0.0,0.0,0.0,0.0,0.0,0.0,0.0,0.0,0.0,0.0,0.0,0.0,0.0,0.0,0.0,0.0,0.0,0.0,0.0,0.0,0.0,0.0,0.0,0.0,0.0,0.0,0.0,0.0,0.0,0.0,0.0,0.0,0.0,0.0,0.0,0.0,0.0,0.0,0.0,0.0,0.0,0.0,0.0,0.0,0.0,0.0,0.0,0.0,0.0,0.0,0.0,0.0,0.0,0.0,0.0,0.0,0.0,0.0,0.0,0.0,0.0,0.0,0.0,0.0,0.0,0.0,0.0,0.0,0.0,0.0,0.0,0.0,0.0,0.0,0.0,0.0,0.0,0.0,0.0,0.0,0.0,0.0,0.0,0.0,0.0,0.0,0.0,9.0044,9.2899,0.0,9.5269,9.5006,9.448,9.1784,8.8248,8.3829,0.0,0.0,0.0,0.0,0.0,0.0,0.0,0.0,0.0,0.0,0.0,0.0,0.0,0.0,0.0,0.0,0.0,0.0,0.0,0.0,0.0,0.0,0.0,0.0,0.0,0.0,0.0,0.0,0.0,0.0,0.0,0.0,0.0,0.0,0.0,0.0,0.0,0.0,0.0,0.0,0.0,0.0,0.0,0.0,0.0,0.0,0.0,0.0,0.0,0.0,0.0,0.0,0.0,0.0,0.0,0.0,0.0,0.0,0.0,0.0,0.0,0.0,0.0,0.0,0.0,0.0,0.0,0.0,0.0,0.0,0.0,0.0,0.0,0.0,0.0,0.0,0.0,0.0,0.0,0.0,0.0,0.0,0.0,0.0,0.0,0.0,0.0,0.0,0.0,0.0,0.0,0.0,0.0,0.0,0.0,0.0,0.0,0.0,0.0,0.0,0.0,0.0,0.0,8.9548,9.1848,9.4626,9.4955,9.4414,9.3085,9.0338,8.6801,8.2474,8.0883,0.0,0.0,0.0,0.0,0.0,0.0,0.0,0.0,0.0,0.0,0.0,0.0,0.0,0.0,0.0,0.0,0.0,0.0,0.0,0.0,0.0,0.0,0.0,0.0,0.0,0.0,0.0,0.0,0.0,0.0,0.0,0.0,0.0,0.0,0.0,0.0,0.0,0.0,0.0,0.0,0.0,0.0,0.0,0.0,0.0,0.0,0.0,0.0,0.0,0.0,0.0,0.0,0.0,0.0,0.0,0.0,0.0,0.0,0.0,0.0,0.0,0.0,0.0,0.0,0.0,0.0,0.0,0.0,0.0,0.0,0.0,0.0,0.0,0.0,0.0,0.0,0.0,0.0,0.0,0.0,0.0,0.0,0.0,0.0,0.0,0.0,0.0,0.0,0.0,0.0,0.0,0.0,0.0,0.0,0.0,0.0,0.0,0.0,0.0,0.0,0.0,0.0,8.682,8.9792,9.1797,9.201,9.1879,9.147,8.8854,8.5776,8.2421,8.0883,0.0,0.0,0.0,0.0,0.0,0.0,0.0,0.0,0.0,0.0,0.0,0.0,0.0,0.0,0.0,0.0,0.0,0.0,0.0,0.0,0.0,0.0,0.0,0.0,0.0,0.0,0.0,0.0,0.0,0.0,0.0,0.0,0.0,0.0,0.0,0.0,0.0,0.0,0.0,0.0,0.0,0.0,0.0,0.0,0.0,0.0,0.0,0.0,0.0,0.0,0.0,0.0,0.0,0.0,0.0,0.0,0.0,0.0,0.0,0.0,0.0,0.0,0.0,0.0,0.0,0.0,0.0,0.0,0.0,0.0,0.0,0.0,0.0,0.0,0.0,0.0,0.0,0.0,0.0,0.0,0.0,0.0,0.0,0.0,0.0,0.0,0.0,0.0,0.0,0.0,0.0,0.0,0.0,0.0,0.0,0.0,0.0,0.0,0.0,0.0,0.0,0.0,8.5278,8.7852,8.9774,9.0564,9.0695,9.0023,8.7327,8.4644,8.2342,8.0238,0.0,0.0,0.0,0.0,0.0,0.0,0.0,0.0,0.0,0.0,0.0,0.0,0.0,0.0,0.0,0.0,0.0,0.0,0.0,0.0,0.0,0.0,0.0,0.0,0.0,0.0,0.0,0.0,0.0,0.0,0.0,0.0,0.0,0.0,0.0,0.0,0.0,0.0,0.0,0.0,0.0,0.0,0.0,0.0,0.0,0.0,0.0,0.0,0.0,0.0,0.0,0.0,0.0,0.0,0.0,0.0,0.0,0.0,0.0,0.0,0.0,0.0,0.0,0.0,0.0,0.0,0.0,0.0,0.0,0.0,0.0,0.0,0.0,0.0,0.0,0.0,0.0,0.0,0.0,0.0,0.0,0.0,0.0,0.0,0.0,0.0,0.0,0.0,0.0,0.0,0.0,0.0,0.0,0.0,0.0,0.0,0.0,0.0,0.0,0.0,0.0,0.0,0.0,8.5785,8.7911,8.9426,8.984,8.8642,8.5735,8.3434,8.2014,0.0,0.0,0.0,0.0,0.0,0.0,0.0,0.0,0.0,0.0,0.0,0.0,0.0,0.0,0.0,0.0,0.0,0.0,0.0,0.0,0.0,0.0,0.0,0.0,0.0,0.0,0.0,0.0,0.0,0.0,0.0,0.0,0.0,0.0,0.0,0.0,0.0,0.0,0.0,0.0,0.0,0.0,0.0,0.0,0.0,0.0,0.0,0.0,0.0,0.0,0.0,0.0,0.0,0.0,0.0,0.0,0.0,0.0,0.0,0.0,0.0,0.0,0.0,0.0,0.0,0.0,0.0,0.0,0.0,0.0,0.0,0.0,0.0,0.0,0.0,0.0,0.0,0.0,0.0,0.0,0.0,0.0,0.0,0.0,0.0,0.0,0.0,0.0,0.0,0.0,0.0,0.0,0.0,0.0,0.0,0.0,0.0,0.0,0.0,0.0,0.0,0.0,0.0,0.0,8.3025,8.4578,8.6297,8.7223,8.7039,8.4263,8.1948,8.0488,0.0,0.0,0.0,0.0,0.0,0.0,0.0,0.0,0.0,0.0,0.0,0.0,0.0,0.0]}],[{"header":{"parameterUnit":"kt","parameterCategory":2,"dx":1,"dy":1,"la1":29.285339999999998,"la2":30.599998999999997,"lo1":-89.70041500000002,"lo2":-87.6738589999976,"nx":112,"ny":82,"refTime":"2022-10-05T12:00:00:Z","depth":0,"parameterNumber":2,"parameterNumberName":"V-component_of_WINDS"},"data":[10.4204,10.3683,0.0,10.2545,10.2106,0.0,10.0983,0.0,0.0,0.0,0.0,0.0,0.0,0.0,0.0,0.0,0.0,0.0,0.0,0.0,0.0,0.0,0.0,0.0,0.0,0.0,0.0,0.0,0.0,0.0,0.0,11.349,11.4417,11.5088,11.5479,11.5625,11.5625,11.5625,11.5625,11.5625,11.5625,11.5625,11.5625,11.5625,11.5625,11.5625,11.5625,11.5625,11.5625,11.5625,11.5625,11.5625,11.5625,11.5625,11.5625,11.5625,11.5625,11.5625,11.5625,11.5625,11.5625,11.5625,11.5625,11.5625,11.5625,11.5625,11.5625,11.5625,11.5625,11.5625,11.5625,11.5625,11.5625,11.5625,11.5625,11.5625,11.5625,11.5625,11.5625,11.5625,11.5625,11.5625,11.5625,11.5625,11.5625,11.5625,11.5625,11.5625,11.5625,11.5625,11.5625,11.5625,11.5625,11.5625,11.5625,11.5625,11.5625,11.5625,11.5625,11.5625,11.5625,11.5625,11.5625,11.5625,11.5625,11.5625,11.5625,11.5625,11.5625,11.5625,11.5625,11.5625,0.0,0.0,10.2072,10.1032,0.0,0.0,0.0,0.0,0.0,0.0,0.0,0.0,0.0,0.0,0.0,0.0,0.0,0.0,0.0,0.0,0.0,0.0,0.0,0.0,0.0,0.0,0.0,0.0,10.9964,0.0,11.3978,11.4417,11.4905,11.5625,11.5625,11.5625,11.5625,11.5625,11.5625,11.5625,11.5625,11.5625,11.5625,11.5625,11.5625,11.5625,11.5625,11.5625,11.5625,11.5625,11.5625,11.5625,11.5625,11.5625,11.5625,11.5625,11.5625,11.5625,11.5625,11.5625,11.5625,11.5625,11.5625,11.5625,11.5625,11.5625,11.5625,11.5625,11.5625,11.5625,11.5625,11.5625,11.5625,11.5625,11.5625,11.5625,11.5625,11.5625,11.5625,11.5625,11.5625,11.5625,11.5625,11.5625,11.5625,11.5625,11.5625,11.5625,11.5625,11.5625,11.5625,11.5625,11.5625,11.5625,11.5625,11.5625,11.5625,11.5625,11.5625,11.5625,11.5625,11.5625,11.5625,11.5625,11.5625,11.5625,11.5625,11.5625,11.5625,11.5625,11.5625,11.5625,0.0,0.0,0.0,9.9942,0.0,0.0,0.0,0.0,9.7925,0.0,0.0,0.0,0.0,0.0,0.0,0.0,0.0,0.0,0.0,0.0,0.0,0.0,0.0,0.0,0.0,10.7119,10.8158,0.0,11.1379,11.3039,11.4075,11.5137,11.5625,11.5625,11.5625,11.5625,11.5625,11.5625,11.5625,11.5625,11.5625,11.5625,11.5625,11.5625,11.5625,11.5625,11.5625,11.5625,11.5625,11.5625,11.5625,11.5625,11.5625,11.5625,11.5625,11.5625,11.5625,11.5625,11.5625,11.5625,11.5625,11.5625,11.5625,11.5625,11.5625,11.5625,11.5625,11.5625,11.5625,11.5625,11.5625,11.5625,11.5625,11.5625,11.5625,11.5625,11.5625,11.5625,11.5625,11.5625,11.5625,11.5625,11.5625,11.5625,11.5625,11.5625,11.5625,11.5625,11.5625,11.5625,11.5625,11.5625,11.5625,11.5625,11.5625,11.5625,11.5625,11.5625,11.5625,11.5625,11.5625,11.5625,11.5625,11.5625,11.5625,11.5625,11.5625,11.5625,11.5625,11.5625,11.5625,11.5625,10.0235,0.0,0.0,0.0,0.0,0.0,0.0,0.0,0.0,0.0,0.0,0.0,0.0,0.0,0.0,0.0,0.0,0.0,0.0,9.9616,0.0,0.0,0.0,0.0,0.0,10.8207,10.9586,11.1477,11.2904,11.4124,11.5186,11.5479,11.5625,11.5625,11.5625,11.5625,11.5625,11.5625,11.5625,11.5625,11.5625,11.5625,11.5625,11.5625,11.5625,11.5625,11.5625,11.5625,11.5625,11.5625,11.5625,11.5625,11.5625,11.5625,11.5625,11.5625,11.5625,11.5625,11.5625,11.5625,11.5625,11.5625,11.5625,11.5625,11.5625,11.5625,11.5625,11.5625,11.5625,11.5625,11.5625,11.5625,11.5625,11.5625,11.5625,11.5625,11.5625,11.5625,11.5625,11.5625,11.5625,11.5625,11.5625,11.5625,11.5625,11.5625,11.5625,11.5625,11.5625,11.5625,11.5625,11.5625,11.5625,11.5625,11.5625,11.5625,11.5625,11.5625,11.5625,11.5625,11.5625,11.5625,11.5625,11.5625,11.5625,11.5625,11.5625,11.5625,11.5625,11.5625,11.5625,11.5625,0.0,0.0,0.0,0.0,0.0,0.0,9.6542,0.0,9.7078,0.0,0.0,0.0,0.0,0.0,0.0,0.0,9.9551,0.0,0.0,0.0,10.3228,10.4922,10.6094,10.7216,10.8207,10.972,11.1379,11.3087,11.3734,11.4563,11.5577,11.5625,11.5625,11.5625,11.5625,11.5625,11.5625,11.5625,11.5625,11.5625,11.5625,11.5625,11.5625,11.5625,11.5625,11.5625,11.5625,11.5625,11.5625,11.5625,11.5625,11.5625,11.5625,11.5625,11.5625,11.5625,11.5625,11.5625,11.5625,11.5625,11.5625,11.5625,11.5625,11.5625,11.5625,11.5625,11.5625,11.5625,11.5625,11.5625,11.5625,11.5625,11.5625,11.5625,11.5625,11.5625,11.5625,11.5625,11.5625,11.5625,11.5625,11.5625,11.5625,11.5625,11.5625,11.5625,11.5625,11.5625,11.5625,11.5625,11.5625,11.5625,11.5625,11.5625,11.5625,11.5625,11.5625,11.5625,11.5625,11.5625,11.5625,11.5625,11.5625,11.5625,11.5625,11.5625,11.5625,11.5625,11.5625,11.5625,11.5625,11.5625,0.0,0.0,0.0,0.0,9.5548,0.0,0.0,0.0,0.0,9.812,0.0,9.9893,0.0,0.0,0.0,9.6378,9.986,10.1682,9.7859,10.1715,10.5327,10.6338,10.7509,10.8597,10.9573,11.1379,11.299,11.4026,11.4222,11.4661,11.5577,11.5625,11.5625,11.5625,11.5625,11.5625,11.5625,11.5625,11.5625,11.5625,11.5625,11.5625,11.5625,11.5625,11.5625,11.5625,11.5625,11.5625,11.5625,11.5625,11.5625,11.5625,11.5625,11.5625,11.5625,11.5625,11.5625,11.5625,11.5625,11.5625,11.5625,11.5625,11.5625,11.5625,11.5625,11.5625,11.5625,11.5625,11.5625,11.5625,11.5625,11.5625,11.5625,11.5625,11.5625,11.5625,11.5625,11.5625,11.5625,11.5625,11.5625,11.5625,11.5625,11.5625,11.5625,11.5625,11.5625,11.5625,11.5625,11.5625,11.5625,11.5625,11.5625,11.5625,11.5625,11.5625,11.5625,11.5625,11.5625,11.5625,11.5625,11.5625,11.5625,11.5625,11.5625,11.5625,11.5625,11.5625,11.5625,11.5625,11.5625,11.5625,0.0,0.0,0.0,0.0,0.0,9.5596,0.0,0.0,0.0,9.9177,10.0202,10.0983,10.0983,10.1828,10.2268,10.1438,10.2853,10.3814,10.2984,10.601,10.8402,10.8646,11.0403,11.1672,11.1867,11.2306,11.299,11.4026,11.4893,11.543,11.5625,11.5625,11.5625,11.5625,11.5625,11.5625,11.5625,11.5625,11.5625,11.5625,11.5625,11.5625,11.5625,11.5625,11.5625,11.5625,11.5625,11.5625,11.5625,11.5625,11.5625,11.5625,11.5625,11.5625,11.5625,11.5625,11.5625,11.5625,11.5625,11.5625,11.5625,11.5625,11.5625,11.5625,11.5625,11.5625,11.5625,11.5625,11.5625,11.5625,11.5625,11.5625,11.5625,11.5625,11.5625,11.5625,11.5625,11.5625,11.5625,11.5625,11.5625,11.5625,11.5625,11.5625,11.5625,11.5625,11.5625,11.5625,11.5625,11.5625,11.5625,11.5625,11.5625,11.5625,11.5625,11.5625,11.5625,11.5625,11.5625,11.5625,11.5625,11.5625,11.5625,11.5625,11.5625,11.5625,11.5625,11.5625,11.5625,11.5625,11.5625,11.5625,0.0,0.0,0.0,9.3808,0.0,0.0,0.0,9.8803,9.9812,10.0349,10.1325,10.2219,10.274,10.3243,10.378,10.44,10.4922,10.5654,10.6694,10.8659,11.0221,11.0842,11.1867,11.2746,11.3246,11.3295,11.3734,11.4796,11.5381,11.5625,11.5625,11.5625,11.5625,11.5625,11.5625,11.5625,11.5625,11.5625,11.5625,11.5625,11.5625,11.5625,11.5625,11.5625,11.5625,11.5625,11.5625,11.5625,11.5625,11.5625,11.5625,11.5625,11.5625,11.5625,11.5625,11.5625,11.5625,11.5625,11.5625,11.5625,11.5625,11.5625,11.5625,11.5625,11.5625,11.5625,11.5625,11.5625,11.5625,11.5625,11.5625,11.5625,11.5625,11.5625,11.5625,11.5625,11.5625,11.5625,11.5625,11.5625,11.5625,11.5625,11.5625,11.5625,11.5625,11.5625,11.5625,11.5625,11.5625,11.5625,11.5625,11.5625,11.5625,11.5625,11.5625,11.5625,11.5625,11.5625,11.5625,11.5625,11.5625,11.5625,11.5625,11.5625,11.5625,11.5625,11.5625,11.5625,11.5625,11.5625,11.5625,11.5625,0.0,0.0,0.0,0.0,0.0,0.0,9.8218,9.986,10.1325,10.1536,10.2414,10.339,10.4253,10.4595,10.5019,10.5981,10.6323,10.7216,10.9573,11.0806,11.1782,11.2746,11.3039,11.3478,11.4319,11.4417,11.4796,11.5577,11.5625,11.5625,11.5625,11.5625,11.5625,11.5625,11.5625,11.5625,11.5625,11.5625,11.5625,11.5625,11.5625,11.5625,11.5625,11.5625,11.5625,11.5625,11.5625,11.5625,11.5625,11.5625,11.5625,11.5625,11.5625,11.5625,11.5625,11.5625,11.5625,11.5625,11.5625,11.5625,11.5625,11.5625,11.5625,11.5625,11.5625,11.5625,11.5625,11.5625,11.5625,11.5625,11.5625,11.5625,11.5625,11.5625,11.5625,11.5625,11.5625,11.5625,11.5625,11.5625,11.5625,11.5625,11.5625,11.5625,11.5625,11.5625,11.5625,11.5625,11.5625,11.5625,11.5625,11.5625,11.5625,11.5625,11.5625,11.5625,11.5625,11.5625,11.5625,11.5625,11.5625,11.5625,11.5625,11.5625,11.5625,11.5625,11.5625,11.5625,11.5625,11.5625,11.5625,11.5625,0.0,0.0,0.0,0.0,0.0,0.0,9.9063,10.0446,10.1569,10.2429,10.3487,10.4253,10.4351,10.5264,10.5981,10.6128,10.6924,10.8597,11.1721,11.3051,11.3782,11.3929,11.4747,11.5333,11.5479,11.5479,11.5528,11.5625,11.5625,11.5625,11.5625,11.5625,11.5625,11.5625,11.5625,11.5625,11.5625,11.5625,11.5625,11.5625,11.5625,11.5625,11.5625,11.5625,11.5625,11.5625,11.5625,11.5625,11.5625,11.5625,11.5625,11.5625,11.5625,11.5625,11.5625,11.5625,11.5625,11.5625,11.5625,11.5625,11.5625,11.5625,11.5625,11.5625,11.5625,11.5625,11.5625,11.5625,11.5625,11.5625,11.5625,11.5625,11.5625,11.5625,11.5625,11.5625,11.5625,11.5625,11.5625,11.5625,11.5625,11.5625,11.5625,11.5625,11.5625,11.5625,11.5625,11.5625,11.5625,11.5625,11.5625,11.5625,11.5625,11.5625,11.5625,11.5625,11.5625,11.5625,11.5625,11.5625,11.5625,11.5625,11.5625,11.5625,11.5625,11.5625,11.5625,11.5625,11.5625,11.5625,11.5625,11.5625,0.0,0.0,0.0,0.0,0.0,0.0,10.0251,10.1422,10.2463,10.3521,10.4107,10.479,10.6059,10.6728,10.7461,10.8646,10.9232,11.0221,11.2258,11.3441,11.4319,11.4942,11.5381,11.5625,11.5625,11.5625,11.5625,11.5625,11.5625,11.5625,11.5625,11.5625,11.5625,11.5625,11.5625,11.5625,11.5625,11.5625,11.5625,11.5625,11.5625,11.5625,11.5625,11.5625,11.5625,11.5625,11.5625,11.5625,11.5625,11.5625,11.5625,11.5625,11.5625,11.5625,11.5625,11.5625,11.5625,11.5625,11.5625,11.5625,11.5625,11.5625,11.5625,11.5625,11.5625,11.5625,11.5625,11.5625,11.5625,11.5625,11.5625,11.5625,11.5625,11.5625,11.5625,11.5625,11.5625,11.5625,11.5625,11.5625,11.5625,11.5625,11.5625,11.5625,11.5625,11.5625,11.5625,11.5625,11.5625,11.5625,11.5625,11.5625,11.5625,11.5625,11.5625,11.5625,11.5625,11.5625,11.5625,11.5625,11.5625,11.5625,11.5625,11.5625,11.5625,11.5625,11.5625,11.5625,11.5625,11.5625,11.5625,11.5625,8.6215,0.0,0.0,0.0,0.0,0.0,10.1032,10.2072,10.3146,10.4204,10.4644,10.5459,10.7363,10.7914,10.8695,11.0477,11.1063,11.1684,11.2843,11.388,11.4844,11.5577,11.5625,11.5625,11.5625,11.5625,11.5625,11.5625,11.5625,11.5625,11.5625,11.5625,11.5625,11.5625,11.5625,11.5625,11.5625,11.5625,11.5625,11.5625,11.5625,11.5625,11.5625,11.5625,11.5625,11.5625,11.5625,11.5625,11.5625,11.5625,11.5625,11.5625,11.5625,11.5625,11.5625,11.5625,11.5625,11.5625,11.5625,11.5625,11.5625,11.5625,11.5625,11.5625,11.5625,11.5625,11.5625,11.5625,11.5625,11.5625,11.5625,11.5625,11.5625,11.5625,11.5625,11.5625,11.5625,11.5625,11.5625,11.5625,11.5625,11.5625,11.5625,11.5625,11.5625,11.5625,11.5625,11.5625,11.5625,11.5625,11.5625,11.5625,11.5625,11.5625,11.5625,11.5625,11.5625,11.5625,11.5625,11.5625,11.5625,11.5625,11.5625,11.5625,11.5625,11.5625,11.5625,11.5625,11.5625,11.5625,11.5625,11.5625,0.0,0.0,0.0,9.4602,9.7305,9.9991,10.1032,10.2072,10.3146,10.4204,10.5312,10.6421,10.7509,10.8499,10.9538,11.0624,11.1733,11.2843,11.3929,11.4991,11.5625,11.5625,11.5625,11.5625,11.5625,11.5625,11.5625,11.5625,11.5625,11.5625,11.5625,11.5625,11.5625,11.5625,11.5625,11.5625,11.5625,11.5625,11.5625,11.5625,11.5625,11.5625,11.5625,11.5625,11.5625,11.5625,11.5625,11.5625,11.5625,11.5625,11.5625,11.5625,11.5625,11.5625,11.5625,11.5625,11.5625,11.5625,11.5625,11.5625,11.5625,11.5625,11.5625,11.5625,11.5625,11.5625,11.5625,11.5625,11.5625,11.5625,11.5625,11.5625,11.5625,11.5625,11.5625,11.5625,11.5625,11.5625,11.5625,11.5625,11.5625,11.5625,11.5625,11.5625,11.5625,11.5625,11.5625,11.5625,11.5625,11.5625,11.5625,11.5625,11.5625,11.5625,11.5625,11.5625,11.5625,11.5625,11.5625,11.5625,11.5625,11.5625,11.5625,11.5625,11.5625,11.5625,11.5625,11.5625,11.5625,11.5625,11.5625,11.5625,8.6975,9.0441,9.376,9.6298,9.8884,10.1032,10.2072,10.3097,10.4204,10.5312,10.6386,10.7509,10.8548,10.9036,10.9342,10.9733,11.0709,11.1782,11.2941,11.3966,11.4893,11.5577,11.5625,11.5625,11.5625,11.5625,11.5625,11.5625,11.5625,11.5625,11.5625,11.5625,11.5625,11.5625,11.5625,11.5625,11.5625,11.5625,11.5625,11.5625,11.5625,11.5625,11.5625,11.5625,11.5625,11.5625,11.5625,11.5625,11.5625,11.5625,11.5625,11.5625,11.5625,11.5625,11.5625,11.5625,11.5625,11.5625,11.5625,11.5625,11.5625,11.5625,11.5625,11.5625,11.5625,11.5625,11.5625,11.5625,11.5625,11.5625,11.5625,11.5625,11.5625,11.5625,11.5625,11.5625,11.5625,11.5625,11.5625,11.5625,11.5625,11.5625,11.5625,11.5625,11.5625,11.5625,11.5625,11.5625,11.5625,11.5625,11.5625,11.5625,11.5625,11.5625,11.5625,11.5625,11.5625,11.5625,11.5625,11.5625,11.5625,11.5625,11.5625,11.5625,11.5625,11.5625,11.5625,11.5625,11.5625,11.5625,11.5625,11.5625,8.7492,9.1056,9.4394,9.7242,9.9633,10.1536,10.2609,10.3634,10.4692,10.5884,10.6972,10.7963,10.905,10.9245,10.9245,10.9245,11.0123,11.1099,11.1782,11.3197,11.4368,11.504,11.543,11.5625,11.5625,11.5625,11.5625,11.5625,11.5625,11.5625,11.5625,11.5625,11.5625,11.5625,11.5625,11.5625,11.5625,11.5625,11.5625,11.5625,11.5625,11.5625,11.5625,11.5625,11.5625,11.5625,11.5625,11.5625,11.5625,11.5625,11.5625,11.5625,11.5625,11.5625,11.5625,11.5625,11.5625,11.5625,11.5625,11.5625,11.5625,11.5625,11.5625,11.5625,11.5625,11.5625,11.5625,11.5625,11.5625,11.5625,11.5625,11.5625,11.5625,11.5625,11.5625,11.5625,11.5625,11.5625,11.5625,11.5625,11.5625,11.5625,11.5625,11.5625,11.5625,11.5625,11.5625,11.5625,11.5625,11.5625,11.5625,11.5625,11.5625,11.5625,11.5625,11.5625,11.5625,11.5625,11.5625,11.5625,11.5625,11.5625,11.5625,11.5625,11.5625,11.5625,11.5625,11.5625,11.5625,11.5625,11.5625,11.5625,8.7882,9.1642,9.545,9.7535,9.973,10.1585,10.2576,10.3683,10.479,10.5933,10.7021,10.806,10.9085,10.9245,10.9245,10.9245,11.0074,11.0721,11.077,11.2611,11.3978,11.4026,11.4893,11.5528,11.5577,11.5577,11.5577,11.5625,11.5625,11.5625,11.5625,11.5625,11.5625,11.5625,11.5625,11.5625,11.5625,11.5625,11.5625,11.5625,11.5625,11.5625,11.5625,11.5625,11.5625,11.5625,11.5625,11.5625,11.5625,11.5625,11.5625,11.5625,11.5625,11.5625,11.5625,11.5625,11.5625,11.5625,11.5625,11.5625,11.5625,11.5625,11.5625,11.5625,11.5625,11.5625,11.5625,11.5625,11.5625,11.5625,11.5625,11.5625,11.5625,11.5625,11.5625,11.5625,11.5625,11.5625,11.5625,11.5625,11.5625,11.5625,11.5625,11.5625,11.5625,11.5625,11.5625,11.5625,11.5625,11.5625,11.5625,11.5625,11.5625,11.5625,11.5625,11.5625,11.5625,11.5625,11.5625,11.5625,11.5625,11.5625,11.5625,11.5625,11.5625,11.5625,11.5625,11.5625,11.5625,11.5625,11.5625,11.5625,8.8118,9.2735,9.6573,9.8721,10.0885,10.2512,10.2804,10.4302,10.5752,10.6079,10.7607,10.8939,10.9196,10.9245,10.9245,10.9245,10.944,10.9928,11.0673,11.1258,11.1977,11.2843,11.3185,11.3624,11.4417,11.4466,11.4807,11.5577,11.5625,11.5625,11.5625,11.5625,11.5625,11.5625,11.5625,11.5625,11.5625,11.5625,11.5625,11.5625,11.5625,11.5625,11.5625,11.5625,11.5625,11.5625,11.5625,11.5625,11.5625,11.5625,11.5625,11.5625,11.5625,11.5625,11.5625,11.5625,11.5625,11.5625,11.5625,11.5625,11.5625,11.5625,11.5625,11.5625,11.5625,11.5625,11.5625,11.5625,11.5625,11.5625,11.5625,11.5625,11.5625,11.5625,11.5625,11.5625,11.5625,11.5625,11.5625,11.5625,11.5625,11.5625,11.5625,11.5625,11.5625,11.5625,11.5625,11.5625,11.5625,11.5625,11.5625,11.5625,11.5625,11.5625,11.5625,11.5625,11.5625,11.5625,11.5625,11.5625,11.5625,11.5625,11.5625,11.5625,11.5625,11.5625,11.5625,11.5625,11.5625,11.5625,11.5625,11.5625,8.7045,9.2363,9.6932,9.9161,10.1325,10.282,10.282,10.4156,10.5508,10.603,10.7412,10.8548,10.8548,10.8939,10.9245,10.9245,10.9245,10.944,11.0026,11.0477,11.105,11.1684,11.2258,11.2795,11.338,11.3392,11.3868,11.4893,11.4991,11.5186,11.5625,11.5625,11.5625,11.5625,11.5625,11.5625,11.5625,11.5625,11.5625,11.5625,11.5625,11.5625,11.5625,11.5625,11.5625,11.5625,11.5625,11.5625,11.5625,11.5625,11.5625,11.5625,11.5625,11.5625,11.5625,11.5625,11.5625,11.5625,11.5625,11.5625,11.5625,11.5625,11.5625,11.5625,11.5625,11.5625,11.5625,11.5625,11.5625,11.5625,11.5625,11.5625,11.5625,11.5625,11.5625,11.5625,11.5625,11.5625,11.5625,11.5625,11.5625,11.5625,11.5625,11.5625,11.5625,11.5625,11.5625,11.5625,11.5625,11.5625,11.5625,11.5625,11.5625,11.5625,11.5625,11.5625,11.5625,11.5625,11.5625,11.5625,11.5625,11.5625,11.5625,11.5625,11.5625,11.5625,11.5625,11.5625,11.5625,11.5625,11.5625,11.5625,8.5358,9.0929,9.62,9.9014,10.1325,10.282,10.282,10.3634,10.4644,10.5654,10.6631,10.7363,10.7621,10.8402,10.905,10.9196,10.9245,10.9245,10.9245,11.0026,11.0575,11.0575,11.1489,11.216,11.2306,11.2306,11.2746,11.3831,11.388,11.4356,11.5381,11.543,11.5528,11.5625,11.5625,11.5625,11.5625,11.5625,11.5625,11.5625,11.5625,11.5625,11.5625,11.5625,11.5625,11.5625,11.5625,11.5625,11.5625,11.5625,11.5625,11.5625,11.5625,11.5625,11.5625,11.5625,11.5625,11.5625,11.5625,11.5625,11.5625,11.5625,11.5625,11.5625,11.5625,11.5625,11.5625,11.5625,11.5625,11.5625,11.5625,11.5625,11.5625,11.5625,11.5625,11.5625,11.5625,11.5625,11.5625,11.5625,11.5625,11.5625,11.5625,11.5625,11.5625,11.5625,11.5625,11.5625,11.5625,11.5625,11.5625,11.5625,11.5625,11.5625,11.5625,11.5625,11.5625,11.5625,11.5625,11.5625,11.5625,11.5625,11.5625,11.5625,11.5625,11.5625,11.5625,11.5625,11.5625,11.5625,11.5625,11.5625,8.4459,8.8167,9.2491,9.8282,10.1325,10.282,10.282,10.3634,10.4448,10.4644,10.4839,10.5522,10.7363,10.7851,10.8207,10.9134,10.9245,10.9245,10.9245,10.9391,10.9489,10.9489,10.9684,11.0123,11.1014,11.1099,11.1587,11.2746,11.2843,11.3283,11.4319,11.4368,11.4796,11.5625,11.5625,11.5625,11.5625,11.5625,11.5625,11.5625,11.5625,11.5625,11.5625,11.5625,11.5625,11.5625,11.5625,11.5625,11.5625,11.5625,11.5625,11.5625,11.5625,11.5625,11.5625,11.5625,11.5625,11.5625,11.5625,11.5625,11.5625,11.5625,11.5625,11.5625,11.5625,11.5625,11.5625,11.5625,11.5625,11.5625,11.5625,11.5625,11.5625,11.5625,11.5625,11.5625,11.5625,11.5625,11.5625,11.5625,11.5625,11.5625,11.5625,11.5625,11.5625,11.5625,11.5625,11.5625,11.5625,11.5625,11.5625,11.5625,11.5625,11.5625,11.5625,11.5625,11.5625,11.5625,11.5625,11.5625,11.5625,11.5625,11.5625,11.5625,11.5625,11.5625,11.5625,11.5625,11.5625,11.5625,11.5625,11.5625,8.4215,8.7484,9.1173,9.5987,9.9616,10.217,10.2707,10.3243,10.3585,10.3585,10.4009,10.4692,10.5766,10.6889,10.7816,10.8353,10.889,10.9245,10.9245,10.9245,10.9245,10.9245,10.9245,10.944,10.9928,10.9977,11.0465,11.1538,11.1636,11.2124,11.3197,11.3295,11.3771,11.4844,11.4807,11.5137,11.5625,11.5625,11.5625,11.5625,11.5625,11.5625,11.5625,11.5625,11.5625,11.5625,11.5625,11.5625,11.5625,11.5625,11.5625,11.5625,11.5625,11.5625,11.5625,11.5625,11.5625,11.5625,11.5625,11.5625,11.5625,11.5625,11.5625,11.5625,11.5625,11.5625,11.5625,11.5625,11.5625,11.5625,11.5625,11.5625,11.5625,11.5625,11.5625,11.5625,11.5625,11.5625,11.5625,11.5625,11.5625,11.5625,11.5625,11.5625,11.5625,11.5625,11.5625,11.5625,11.5625,11.5625,11.5625,11.5625,11.5625,11.5625,11.5625,11.5625,11.5625,11.5625,11.5625,11.5625,11.5625,11.5625,11.5625,11.5625,11.5625,11.5625,11.5625,11.5625,11.5625,11.5625,11.5625,11.5381,8.3705,8.7024,9.0441,9.3692,9.7403,10.0641,10.217,10.2707,10.282,10.282,10.3487,10.4073,10.4351,10.5815,10.7084,10.7607,10.8353,10.8988,10.9196,10.9245,10.9245,10.9245,10.9245,10.9245,10.9245,10.9245,10.9586,11.038,11.0465,11.1001,11.2075,11.216,11.2697,11.3734,11.3782,11.4161,11.4991,11.5186,11.5333,11.5333,11.5528,11.5625,11.5625,11.543,11.5333,11.5333,11.5528,11.5625,11.5625,11.5625,11.5625,11.5625,11.5625,11.5625,11.5625,11.5625,11.5625,11.5625,11.5625,11.5625,11.5625,11.5625,11.5625,11.5625,11.5625,11.5625,11.5625,11.5625,11.5625,11.5625,11.5625,11.5625,11.5577,11.5381,11.5479,11.5625,11.5625,11.5625,11.5625,11.5625,11.5625,11.5625,11.5625,11.5625,11.5625,11.5625,11.5625,11.5625,11.5625,11.5625,11.5625,11.5625,11.5625,11.5625,11.5625,11.5625,11.5625,11.5625,11.5625,11.5625,11.5625,11.5625,11.5625,11.5625,11.5625,11.5528,11.5333,11.5333,11.5186,11.4991,11.4991,11.4552,8.1952,8.542,8.9318,9.2491,9.5077,9.7664,10.0739,10.217,10.282,10.282,10.2902,10.3243,10.4204,10.4546,10.5327,10.7363,10.7802,10.8158,10.9134,10.9245,10.9245,10.9245,10.9245,10.9245,10.9245,10.9245,10.9294,10.9391,10.9391,10.983,11.0868,11.0965,11.1489,11.2648,11.2697,11.2746,11.2843,11.3782,11.4222,11.427,11.5235,11.5625,11.5625,11.4698,11.4222,11.427,11.5235,11.5625,11.5625,11.5625,11.5625,11.5625,11.5625,11.5625,11.5625,11.5625,11.5625,11.5625,11.5625,11.5625,11.5625,11.5625,11.5625,11.5625,11.5625,11.5625,11.5625,11.5625,11.5625,11.5625,11.5625,11.5625,11.543,11.4466,11.4991,11.5625,11.5625,11.5625,11.5625,11.5625,11.5625,11.5625,11.5625,11.5625,11.5625,11.5625,11.5625,11.5625,11.5625,11.5625,11.5625,11.5625,11.5625,11.5625,11.5625,11.5625,11.5625,11.5625,11.5625,11.5625,11.5625,11.5625,11.5625,11.5625,11.5625,11.5186,11.4222,11.4222,11.3734,11.2843,11.2843,11.2795,8.1513,8.466,8.802,9.0558,9.3857,9.6932,9.8852,9.9096,9.9519,10.1487,10.2414,10.2951,10.339,10.396,10.4692,10.5571,10.6791,10.7816,10.8255,10.889,10.9245,10.9245,10.9245,10.9245,10.9245,10.9245,10.9245,10.9245,10.9245,10.944,10.983,10.9879,11.0367,11.1489,11.1489,11.1831,11.255,11.2941,11.3185,11.3185,11.3575,11.3771,11.3771,11.338,11.3185,11.3185,11.3624,11.3771,11.3819,11.4417,11.471,11.4796,11.543,11.5625,11.5625,11.5625,11.5625,11.5625,11.5625,11.5625,11.5625,11.5625,11.5625,11.5625,11.5625,11.5625,11.5625,11.5625,11.5235,11.471,11.471,11.471,11.4466,11.3429,11.3478,11.3966,11.46,11.471,11.4905,11.5528,11.5625,11.5625,11.5625,11.5625,11.5625,11.5625,11.5625,11.5625,11.5625,11.5625,11.5625,11.5625,11.5625,11.5625,11.5625,11.5625,11.5625,11.5625,11.5625,11.5381,11.471,11.471,11.4454,11.3771,11.3771,11.3575,11.3185,11.3185,11.2941,11.255,11.255,11.216,8.0634,8.3363,8.6264,8.846,9.1807,9.5029,9.7078,9.6932,9.7127,9.9763,10.1389,10.2463,10.2804,10.3439,10.3975,10.4351,10.5669,10.6938,10.7607,10.8304,10.889,10.9196,10.9245,10.9245,10.9245,10.9245,10.9245,10.9245,10.9245,10.9245,10.9245,10.9245,10.9586,11.0282,11.0367,11.0757,11.1574,11.1867,11.2026,11.2062,11.2355,11.2209,11.1574,11.1916,11.2026,11.2062,11.2404,11.255,11.2599,11.338,11.3636,11.3685,11.4454,11.4747,11.4747,11.4747,11.4942,11.5186,11.5186,11.5381,11.5625,11.5625,11.543,11.5186,11.5186,11.4991,11.4747,11.4747,11.421,11.3636,11.3636,11.3392,11.2953,11.2172,11.2306,11.2746,11.349,11.3636,11.3929,11.4991,11.4942,11.4942,11.5565,11.5381,11.5284,11.5625,11.5625,11.5625,11.5625,11.5625,11.5625,11.5625,11.5625,11.5625,11.5625,11.5625,11.5625,11.5625,11.5625,11.504,11.3685,11.3636,11.3331,11.255,11.255,11.2355,11.2026,11.2026,11.1867,11.1574,11.1574,11.1135,7.875,8.1118,8.4123,8.6215,8.8411,9.1222,9.5468,9.6395,9.6737,9.7779,9.973,10.1618,10.2625,10.282,10.3195,10.4204,10.44,10.5181,10.7412,10.767,10.806,10.9134,10.9245,10.9245,10.9245,10.9245,10.9245,10.9245,10.9245,10.9245,10.9245,10.9245,10.9245,10.9245,10.9245,10.9245,10.9245,11.0282,11.0819,11.0819,11.1977,11.1379,10.9294,11.0367,11.0819,11.0868,11.2062,11.255,11.255,11.255,11.255,11.255,11.255,11.2599,11.2599,11.2599,11.3197,11.4124,11.4124,11.4796,11.5625,11.5625,11.4953,11.4124,11.4124,11.3429,11.2599,11.2599,11.255,11.255,11.255,11.1684,11.0819,11.0819,11.1684,11.255,11.255,11.255,11.2892,11.3929,11.3283,11.3234,11.5284,11.4796,11.4466,11.5479,11.5625,11.5625,11.5625,11.5625,11.5625,11.5625,11.5625,11.5625,11.5625,11.5625,11.5625,11.5625,11.5625,11.4698,11.2648,11.255,11.255,11.255,11.255,11.2014,11.0819,11.0819,11.0318,10.9245,10.9245,10.9245,7.8555,8.0608,8.2832,8.4221,8.7317,9.0362,9.171,9.2051,9.2979,9.6249,9.7469,9.8738,10.1292,10.2365,10.2951,10.3292,10.3878,10.4644,10.5327,10.6728,10.7767,10.8109,10.8841,10.9245,10.9245,10.9245,10.9245,10.9245,10.9245,10.9245,10.9245,10.9245,10.9245,10.9245,10.9245,10.9245,10.9245,10.9586,10.9733,10.9733,11.0159,10.9964,10.9245,10.9586,10.9733,10.9733,11.0123,11.0305,11.0305,11.0305,11.0709,11.144,11.2258,11.255,11.255,11.255,11.2746,11.3002,11.3002,11.3234,11.3527,11.3527,11.3331,11.3002,11.3002,11.2795,11.255,11.255,11.1928,11.1197,11.0465,11.0061,10.9733,10.9733,11.0026,11.0465,11.1197,11.1343,11.1684,11.2807,11.2795,11.2746,11.3429,11.3234,11.3136,11.3478,11.4161,11.4563,11.4563,11.5235,11.5625,11.5625,11.5625,11.5381,11.4661,11.4563,11.4308,11.3575,11.3527,11.2892,11.144,11.1343,11.1001,11.0269,11.0305,11.0074,10.9733,10.9733,10.9586,10.9245,10.9245,10.9245,7.7848,7.941,8.1171,8.2636,8.5295,8.7659,8.8098,8.9094,9.0753,9.3467,9.5273,9.703,9.908,10.095,10.2365,10.2804,10.339,10.396,10.4351,10.5996,10.7265,10.7656,10.8597,10.9245,10.9245,10.9245,10.9245,10.9245,10.9245,10.9245,10.9245,10.9245,10.9245,10.9245,10.9245,10.9245,10.9245,10.9245,10.9245,10.9245,10.9245,10.9245,10.9245,10.9245,10.9245,10.9245,10.9245,10.9245,10.9245,10.9245,10.9635,11.0269,11.1001,11.1281,11.1281,11.1281,11.1574,11.188,11.188,11.2209,11.255,11.255,11.2258,11.188,11.188,11.1623,11.1281,11.1281,11.0757,11.0074,10.9391,10.9245,10.9245,10.9245,10.9245,10.9391,11.0074,11.0221,11.0562,11.1684,11.1574,11.1574,11.2404,11.2209,11.2062,11.2502,11.3087,11.349,11.349,11.4112,11.4454,11.4454,11.4454,11.421,11.3575,11.349,11.3234,11.2599,11.177,11.0953,11.0269,11.0221,10.9928,10.9245,10.9245,10.9245,10.9245,10.9245,10.9245,10.9245,10.9245,10.9245,7.6897,7.7946,7.9238,8.1366,8.2636,8.3635,8.4779,8.7512,8.9777,8.9972,9.3223,9.6151,9.6378,9.8884,10.1292,10.2512,10.2771,10.3161,10.4122,10.5264,10.6421,10.7461,10.8499,10.9147,10.9245,10.9245,10.9245,10.9245,10.9245,10.9245,10.9245,10.9245,10.9245,10.9245,10.9245,10.9245,10.9245,10.9245,10.9245,10.9245,10.9245,10.9245,10.9245,10.9245,10.9245,10.9245,10.9245,10.9245,10.9245,10.9245,10.9245,10.9245,10.9245,10.9245,10.9245,10.9245,10.9879,11.0673,11.0673,11.1392,11.2306,11.2306,11.1587,11.0673,11.0673,11.0026,10.9245,10.9245,10.9245,10.9245,10.9245,10.9245,10.9245,10.9245,10.9245,10.9245,10.9245,10.9245,10.9538,11.0477,10.9928,10.9915,11.1965,11.1392,11.105,11.216,11.2355,11.2453,11.2453,11.2502,11.255,11.255,11.255,11.255,11.255,11.2453,11.2404,11.2306,11.0403,10.9245,10.9245,10.9245,10.9245,10.9245,10.9245,10.9245,10.9245,10.9245,10.9245,10.9245,10.9245,10.9245,7.7141,7.7946,7.9043,8.0334,8.0897,8.158,8.3537,8.5804,8.7972,8.9631,9.1436,9.3436,9.5956,9.703,9.8445,10.1194,10.2316,10.2917,10.3146,10.4107,10.5215,10.6372,10.7412,10.8353,10.9147,10.9245,10.9245,10.9245,10.9245,10.9245,10.9245,10.9245,10.9245,10.9245,10.9245,10.9245,10.9245,10.9245,10.9245,10.9245,10.9245,10.9245,10.9245,10.9245,10.9245,10.9245,10.9245,10.9245,10.9245,10.9245,10.9245,10.9245,10.9245,10.9245,10.9245,10.9245,10.9391,10.9586,10.9586,10.9782,11.0061,11.0061,10.983,10.9586,10.9586,10.944,10.9245,10.9245,10.9245,10.9245,10.9245,10.9245,10.9245,10.9245,10.9245,10.9245,10.9245,10.9245,10.9294,10.9538,10.9391,10.9391,10.9964,10.9782,10.9684,11.0012,11.0709,11.1197,11.1197,11.1977,11.255,11.255,11.255,11.255,11.255,11.1733,11.0904,11.0026,10.9573,10.9245,10.9245,10.9245,10.9245,10.9245,10.9245,10.9245,10.9245,10.9245,10.9245,10.9245,10.9245,10.9245,7.7019,7.7555,7.836,7.9869,8.0259,8.087,8.3098,8.4828,8.6459,8.8118,8.9777,9.168,9.4394,9.5712,9.7322,10.0105,10.1828,10.282,10.282,10.3731,10.4595,10.5264,10.6728,10.7865,10.8499,10.8988,10.9245,10.9245,10.9245,10.9245,10.9245,10.9245,10.9245,10.9245,10.9245,10.9245,10.9245,10.9245,10.9245,10.9245,10.9245,10.9245,10.9245,10.9245,10.9245,10.9245,10.9245,10.9245,10.9245,10.9245,10.9245,10.9245,10.9245,10.9245,10.9245,10.9245,10.9245,10.9245,10.9245,10.9245,10.9245,10.9245,10.9245,10.9245,10.9245,10.9245,10.9245,10.9245,10.9245,10.9245,10.9245,10.9245,10.9245,10.9245,10.9245,10.9245,10.9245,10.9245,10.9245,10.9245,10.9245,10.9245,10.9245,10.9245,10.9245,10.9245,10.9733,11.0074,11.0074,11.0611,11.1037,11.1037,11.1037,11.1037,11.1037,11.0465,10.983,10.9245,10.9245,10.9245,10.9245,10.9245,10.9245,10.9245,10.9245,10.9245,10.9245,10.9245,10.9245,10.9245,10.9245,10.9245,7.6946,7.7165,7.7604,7.9358,8.0064,8.0773,8.2631,8.4144,8.5413,8.6264,8.8216,9.0314,9.2265,9.4443,9.6639,9.8868,10.0983,10.2463,10.2804,10.3585,10.4204,10.4351,10.601,10.7265,10.7461,10.8402,10.9036,10.9036,10.9147,10.9245,10.9245,10.9245,10.9245,10.9245,10.9245,10.9245,10.9245,10.9245,10.9245,10.9245,10.9245,10.9245,10.9245,10.9245,10.9245,10.9245,10.9245,10.9245,10.9245,10.9245,10.9245,10.9245,10.9245,10.9245,10.9245,10.9245,10.9245,10.9245,10.9245,10.9245,10.9245,10.9245,10.9245,10.9245,10.9245,10.9245,10.9245,10.9245,10.9245,10.9245,10.9245,10.9245,10.9245,10.9245,10.9245,10.9245,10.9245,10.9245,10.9245,10.9245,10.9245,10.9245,10.9245,10.9245,10.9245,10.9245,10.9245,10.9245,10.9245,10.9245,10.9245,10.9245,10.9245,10.9245,10.9245,10.9245,10.9245,10.9245,10.9245,10.9245,10.9245,10.9245,10.9245,10.9245,10.9245,10.9245,10.9245,10.9245,10.9245,10.9245,10.9245,10.9245,7.7141,7.7165,7.7263,7.7555,7.8994,8.0357,8.0724,8.3044,8.5169,8.5365,8.7122,8.9025,9.0216,9.2198,9.4345,9.6542,9.877,10.0788,10.2609,10.2966,10.339,10.4302,10.4692,10.5278,10.624,10.7314,10.7914,10.7914,10.8743,10.9245,10.9245,10.9245,10.9245,10.9245,10.9245,10.9245,10.9245,10.9245,10.9245,10.9245,10.9245,10.9245,10.9245,10.9245,10.9245,10.9245,10.9245,10.9245,10.9245,10.9245,10.9245,10.9245,10.9245,10.9245,10.9245,10.9245,10.9245,10.9245,10.9245,10.9245,10.9245,10.9245,10.9245,10.9245,10.9245,10.9245,10.9245,10.9245,10.9245,10.9245,10.9245,10.9245,10.9245,10.9245,10.9245,10.9245,10.9245,10.9245,10.9245,10.9245,10.9245,10.9245,10.9245,10.9245,10.9245,10.9245,10.9245,10.9245,10.9245,10.9245,10.9245,10.9245,10.9245,10.9245,10.9245,10.9245,10.9245,10.9245,10.9245,10.9245,10.9245,10.9245,10.9245,10.9245,10.9245,10.9245,10.9245,10.9245,10.9245,10.9245,10.9245,10.9245,7.7165,7.7555,7.8288,7.9511,8.051,8.1362,8.1921,8.3217,8.4465,8.5023,8.639,8.8,8.9679,9.171,9.3857,9.6053,9.8282,10.0235,10.178,10.2463,10.2999,10.3487,10.4058,10.4595,10.5166,10.6191,10.6826,10.6826,10.7767,10.8402,10.8402,10.8939,10.9245,10.9245,10.9245,10.9245,10.9245,10.9245,10.9245,10.9245,10.9245,10.9245,10.9245,10.9245,10.9245,10.9245,10.9245,10.9245,10.9245,10.9245,10.9245,10.9245,10.9245,10.9245,10.9245,10.9245,10.9245,10.9245,10.9245,10.9245,10.9245,10.9245,10.9245,10.9245,10.9245,10.9245,10.9245,10.9245,10.9245,10.9245,10.9245,10.9245,10.9245,10.9245,10.9245,10.9245,10.9245,10.9245,10.9245,10.9245,10.9245,10.9245,10.9245,10.9245,10.9245,10.9245,10.9245,10.9245,10.9245,10.9245,10.9245,10.9245,10.9245,10.9245,10.9245,10.9245,10.9245,10.9245,10.9245,10.9245,10.9245,10.9245,10.9245,10.9245,10.9245,10.9245,10.9245,10.9245,10.9245,10.9245,10.9245,10.9245,7.7458,0.0,7.9482,8.1194,8.1833,8.2223,0.0,8.3418,8.383,8.4611,8.5776,8.724,8.8899,9.1143,9.3388,9.5321,9.7501,9.9405,10.0739,10.178,10.256,10.2804,10.3536,10.3975,10.3975,10.5068,10.5737,10.5737,10.6728,10.7314,10.7314,10.8304,10.889,10.889,10.889,10.889,10.889,10.9134,10.9245,10.9245,10.9245,10.9245,10.9245,10.9245,10.9245,10.9245,10.9245,10.9245,10.9245,10.9245,10.9245,10.9245,10.9245,10.9245,10.9245,10.9245,10.9245,10.9245,10.9245,10.9245,10.9245,10.9245,10.9245,10.9245,10.9245,10.9245,10.9245,10.9245,10.9245,10.9245,10.9245,10.9245,10.9245,10.9245,10.9245,10.9245,10.9245,10.9245,10.9245,10.9245,10.9245,10.9245,10.9245,10.9245,10.9245,10.9245,10.9245,10.9245,10.9245,10.9245,10.9245,10.9245,10.9245,10.9245,10.9245,10.9245,10.9245,10.9245,10.9245,10.9245,10.9245,10.9245,10.9245,10.9245,10.9245,10.9245,10.9245,10.9245,10.9245,10.9245,10.9245,10.9245,0.0,7.9358,8.021,8.0357,8.1216,8.2028,8.2126,8.288,0.0,8.3711,8.5316,8.6724,8.6898,8.9504,9.204,9.3144,9.5224,9.7403,9.9551,10.0739,10.1731,10.2722,10.2868,10.2951,10.2951,10.3912,10.4497,10.4497,10.5556,10.6275,10.6275,10.7216,10.7802,10.7802,10.7802,10.7802,10.7802,10.8792,10.9245,10.9245,10.9245,10.9245,10.9245,10.9245,10.9245,10.9245,10.9245,10.9245,10.9245,10.9245,10.9245,10.9245,10.9245,10.9245,10.9245,10.9245,10.9245,10.9245,10.9245,10.9245,10.9245,10.9245,10.9245,10.9245,10.9245,10.9245,10.9245,10.9245,10.9245,10.9245,10.9245,10.9245,10.9245,10.9245,10.9245,10.9245,10.9245,10.9245,10.9245,10.9245,10.9245,10.9245,10.9245,10.9245,10.9245,10.9245,10.9245,10.9245,10.9245,10.9245,10.9245,10.9245,10.9245,10.9245,10.9245,10.9245,10.9245,10.9245,10.9245,10.9245,10.9245,10.9245,10.9245,10.9245,10.9245,10.9245,10.9245,10.9245,10.9245,10.9245,10.9245,10.9245,8.0315,8.1047,8.1535,8.2192,8.2658,8.2978,8.2978,8.332,8.3613,8.3613,8.5267,8.6675,8.6675,8.9874,9.2656,9.3076,9.5486,9.7957,9.9502,10.0593,10.1633,10.2707,10.282,10.282,10.282,10.3195,10.3439,10.3439,10.44,10.5068,10.5068,10.6094,10.6386,10.5669,10.6338,10.6728,10.6728,10.7119,10.7656,10.8255,10.8255,10.8646,10.9245,10.9245,10.9245,10.9245,10.9245,10.9245,0.0,10.9245,10.9245,10.9245,10.9245,10.9245,10.9245,10.9245,10.9245,10.9245,10.9245,10.9245,10.9245,10.9245,10.9245,10.9245,10.9245,10.9245,10.9245,10.9245,10.9245,10.9245,10.9245,10.9245,10.9245,10.9245,10.9245,10.9245,10.9245,10.9245,10.9245,10.9245,10.9245,10.9245,10.9245,10.9245,10.9245,10.9245,10.9245,10.9245,10.9245,10.9245,10.9245,10.9245,10.9245,10.9245,10.9245,10.9245,10.8988,10.8304,10.8255,10.7963,10.7314,10.7314,10.7314,10.7314,10.7314,10.7314,10.7314,10.7314,10.7314,10.7314,10.7314,10.7314,8.2028,8.2761,8.3271,8.4318,8.4562,8.4562,8.4562,8.4562,8.4562,8.4562,8.5999,8.724,8.724,9.0167,9.2704,9.3046,9.5273,9.7615,9.9454,10.0332,10.1325,10.2707,10.282,10.282,10.282,10.282,10.282,10.282,10.3487,10.3878,10.3878,10.4971,10.5068,10.396,10.5019,10.5591,10.5591,10.5933,10.6519,10.7216,10.7216,10.7558,10.8255,10.8255,10.8451,10.8743,10.8743,10.8939,10.9245,10.9245,10.9245,10.9245,10.9245,10.9245,10.9245,10.9245,10.9245,10.9245,10.9245,10.9245,10.9245,10.9245,10.9245,10.9245,10.9245,10.9245,10.9245,10.9245,10.9245,10.9245,10.9245,10.9245,10.9245,10.9245,10.9245,10.9245,10.9245,10.9245,10.9245,10.9245,10.9245,10.9245,10.9245,10.9245,10.9245,10.9245,10.9245,10.9245,10.9245,10.9245,10.9245,10.9245,10.9245,10.8952,10.8304,10.8255,10.7998,10.7216,10.7216,10.6875,10.6177,10.6128,10.6128,10.6128,10.6128,10.6128,10.6128,10.6128,10.6128,10.6128,10.6128,10.6128,8.332,8.4367,8.5413,8.6459,8.6675,8.6675,8.6675,8.6675,8.6675,8.6675,8.761,8.8468,8.8468,9.0167,9.1894,9.2948,9.4132,9.6018,9.9258,9.9698,10.0495,10.2609,10.282,10.282,10.282,10.282,10.282,10.282,10.282,10.282,10.282,10.378,10.3878,10.2902,10.3829,10.4351,10.4351,10.5508,10.6128,10.6128,10.6128,10.6128,10.6128,10.6128,10.6714,10.7705,10.7705,10.8255,10.9196,10.9196,10.9196,10.9196,10.9245,10.9245,10.9245,10.9245,10.9245,10.9245,10.9245,10.9245,10.9245,10.9245,10.9245,10.9245,10.9245,10.9245,10.9245,10.9196,10.928,10.9245,10.9196,10.928,10.9245,10.9245,10.9245,10.9245,10.9245,10.9245,10.9245,10.9245,10.9245,10.9245,10.9245,10.9245,10.9245,10.9245,10.9245,10.9245,10.9245,10.9245,10.9245,10.9196,10.9232,10.8353,10.6323,10.6128,10.6128,10.6128,10.6128,10.6128,10.6079,10.6079,10.6079,10.6079,10.6079,10.6079,10.6079,10.6079,10.6079,10.6079,10.6079,10.6079,8.4221,8.4925,8.5413,8.6459,8.6675,8.6675,8.6675,8.6675,8.6675,8.6675,8.761,8.8468,8.8468,9.0733,9.2753,9.3046,9.4687,9.6866,9.9356,9.9698,10.0495,10.2609,10.282,10.282,10.282,10.282,10.282,10.282,10.282,10.282,10.282,10.3146,10.3146,10.282,10.3146,10.3292,10.3292,10.3634,10.4204,10.4922,10.4922,10.5312,10.6128,10.6128,10.6323,10.6616,10.6616,10.6777,10.7119,10.7851,10.8158,10.8207,10.8952,10.9245,10.9245,10.9245,10.9245,10.9245,10.9245,10.9245,10.9245,10.9245,10.9245,10.9245,10.9245,10.9245,10.905,10.8353,10.8695,10.905,10.8353,10.8695,10.9245,10.9245,10.9245,10.9245,10.9245,10.9245,10.9245,10.9245,10.9245,10.9245,10.9245,10.9245,10.9245,10.9245,10.9245,10.9245,10.9245,10.9245,10.8988,10.8207,10.7509,10.6777,10.6177,10.6128,10.5786,10.4936,10.4922,10.4595,10.3863,10.378,10.378,10.378,10.378,10.378,10.378,10.378,10.378,10.378,10.378,10.378,8.5218,8.5776,8.6118,8.763,8.802,8.802,8.802,8.802,8.802,8.802,8.8586,8.9074,8.9074,9.127,9.3125,9.3125,9.498,9.7208,9.9405,9.9698,10.0495,10.2609,10.282,10.282,10.282,10.282,10.282,10.282,10.282,10.282,10.282,10.282,10.282,10.282,10.282,10.282,10.282,10.282,10.3146,10.3731,10.3731,10.4156,10.4824,10.4824,10.5068,10.541,10.541,10.5737,10.6177,10.6826,10.707,10.7119,10.7802,10.8255,10.8646,10.8646,10.889,10.9245,10.9245,10.9245,10.9245,10.9245,10.8695,10.7963,10.7963,10.7963,10.79,10.7265,10.7509,10.79,10.7216,10.7558,10.8109,10.8548,10.8903,10.9245,10.9245,10.9245,10.9245,10.9245,10.9245,10.9098,10.8695,10.8646,10.8499,10.8095,10.7963,10.7963,10.7963,10.7963,10.7802,10.7119,10.6094,10.5264,10.4873,10.4824,10.4497,10.378,10.3731,10.3487,10.282,10.282,10.282,10.282,10.282,10.282,10.282,10.282,10.282,10.282,10.282,10.282,8.5971,8.6626,8.7211,8.9338,8.9923,8.9972,8.9972,8.9972,8.9972,8.9972,8.9972,8.9972,8.9972,9.171,9.3125,9.3125,9.498,9.7208,9.9405,9.9698,10.0495,10.2609,10.282,10.282,10.282,10.282,10.282,10.282,10.282,10.282,10.282,10.282,10.282,10.282,10.282,10.282,10.282,10.282,10.282,10.282,10.282,10.282,10.282,10.282,10.3341,10.4253,10.4253,10.4873,10.5835,10.5933,10.5981,10.5981,10.6079,10.6714,10.7558,10.7558,10.8109,10.8952,10.8952,10.8952,10.8952,10.8952,10.7705,10.6128,10.6128,10.6128,10.6128,10.603,10.6079,10.6128,10.5981,10.6079,10.6372,10.7314,10.8255,10.8952,10.8952,10.8952,10.8952,10.8952,10.8952,10.8646,10.7705,10.7558,10.7216,10.6275,10.6128,10.6128,10.6128,10.6128,10.6079,10.5849,10.4839,10.3829,10.2917,10.282,10.282,10.282,10.282,10.282,10.282,10.282,10.282,10.282,10.282,10.282,10.282,10.282,10.282,10.282,10.282,10.282,8.4925,8.6069,8.7016,8.8439,8.9416,8.9972,8.9972,8.9972,8.9972,8.9972,8.9972,8.9972,8.9972,9.171,9.3125,9.3125,9.498,9.7208,9.9405,9.9698,10.0495,10.2609,10.282,10.282,10.282,10.282,10.282,10.282,10.282,10.282,10.282,10.282,10.282,10.282,10.282,10.282,10.282,10.282,10.282,10.282,10.282,10.282,10.282,10.282,10.2917,10.3146,10.3146,10.3292,10.3585,10.44,10.4741,10.4839,10.5752,10.6275,10.647,10.647,10.6582,10.6777,10.6777,10.6777,10.6777,10.6777,10.6519,10.6128,10.6128,10.6128,10.5933,10.5019,10.541,10.5933,10.5019,10.5459,10.6177,10.6421,10.6665,10.6777,10.6777,10.6777,10.6777,10.6777,10.6777,10.6763,10.6519,10.647,10.6421,10.6177,10.6128,10.6128,10.6128,10.6128,10.5459,10.3683,10.3341,10.3064,10.282,10.282,10.282,10.282,10.282,10.282,10.282,10.282,10.282,10.282,10.282,10.282,10.282,10.282,10.282,10.282,10.282,10.282,8.3928,8.5169,8.6215,8.7317,8.8439,8.9269,8.9269,8.966,8.9972,8.9972,8.9972,8.9972,8.9972,9.171,9.3125,9.3125,9.498,9.6981,9.864,9.9356,10.03,10.1877,10.2512,10.282,10.282,10.282,10.282,10.282,10.282,10.282,10.282,10.282,10.282,10.282,10.282,10.282,10.282,10.282,10.282,10.282,10.282,10.282,10.282,10.282,10.282,10.282,10.282,10.282,10.2902,10.3439,10.3634,10.3683,10.4302,10.4839,10.5312,10.5312,10.5654,10.6128,10.6128,10.6128,10.5981,10.4888,10.4546,10.4546,10.4546,10.4546,10.44,10.378,10.4107,10.44,10.378,10.4107,10.4644,10.5166,10.5312,10.5459,10.603,10.6128,10.6128,10.6128,10.6128,10.5981,10.541,10.5312,10.5117,10.4595,10.4546,10.4546,10.4546,10.4546,10.4107,10.2917,10.282,10.282,10.282,10.282,10.282,10.282,10.282,10.282,10.282,10.282,10.282,10.282,10.282,10.282,10.282,10.282,10.282,10.282,10.282,10.282,8.2978,8.4074,8.5121,8.6166,8.7317,8.8147,8.8147,8.8976,8.9728,8.9728,8.9904,8.9972,8.9972,9.1533,9.29,9.3046,9.4833,9.6542,9.7779,9.8787,9.986,10.1129,10.2024,10.2658,10.282,10.282,10.282,10.282,10.282,10.282,10.282,10.282,10.282,10.282,10.282,10.282,10.282,10.282,10.282,10.282,10.282,10.282,10.282,10.282,10.282,10.282,10.282,10.282,10.282,10.282,10.282,10.282,10.282,10.3341,10.4107,10.4107,10.4726,10.5591,10.5591,10.5591,10.5264,10.3439,10.282,10.282,10.282,10.282,10.282,10.282,10.282,10.282,10.282,10.282,10.3015,10.3878,10.4107,10.44,10.5361,10.5591,10.5591,10.5591,10.5591,10.5264,10.4302,10.4107,10.378,10.2966,10.282,10.282,10.282,10.282,10.2585,10.1933,10.1865,10.1581,10.0892,10.0825,10.1143,10.1783,10.1865,10.2168,10.282,10.282,10.282,10.282,10.282,10.282,10.282,10.282,10.282,10.282,10.282,10.282,8.1659,8.2978,8.4025,8.5072,8.6166,8.6947,8.6947,8.7805,8.8664,8.8664,8.9367,8.9972,8.9972,9.0997,9.204,9.2948,9.4229,9.5743,9.7681,9.812,9.895,10.1032,10.1389,10.1828,10.2722,10.282,10.282,10.282,10.282,10.282,10.282,10.282,10.282,10.282,10.282,10.282,10.282,10.282,10.282,10.282,10.282,10.282,10.282,10.282,10.282,10.282,10.282,10.282,10.282,10.282,10.282,10.282,10.282,10.2917,10.3048,10.3048,10.3146,10.3292,10.3292,10.3292,10.3243,10.2951,10.282,10.282,10.282,10.282,10.282,10.282,10.282,10.282,10.282,10.282,10.2902,10.2999,10.3048,10.3097,10.3243,10.3292,10.3292,10.3292,10.3292,10.3243,10.3048,10.3048,10.2999,10.282,10.282,10.282,10.282,10.282,10.1548,9.8264,9.7921,9.6563,9.3197,9.2879,9.4323,9.7714,9.7921,9.9371,10.2719,10.282,10.282,10.282,10.282,10.282,10.282,10.282,10.282,10.282,10.282,10.282,7.9898,8.1389,8.2858,8.3271,8.4611,8.5825,8.5825,8.6654,8.7659,8.8322,8.881,8.9318,8.9874,9.0821,9.1699,9.2138,9.3711,9.5157,9.6085,9.7193,9.8315,9.9291,10.0007,10.0788,10.1828,10.1975,10.2219,10.2804,10.2268,10.2219,10.2771,10.282,10.282,10.282,10.282,10.282,10.282,10.282,10.282,10.282,10.282,10.282,10.282,10.282,10.282,10.282,10.282,10.282,10.282,10.282,10.282,10.282,10.282,10.282,10.282,10.282,10.282,10.282,10.282,10.282,10.282,10.282,10.282,10.282,10.282,10.282,10.282,10.282,10.282,10.282,10.282,10.282,10.282,10.282,10.282,10.282,10.282,10.282,10.282,10.282,10.282,10.282,10.282,10.282,10.282,10.282,10.282,10.2067,9.9929,9.7749,9.5765,9.4112,9.3937,9.3232,9.1488,9.1345,9.2092,9.3831,9.3937,9.5661,9.9521,9.9691,10.0655,10.2786,10.282,10.282,10.282,10.282,10.1716,9.9691,9.9691,9.9691,7.8604,7.9924,8.1269,8.1513,8.2951,8.4367,8.4367,8.5365,8.6557,8.7415,8.7805,8.8342,8.9416,9.0216,9.0918,9.1455,9.2948,9.4229,9.4797,9.6231,9.734,9.7925,0.0,9.9665,10.0788,10.0885,10.1227,10.1975,10.1325,10.1325,10.2365,10.2463,10.256,10.2853,10.282,10.282,10.282,10.282,10.282,10.282,10.282,10.282,10.282,10.282,10.282,10.282,10.282,10.282,10.282,10.282,10.282,10.282,10.282,10.282,10.282,10.282,10.282,10.282,10.282,10.282,10.282,10.282,10.282,10.282,10.282,10.282,10.282,10.282,10.282,10.282,10.282,10.282,10.282,10.282,10.282,10.282,10.282,10.282,10.282,10.282,10.282,10.282,10.282,10.282,10.282,10.282,10.2033,9.9997,9.6217,9.3197,9.0989,9.0023,8.9915,8.9563,8.8553,8.848,8.8914,8.9843,8.9915,9.1665,9.5511,9.573,9.7059,9.9861,9.9895,9.9895,9.9895,9.9895,9.8482,9.573,9.573,9.6252,7.8164,7.8799,7.914,8.0139,8.1265,8.2175,8.2175,8.376,8.5218,8.5316,8.6069,8.7142,8.8293,8.8566,8.9269,9.1211,9.165,9.246,9.4602,9.4944,9.5743,9.773,9.8023,9.8543,0.0,9.9795,9.9844,9.9893,9.9844,10.0284,10.1292,10.1374,10.178,10.2771,10.282,10.282,10.282,10.282,10.282,10.282,10.282,10.282,10.282,10.282,10.282,10.282,10.282,10.282,10.282,10.282,10.282,10.282,10.282,10.282,10.282,10.282,10.282,10.282,10.282,10.282,10.282,10.282,10.282,10.282,10.282,10.282,10.282,10.282,10.282,10.282,10.282,10.282,10.282,10.282,10.282,10.282,10.282,10.282,10.282,10.282,10.282,10.282,10.282,10.282,10.282,10.282,9.9793,9.6078,9.2127,9.1452,8.9951,8.6408,8.6046,8.4542,8.0974,8.0673,8.2172,8.579,8.6046,8.7719,9.1488,9.163,9.1737,9.1914,9.1914,9.1914,9.1914,9.1914,9.1843,9.163,9.163,9.3655,7.6531,7.7702,7.8848,7.9163,8.0116,8.0897,8.0897,8.2072,8.332,8.3976,8.4974,8.6048,8.7093,8.7951,8.8712,8.9464,9.0704,9.1845,9.2607,9.332,9.4327,9.5792,9.5987,9.6639,9.8445,9.7403,9.7159,9.8494,9.8591,9.908,10.0202,10.0284,10.0446,10.0837,10.152,10.1828,10.1828,10.2512,10.282,10.282,10.282,10.282,10.282,10.282,10.282,10.282,10.282,10.282,10.282,10.282,10.282,10.282,10.282,10.282,10.282,10.282,10.282,10.282,10.282,10.282,10.282,10.282,10.282,10.282,10.282,10.282,10.282,10.282,10.282,10.282,10.282,10.282,10.282,10.282,10.282,10.282,10.282,10.282,10.282,10.282,10.282,10.282,10.282,10.0825,9.8333,9.5835,9.2234,8.9304,8.7937,8.5647,8.3623,8.2247,8.2097,8.1574,8.022,8.0069,8.0405,8.1167,8.1241,8.269,8.5965,8.6107,8.727,8.9683,8.9718,8.9718,8.9718,8.9718,8.8459,8.6107,8.6107,8.6846,7.4822,7.6042,7.7189,7.7604,7.8457,7.931,7.97,8.0604,8.1633,8.2339,8.3022,8.3922,8.5386,8.6292,8.7052,8.7756,8.9338,9.0626,9.0997,9.1924,9.3027,9.4132,9.4278,9.4962,9.6737,9.5273,9.5011,9.6786,9.6932,9.7567,9.9031,9.9161,9.9275,9.9698,10.043,10.0739,10.0739,10.1422,10.178,10.178,10.2121,10.2316,10.2316,10.2707,10.282,10.282,10.282,10.282,10.282,10.282,10.282,10.282,10.282,10.282,10.282,10.282,10.2609,10.2316,10.2316,10.256,10.282,10.282,10.282,10.282,10.282,10.282,10.282,10.282,10.282,10.282,10.282,10.282,10.282,10.282,10.282,10.282,10.282,10.282,10.2436,10.1177,10.0926,10.052,9.9167,9.6875,9.4358,9.1737,8.9196,8.67,8.4136,8.1649,8.0069,8.0069,7.9803,7.9614,7.9614,7.9386,7.9006,7.8362,7.8324,7.9234,8.1215,8.1283,8.2459,8.4997,8.5068,8.5068,8.5068,8.5068,8.3769,8.1283,8.1283,8.1959,7.3163,7.3773,7.409,7.5213,7.6262,7.736,7.8408,7.9456,8.021,8.021,8.0259,8.0919,8.3098,8.3488,8.4221,8.6264,8.761,8.8712,8.9728,9.0772,9.1845,9.29,9.3076,9.3515,9.4602,9.3711,9.3564,9.4748,9.4797,9.5694,9.773,9.7876,9.8396,9.9551,9.9649,9.9649,9.9649,9.9698,9.9698,9.9746,10.0739,10.1227,10.1276,10.2268,10.2722,10.2722,10.2722,10.2722,10.2722,10.2722,10.2722,10.2722,10.2722,10.2722,10.2722,10.2722,10.2072,10.1227,10.1227,10.1877,10.2722,10.2722,10.2722,10.2722,10.2722,10.2722,10.2722,10.2722,10.2722,10.2804,10.2804,10.2804,10.282,10.282,10.282,10.282,10.282,10.2753,10.1548,9.7921,9.7082,9.5835,9.2021,9.1238,9.1167,9.1167,9.106,8.8372,8.1011,8.0031,8.0031,7.9993,7.9234,7.8704,7.8704,7.8019,7.7526,7.7526,7.7526,7.7488,7.7488,7.7488,7.745,7.745,7.745,7.7412,7.7412,7.7412,7.7412,7.7412,7.7412,7.9406,6.9971,7.1529,7.2796,7.3138,7.3992,7.5066,7.6214,7.7288,7.8213,7.8968,7.9749,8.0454,8.1066,8.1877,8.288,8.4221,8.5344,8.6438,8.7484,8.8557,8.9708,9.0704,9.1533,9.1826,9.1368,9.1729,9.246,9.3515,9.3613,9.3857,9.4412,9.5224,9.5889,9.6182,9.7664,9.8462,9.8462,9.9275,9.9698,9.9698,10.0039,10.0137,10.0186,10.0446,10.0544,10.0544,10.0544,10.0544,10.0544,10.0544,10.0544,10.0544,10.0544,10.0544,10.0544,10.0544,10.043,10.0137,10.0137,10.0332,10.0544,10.0544,10.0544,10.0544,10.0544,10.0544,10.0544,10.0544,10.1129,10.1682,10.1682,10.2268,10.282,10.282,10.282,10.282,10.282,10.0689,9.8448,9.7404,9.4918,9.2623,9.1523,8.9052,8.7283,8.7283,8.4948,8.2198,7.942,7.9083,7.8893,7.8322,7.8019,7.7905,7.7905,7.7678,7.726,7.6615,7.6577,7.6311,7.5739,7.5739,7.5435,7.4757,7.4757,7.4489,7.3881,7.3881,7.3881,7.3881,7.3881,7.478,6.6189,6.7918,6.9866,7.0699,7.1359,7.2261,7.387,7.47,7.5408,7.6457,7.7579,7.8457,7.8896,7.9898,8.0998,8.2046,8.3461,8.4681,8.5316,8.6731,8.7923,8.8557,8.9162,8.926,8.8703,8.9162,9.0138,9.168,9.1777,9.2198,9.3076,9.376,9.4132,9.4132,9.5321,9.5925,9.5925,9.711,9.7696,9.7696,9.8575,9.8982,9.8982,9.9502,9.9698,9.9698,9.9698,9.9698,9.9698,9.9698,9.9698,9.9698,9.9698,9.9698,9.96,9.8672,9.8624,9.8982,9.8982,9.9275,9.9698,9.9698,9.9698,9.9698,9.9698,9.9698,9.9698,9.9698,10.0137,10.0265,9.8754,9.882,9.8882,9.734,9.6955,9.7062,9.7461,9.5828,9.3898,9.265,9.056,8.8516,8.6924,8.4837,8.3122,8.2445,8.0454,7.8817,7.8286,7.821,7.8095,7.7602,7.7564,7.7412,7.7032,7.6349,7.5741,7.5174,7.483,7.4451,7.3992,7.3992,7.3729,7.3201,7.3163,7.2935,7.2514,7.2514,7.2514,7.2514,7.2514,7.2211,6.2405,6.3868,6.582,6.7825,6.8388,6.9067,0.0,7.1771,7.2112,7.326,7.4456,7.5555,7.6604,7.7653,7.875,7.9918,8.1726,8.3049,8.3195,8.5023,8.6264,8.5992,8.6187,8.6361,8.6361,8.6557,8.7532,8.9484,8.9631,9.0538,9.2491,9.2735,9.2832,9.2948,9.3076,9.3125,9.3125,9.4132,9.47,9.47,9.6542,9.7437,9.7437,9.8526,9.8965,9.8965,9.8965,9.9063,9.9161,9.9307,9.9356,9.9356,9.9356,9.9209,9.877,9.6737,9.6639,9.7437,9.7437,9.8103,9.8965,9.8965,9.8965,9.8965,9.8965,9.9063,9.9161,9.9161,9.9356,9.8773,9.5535,9.4487,9.3564,9.0735,8.9427,8.9174,9.0372,8.9997,8.8595,8.5955,8.5101,8.3745,8.0367,7.9803,7.931,7.7792,7.7564,7.7526,7.7412,7.7412,7.7374,7.726,7.726,7.688,7.6007,7.4453,7.3543,7.3543,7.2894,7.2514,7.2514,7.24,7.2325,7.2249,7.2135,7.2021,7.1945,7.1945,7.1945,7.1945,7.1945,7.0654,0.0,0.0,0.0,0.0,0.0,0.0,0.0,6.8406,6.8965,7.0964,7.2233,7.3284,7.4334,7.5408,7.6848,7.875,7.9384,7.997,8.0822,8.2827,8.351,8.1748,8.3119,8.4172,8.4172,8.5678,8.687,8.7309,8.7309,8.7923,8.9298,9.0148,9.0997,9.1845,9.2656,9.3125,9.3125,9.3369,9.3467,9.3467,9.3857,9.4052,9.4071,9.4296,9.4394,9.4394,9.4394,9.4962,9.5872,9.6719,9.703,9.703,9.703,9.5956,9.4345,9.3906,9.3906,9.4052,9.4052,9.4168,9.4394,9.4394,9.4394,9.4394,9.4394,9.5059,9.5823,9.5823,9.7012,9.8139,9.7417,9.5769,9.4846,9.7058,9.3081,8.972,9.2816,8.8778,8.4376,8.3799,8.1263,7.89,7.8167,7.8019,7.798,7.7602,7.7564,7.7298,7.6577,7.6463,7.6197,7.5587,7.5511,7.5169,7.4226,7.3277,7.2742,7.2742,7.259,7.2514,7.2514,7.1903,7.1219,7.0469,6.9857,6.9173,6.8414,6.8414,6.8414,6.8414,6.8414,6.7465,0.0,0.0,0.0,0.0,0.0,0.0,0.0,0.0,0.0,0.0,0.0,7.0381,7.2015,0.0,7.4651,7.6848,7.7604,7.8311,7.9358,8.0897,8.1336,7.97,8.0946,8.1921,8.1921,8.3412,8.4584,8.5121,8.5657,8.641,8.7512,8.8069,8.8606,8.9114,8.9631,9.0197,9.0782,9.1319,9.1826,9.2363,9.2851,9.3125,9.3125,9.3125,9.3125,9.3125,9.3125,9.3467,9.4004,9.454,9.4784,9.4784,9.4784,9.4101,9.3125,9.3125,9.3125,9.2883,9.1232,9.0662,9.0662,9.0662,9.0662,9.0986,9.2591,9.2399,9.1581,9.1581,9.1087,9.0564,9.0404,8.9879,8.929,8.9224,8.6824,8.4669,8.5134,8.2295,7.9835,8.0308,7.8874,7.7564,7.7564,7.6879,7.6309,7.6309,7.6309,7.6157,7.5701,7.521,7.4757,7.4413,7.3995,7.3612,7.316,7.2742,7.2325,7.1941,7.111,7.0654,7.0654,6.9852,6.9173,6.8756,6.7953,6.7307,6.6889,6.6402,6.6181,6.6143,6.5377,6.4572,0.0,0.0,0.0,0.0,0.0,0.0,0.0,0.0,0.0,0.0,0.0,0.0,0.0,0.0,0.0,7.4578,7.5872,7.6921,7.7969,7.8822,7.9092,7.8213,7.9212,7.9967,7.9967,8.1021,8.205,8.2902,8.3705,8.4751,8.602,8.6069,8.6264,8.6675,8.6675,8.7142,8.8098,8.8976,8.9777,9.0626,9.1485,0.0,9.1875,9.21,9.2198,9.2246,9.2442,9.2607,9.2802,9.2802,9.293,9.2967,9.1567,9.0638,9.0078,9.0078,9.0078,8.9715,8.7086,8.619,8.619,8.619,8.619,8.6824,9.0274,8.9167,0.0,8.7703,8.5643,8.3147,8.2933,8.3023,8.2501,8.0142,7.9175,7.8365,7.688,7.6089,7.5931,7.6691,7.6956,7.707,7.707,7.5663,7.4524,7.4524,7.4524,7.4524,7.4524,7.3919,7.3467,7.3467,7.2894,7.2438,7.2287,7.2249,7.1865,7.0915,6.9586,6.8718,6.856,6.7541,6.6971,6.6971,6.6053,6.5591,6.5591,6.4807,6.4504,6.4397,6.2521,6.16,0.0,0.0,0.0,0.0,0.0,0.0,0.0,0.0,0.0,0.0,0.0,0.0,0.0,0.0,0.0,0.0,7.3553,7.4627,7.5799,7.6092,7.6092,7.5994,7.7702,7.8896,7.8896,7.9846,8.0529,8.0675,8.0773,8.1726,8.383,8.3928,0.0,0.0,0.0,8.6724,8.6898,8.7016,8.7114,8.7211,8.7358,8.7406,8.7484,8.8488,8.9005,8.9054,8.9923,9.0899,9.1748,9.1748,9.2235,9.2463,8.5969,8.1748,7.9322,7.9322,7.9322,7.9292,7.8932,0.0,0.0,7.8781,7.8781,7.9515,8.3593,8.3094,8.1969,8.5792,8.5084,8.318,8.3147,8.0952,7.9369,8.2071,7.7916,7.418,7.7095,7.5732,7.3998,7.4112,7.4754,7.5321,7.5321,7.3916,7.278,7.278,7.278,7.278,7.278,7.2704,7.2628,7.2628,7.2552,0.0,7.1523,7.1481,7.0801,6.9206,6.8908,6.8452,6.7617,6.6098,6.5232,6.5232,6.3774,6.3006,6.3006,6.293,6.2854,6.2778,5.9586,5.8104,0.0,0.0,0.0,0.0,0.0,0.0,0.0,0.0,0.0,0.0,0.0,0.0,0.0,0.0,0.0,0.0,7.0941,7.2233,7.2745,7.3332,7.3943,7.4554,7.5969,7.6946,7.6946,7.8408,7.9358,7.9358,7.9918,8.0675,8.1629,8.1677,8.2068,8.2968,8.3608,8.4269,8.4877,8.5511,8.6069,8.6675,8.6675,8.6675,8.6724,8.7191,8.7435,8.7463,8.7874,8.8333,8.8723,8.8723,8.7931,8.646,0.0,0.0,0.0,0.0,7.7581,7.7551,7.7371,7.6137,7.4618,7.4618,7.4618,7.5343,7.9025,7.8093,7.615,7.7968,7.6296,7.4506,7.6463,7.6726,7.6812,7.8129,7.7043,7.5524,7.4916,7.3873,7.2973,7.2973,7.3312,0.0,7.2966,7.2701,7.2514,7.2514,7.2514,7.2514,7.2514,7.2131,7.1827,7.1827,7.1337,7.073,6.9928,6.9852,0.0,0.0,0.0,6.7617,6.6813,6.5574,0.0,0.0,0.0,6.1116,6.1116,6.0156,0.0,0.0,5.6546,5.5824,0.0,0.0,0.0,0.0,0.0,0.0,0.0,0.0,0.0,0.0,0.0,0.0,0.0,0.0,0.0,0.0,6.8206,6.91,6.8129,6.9723,7.1222,7.1917,7.3583,7.4822,7.5115,7.6482,7.7384,7.7384,7.8408,7.9115,7.9407,7.97,7.9967,8.0259,8.1118,8.1926,8.2707,8.3461,8.4215,8.4919,8.4919,8.5093,8.5413,8.5678,8.5971,8.6313,8.6605,8.6675,8.6675,8.6675,8.5408,8.3097,7.9468,7.7538,7.6546,7.4263,7.343,7.34,7.3233,7.1642,6.977,6.977,6.977,7.0451,7.4055,7.2788,7.0356,7.1478,6.9388,6.7349,7.0101,7.185,7.2887,7.2944,7.4019,7.4402,7.202,7.1489,7.1565,7.1793,7.1451,7.092,7.0384,7.073,7.111,7.111,7.111,7.111,7.111,7.0649,7.027,7.027,6.9667,6.9027,6.849,6.8414,6.8067,6.7161,6.6895,6.6402,6.5636,6.4731,6.363,6.2255,6.0356,5.9254,0.0,0.0,0.0,0.0,0.0,0.0,0.0,0.0,0.0,0.0,0.0,0.0,0.0,0.0,0.0,0.0,0.0,0.0,0.0,0.0,0.0,0.0,0.0,0.0,6.1427,6.4775,6.7554,6.7317,7.0289,7.2796,7.3846,7.3992,7.4041,7.4041,7.5115,7.6165,7.7214,7.8213,7.9212,8.0259,8.0308,8.0357,8.0357,8.0405,8.0454,8.0454,8.0454,8.1092,8.2223,8.3222,8.4221,8.5267,8.6264,8.6675,8.6675,8.6675,8.6618,8.5286,7.2524,6.5739,6.3213,6.3125,6.3066,6.3066,6.3066,6.2977,6.2918,6.2918,6.2918,6.3683,6.7834,6.6702,6.4846,6.8913,6.7601,6.5225,6.6247,6.6507,6.6736,6.7504,6.777,6.8005,6.875,6.8908,6.9135,6.99,6.8756,6.7579,6.7579,6.7579,6.7617,6.7617,6.7617,0.0,6.7617,6.7579,6.7579,6.7579,6.7541,6.7503,6.7503,6.7503,6.7155,6.6357,6.5491,6.4663,6.3858,6.3053,6.2217,6.1286,5.8875,5.7165,5.6314,0.0,0.0,0.0,0.0,0.0,0.0,0.0,0.0,0.0,0.0,0.0,0.0,0.0,0.0,0.0,0.0,0.0,0.0,0.0,0.0,0.0,0.0,0.0,0.0,6.3244,6.4163,6.4009,6.563,6.7169,6.8232,6.8917,7.034,7.2678,7.3186,7.387,7.492,7.531,7.6042,7.7165,7.7848,7.8555,7.9261,7.9918,8.0259,8.0233,7.8373,7.867,8.0795,7.9258,7.9801,8.1944,8.2258,8.1387,7.9632,7.9632,7.8467,7.6119,6.9619,6.6433,6.5329,6.3345,6.3864,6.53,6.3287,6.3893,6.5242,6.3228,6.2588,6.2863,6.4272,6.3917,6.3282,6.47,6.4281,6.3433,6.3766,6.423,6.4807,6.5574,6.625,6.6889,6.7731,6.7921,6.7996,6.8262,6.6516,6.4997,6.4997,6.5422,6.5763,6.5763,6.6288,6.6661,6.6661,6.7155,6.7465,6.7465,6.7465,6.7237,6.6737,6.6661,6.6091,6.4686,6.4314,6.3782,6.3044,6.1647,6.0745,6.0479,5.7936,5.5961,5.462,0.0,0.0,0.0,0.0,0.0,0.0,0.0,0.0,0.0,0.0,0.0,0.0,0.0,0.0,0.0,0.0,0.0,0.0,0.0,0.0,0.0,0.0,0.0,0.0,0.0,0.0,6.1226,6.1887,0.0,6.3805,6.3885,6.4875,6.7384,6.7925,6.8963,7.0792,7.1631,7.281,7.4407,7.5408,7.5864,7.5613,7.7634,7.8143,7.7145,7.6673,7.7598,7.9645,7.6777,7.6673,7.8691,7.7688,7.6177,7.4263,7.192,6.9271,6.6459,6.4446,6.3674,6.3421,6.1498,6.2001,6.3364,6.1441,6.2029,6.3336,6.1451,6.0802,6.0802,6.0802,6.0802,6.0802,6.0802,6.0992,6.1296,6.1571,6.2293,6.3061,6.3896,6.4534,6.518,6.5977,6.5908,6.5636,6.5301,6.3972,6.2871,6.2871,6.3554,6.4086,6.4086,6.461,6.4983,6.4983,6.5674,6.6136,6.6136,6.6402,6.6364,6.5832,6.556,6.4914,6.385,6.3213,6.2643,6.2141,6.0479,5.9416,5.9178,5.6645,5.4519,0.0,0.0,0.0,0.0,0.0,0.0,0.0,0.0,0.0,0.0,0.0,0.0,0.0,0.0,0.0,0.0,0.0,0.0,0.0,0.0,0.0,0.0,0.0,0.0,0.0,0.0,0.0,5.8818,5.8881,0.0,0.0,0.0,0.0,5.8883,5.9875,6.1796,6.4945,6.717,6.9364,7.164,7.2851,7.2302,6.9836,7.343,7.3932,7.1391,7.4935,7.7128,7.7997,7.5292,7.4572,7.5342,7.2619,7.1354,7.069,6.4156,5.9855,5.742,5.742,5.742,5.742,5.742,5.742,5.742,5.742,5.742,5.742,5.742,5.742,5.742,5.742,5.742,0.0,0.0,5.7963,5.8771,5.9644,6.0479,6.1286,6.2246,6.2474,6.2702,6.3546,6.3091,6.2246,6.1172,6.0982,6.0982,6.0982,0.0,6.236,6.2398,6.2436,6.2474,6.2512,6.3205,6.3706,6.3744,6.4359,6.4815,6.4853,6.4162,6.3668,6.363,6.2082,6.1172,6.1096,5.9454,5.8153,5.7382,5.4912,0.0,0.0,0.0,0.0,0.0,0.0,0.0,0.0,0.0,0.0,0.0,0.0,0.0,0.0,0.0,0.0,0.0,0.0,0.0,0.0,0.0,0.0,0.0,0.0,0.0,0.0,5.5313,5.4598,5.4344,5.2943,5.2416,0.0,0.0,0.0,0.0,0.0,0.0,5.9762,6.0947,6.2185,6.3579,6.6266,6.7692,6.7798,6.9424,6.9937,6.9203,6.8824,6.888,6.931,6.8362,6.8186,6.8589,6.7844,6.6345,6.3966,5.8877,5.6327,5.5646,5.5646,5.5646,5.5646,5.5646,5.5646,5.5646,5.5646,5.5646,5.5646,5.5646,5.5646,5.5646,5.5646,0.0,0.0,0.0,0.0,5.6884,5.7111,5.7822,5.8875,6.0356,6.0698,6.1116,6.2588,6.2217,6.0783,5.8022,5.7491,5.7491,5.7491,5.8201,0.0,5.9634,0.0,6.0926,6.1504,6.234,6.3091,6.3698,6.3433,6.3433,6.401,6.3357,6.2597,6.1893,6.0935,6.0062,5.9378,5.7176,5.5608,5.4798,0.0,0.0,0.0,0.0,0.0,0.0,0.0,0.0,0.0,0.0,0.0,0.0,0.0,0.0,0.0,0.0,0.0,0.0,0.0,0.0,0.0,0.0,0.0,0.0,0.0,0.0,0.0,5.1946,5.1671,5.2729,5.0193,4.8774,0.0,0.0,0.0,0.0,0.0,0.0,0.0,0.0,0.0,5.8642,6.0951,6.2101,6.1872,6.3989,6.4661,6.3916,6.4495,6.5027,6.5428,6.405,6.369,6.4108,6.2443,6.0211,5.7504,5.4584,5.3405,5.3367,0.0,0.0,0.0,0.0,5.2785,5.2785,5.2785,5.2785,5.2785,5.2785,0.0,0.0,0.0,0.0,0.0,0.0,0.0,5.4569,5.4569,5.5506,5.6747,5.8049,5.8353,5.8733,6.008,5.8809,5.6846,5.4948,5.4569,5.4569,5.4569,5.5885,0.0,0.0,0.0,5.9634,6.0071,6.1201,6.215,6.2605,6.2597,6.2778,6.3205,6.2483,6.1647,6.0783,5.9948,5.8885,5.767,5.5608,5.3937,0.0,0.0,0.0,0.0,0.0,0.0,0.0,0.0,0.0,0.0,0.0,0.0,0.0,0.0,0.0,0.0,0.0,0.0,0.0,0.0,0.0,0.0,0.0,0.0,0.0,0.0,0.0,0.0,0.0,4.9478,5.1837,0.0,0.0,0.0,0.0,0.0,0.0,0.0,0.0,0.0,0.0,0.0,0.0,0.0,5.629,5.4704,5.7932,5.8788,5.7416,6.073,6.2536,6.2904,6.0742,6.0054,6.0374,5.6758,0.0,5.1937,5.114,0.0,0.0,0.0,0.0,0.0,0.0,0.0,0.0,0.0,0.0,0.0,0.0,0.0,0.0,0.0,0.0,0.0,0.0,0.0,0.0,0.0,0.0,5.4557,5.548,5.5707,5.5859,5.6406,5.4165,5.1988,5.1988,5.1988,5.1988,0.0,0.0,0.0,0.0,0.0,0.0,5.8657,5.9957,6.0982,6.121,6.1875,6.2322,6.2369,6.1466,6.0631,5.9938,5.8837,5.7518,5.5935,5.4241,0.0,0.0,0.0,0.0,0.0,0.0,0.0,0.0,0.0,0.0,0.0,0.0,0.0,0.0,0.0,0.0,0.0,0.0,0.0,0.0,0.0,0.0,0.0,0.0,0.0,0.0,0.0,0.0,0.0,0.0,0.0,0.0,0.0,0.0,0.0,0.0,0.0,0.0,0.0,0.0,0.0,0.0,0.0,0.0,0.0,0.0,0.0,0.0,0.0,0.0,5.4842,5.4861,5.3729,5.5342,5.5365,5.398,5.1253,4.982,4.9364,4.8482,0.0,0.0,0.0,0.0,0.0,0.0,0.0,0.0,0.0,0.0,0.0,0.0,0.0,0.0,0.0,0.0,0.0,0.0,0.0,0.0,0.0,0.0,5.1243,5.276,5.3127,5.2785,5.1547,0.0,0.0,0.0,0.0,0.0,0.0,0.0,0.0,0.0,0.0,0.0,5.8429,5.8961,5.9682,6.1096,6.0783,6.0745,6.1399,6.0062,5.9075,5.8961,5.6899,5.5228,0.0,0.0,0.0,0.0,0.0,0.0,0.0,0.0,0.0,0.0,0.0,0.0,0.0,0.0,0.0,0.0,0.0,0.0,0.0,0.0,0.0,0.0,0.0,0.0,0.0,0.0,0.0,0.0,0.0,0.0,0.0,0.0,0.0,0.0,0.0,0.0,0.0,0.0,0.0,0.0,0.0,0.0,0.0,0.0,0.0,0.0,0.0,0.0,0.0,0.0,0.0,0.0,0.0,0.0,0.0,0.0,0.0,0.0,4.9165,4.8087,0.0,0.0,0.0,0.0,0.0,0.0,0.0,0.0,0.0,0.0,0.0,0.0,0.0,0.0,0.0,0.0,0.0,0.0,0.0,0.0,0.0,0.0,0.0,0.0,0.0,0.0,0.0,0.0,0.0,0.0,0.0,0.0,0.0,0.0,0.0,0.0,0.0,0.0,0.0,0.0,5.7138,5.8163,5.9188,6.0479,6.0318,6.0242,6.0593,5.9454,5.8315,5.7453,5.5532,0.0,0.0,0.0,0.0,0.0,0.0,0.0,0.0,0.0,0.0,0.0,0.0,0.0,0.0,0.0,0.0,0.0,0.0,0.0,0.0,0.0,0.0,0.0,0.0,0.0,0.0,0.0,0.0,0.0,0.0,0.0,0.0,0.0,0.0,0.0,0.0,0.0,0.0,0.0,0.0,0.0,0.0,0.0,0.0,0.0,0.0,0.0,0.0,0.0,0.0,0.0,0.0,0.0,0.0,0.0,0.0,0.0,0.0,0.0,4.7359,4.6372,0.0,0.0,0.0,0.0,0.0,0.0,0.0,0.0,0.0,0.0,0.0,0.0,0.0,0.0,0.0,0.0,0.0,0.0,0.0,0.0,0.0,0.0,0.0,0.0,0.0,0.0,0.0,0.0,0.0,0.0,0.0,0.0,0.0,0.0,0.0,0.0,0.0,0.0,0.0,0.0,5.5707,5.7404,5.8799,5.9682,5.9948,6.0014,5.9824,5.8771,5.7491,5.6011,5.4101,0.0,0.0,0.0,0.0,0.0,0.0,0.0,0.0,0.0,0.0,0.0,0.0,0.0,0.0,0.0,0.0,0.0,0.0,0.0,0.0,0.0,0.0,0.0,0.0,0.0,0.0,0.0,0.0,0.0,0.0,0.0,0.0,0.0,0.0,0.0,0.0,0.0,0.0,0.0,0.0,0.0,0.0,0.0,0.0,0.0,0.0,0.0,0.0,0.0,0.0,0.0,0.0,0.0,0.0,0.0,0.0,0.0,0.0,0.0,0.0,0.0,0.0,0.0,0.0,0.0,0.0,0.0,0.0,0.0,0.0,0.0,0.0,0.0,0.0,0.0,0.0,0.0,0.0,0.0,0.0,0.0,0.0,0.0,0.0,0.0,0.0,0.0,0.0,0.0,0.0,0.0,0.0,0.0,0.0,0.0,0.0,0.0,0.0,0.0,0.0,0.0,5.4822,5.6595,5.7925,5.8733,5.9596,5.9748,5.8885,5.7339,5.6049,5.5164,0.0,0.0,0.0,0.0,0.0,0.0,0.0,0.0,0.0,0.0,0.0,0.0,0.0,0.0,0.0,0.0,0.0,0.0,0.0,0.0,0.0,0.0,0.0,0.0,0.0,0.0,0.0,0.0,0.0,0.0,0.0,0.0,0.0,0.0,0.0,0.0,0.0,0.0,0.0,0.0,0.0,0.0,0.0,0.0,0.0,0.0,0.0,0.0,0.0,0.0,0.0,0.0,0.0,0.0,0.0,0.0,0.0,0.0,0.0,0.0,0.0,0.0,0.0,0.0,0.0,0.0,0.0,0.0,0.0,0.0,0.0,0.0,0.0,0.0,0.0,0.0,0.0,0.0,0.0,0.0,0.0,0.0,0.0,0.0,0.0,0.0,0.0,0.0,0.0,0.0,0.0,0.0,0.0,0.0,0.0,0.0,0.0,0.0,0.0,0.0,0.0,0.0,5.3924,5.5304,5.6709,5.8505,5.8609,5.8571,5.8723,5.6721,5.4936,5.3569,0.0,0.0,0.0,0.0,0.0,0.0,0.0,0.0,0.0,0.0,0.0,0.0,0.0,0.0,0.0,0.0,0.0,0.0,0.0,0.0,0.0,0.0,0.0,0.0,0.0,0.0,0.0,0.0,0.0,0.0,0.0,0.0,0.0,0.0,0.0,0.0,0.0,0.0,0.0,0.0,0.0,0.0,0.0,0.0,0.0,0.0,0.0,0.0,0.0,0.0,0.0,0.0,0.0,0.0,0.0,0.0,0.0,0.0,0.0,0.0,0.0,0.0,0.0,0.0,0.0,0.0,0.0,0.0,0.0,0.0,0.0,0.0,0.0,0.0,0.0,0.0,0.0,0.0,0.0,0.0,0.0,0.0,0.0,0.0,0.0,0.0,0.0,0.0,0.0,0.0,0.0,0.0,0.0,0.0,0.0,0.0,0.0,0.0,0.0,0.0,0.0,0.0,5.305,5.4354,5.5874,5.8115,5.7876,5.7648,5.7936,5.595,5.3797,5.185,0.0,0.0,0.0,0.0,0.0,0.0,0.0,0.0,0.0,0.0,0.0,0.0,0.0,0.0,0.0,0.0,0.0,0.0,0.0,0.0,0.0,0.0,0.0,0.0,0.0,0.0,0.0,0.0,0.0,0.0,0.0,0.0,0.0,0.0,0.0,0.0,0.0,0.0,0.0,0.0,0.0,0.0,0.0,0.0,0.0,0.0,0.0,0.0,0.0,0.0,0.0,0.0,0.0,0.0,0.0,0.0,0.0,0.0,0.0,0.0,0.0,0.0,0.0,0.0,0.0,0.0,0.0,0.0,0.0,0.0,0.0,0.0,0.0,0.0,0.0,0.0,0.0,0.0,0.0,0.0,0.0,0.0,0.0,0.0,0.0,0.0,0.0,0.0,0.0,0.0,0.0,0.0,0.0,0.0,0.0,0.0,0.0,0.0,0.0,0.0,0.0,0.0,5.2178,5.3949,5.5684,5.7382,5.7534,5.7165,5.6276,5.4772,5.2759,0.0,0.0,0.0,0.0,0.0,0.0,0.0,0.0,0.0,0.0,0.0,0.0,0.0,0.0,0.0,0.0,0.0,0.0,0.0,0.0,0.0,0.0,0.0,0.0,0.0,0.0,0.0,0.0,0.0,0.0,0.0,0.0,0.0,0.0,0.0,0.0,0.0,0.0,0.0,0.0,0.0,0.0,0.0,0.0,0.0,0.0,0.0,0.0,0.0,0.0,0.0,0.0,0.0,0.0,0.0,0.0,0.0,0.0,0.0,0.0,0.0,0.0,0.0,0.0,0.0,0.0,0.0,0.0,0.0,0.0,0.0,0.0,0.0,0.0,0.0,0.0,0.0,0.0,0.0,0.0,0.0,0.0,0.0,0.0,0.0,0.0,0.0,0.0,0.0,0.0,0.0,0.0,0.0,0.0,0.0,0.0,0.0,0.0,0.0,0.0,0.0,0.0,0.0,5.0307,5.0691,5.1943,0.0,5.5798,5.5684,5.5392,5.3873,5.1823,4.9303,0.0,0.0,0.0,0.0,0.0,0.0,0.0,0.0,0.0,0.0,0.0,0.0,0.0,0.0,0.0,0.0,0.0,0.0,0.0,0.0,0.0,0.0,0.0,0.0,0.0,0.0,0.0,0.0,0.0,0.0,0.0,0.0,0.0,0.0,0.0,0.0,0.0,0.0,0.0,0.0,0.0,0.0,0.0,0.0,0.0,0.0,0.0,0.0,0.0,0.0,0.0,0.0,0.0,0.0,0.0,0.0,0.0,0.0,0.0,0.0,0.0,0.0,0.0,0.0,0.0,0.0,0.0,0.0,0.0,0.0,0.0,0.0,0.0,0.0,0.0,0.0,0.0,0.0,0.0,0.0,0.0,0.0,0.0,0.0,0.0,0.0,0.0,0.0,0.0,0.0,0.0,0.0,0.0,0.0,0.0,0.0,0.0,0.0,0.0,0.0,0.0,0.0,0.0,4.9463,5.1362,0.0,5.5038,5.4886,5.4582,5.3025,5.095,4.8429,0.0,0.0,0.0,0.0,0.0,0.0,0.0,0.0,0.0,0.0,0.0,0.0,0.0,0.0,0.0,0.0,0.0,0.0,0.0,0.0,0.0,0.0,0.0,0.0,0.0,0.0,0.0,0.0,0.0,0.0,0.0,0.0,0.0,0.0,0.0,0.0,0.0,0.0,0.0,0.0,0.0,0.0,0.0,0.0,0.0,0.0,0.0,0.0,0.0,0.0,0.0,0.0,0.0,0.0,0.0,0.0,0.0,0.0,0.0,0.0,0.0,0.0,0.0,0.0,0.0,0.0,0.0,0.0,0.0,0.0,0.0,0.0,0.0,0.0,0.0,0.0,0.0,0.0,0.0,0.0,0.0,0.0,0.0,0.0,0.0,0.0,0.0,0.0,0.0,0.0,0.0,0.0,0.0,0.0,0.0,0.0,0.0,0.0,0.0,0.0,0.0,0.0,0.0,4.9733,5.2762,5.4633,5.4822,5.4544,5.381,5.2189,5.0115,4.7586,4.6698,0.0,0.0,0.0,0.0,0.0,0.0,0.0,0.0,0.0,0.0,0.0,0.0,0.0,0.0,0.0,0.0,0.0,0.0,0.0,0.0,0.0,0.0,0.0,0.0,0.0,0.0,0.0,0.0,0.0,0.0,0.0,0.0,0.0,0.0,0.0,0.0,0.0,0.0,0.0,0.0,0.0,0.0,0.0,0.0,0.0,0.0,0.0,0.0,0.0,0.0,0.0,0.0,0.0,0.0,0.0,0.0,0.0,0.0,0.0,0.0,0.0,0.0,0.0,0.0,0.0,0.0,0.0,0.0,0.0,0.0,0.0,0.0,0.0,0.0,0.0,0.0,0.0,0.0,0.0,0.0,0.0,0.0,0.0,0.0,0.0,0.0,0.0,0.0,0.0,0.0,0.0,0.0,0.0,0.0,0.0,0.0,0.0,0.0,0.0,0.0,0.0,0.0,4.7446,4.8975,5.2699,5.3089,5.3013,5.281,5.1267,4.946,4.7526,4.6698,0.0,0.0,0.0,0.0,0.0,0.0,0.0,0.0,0.0,0.0,0.0,0.0,0.0,0.0,0.0,0.0,0.0,0.0,0.0,0.0,0.0,0.0,0.0,0.0,0.0,0.0,0.0,0.0,0.0,0.0,0.0,0.0,0.0,0.0,0.0,0.0,0.0,0.0,0.0,0.0,0.0,0.0,0.0,0.0,0.0,0.0,0.0,0.0,0.0,0.0,0.0,0.0,0.0,0.0,0.0,0.0,0.0,0.0,0.0,0.0,0.0,0.0,0.0,0.0,0.0,0.0,0.0,0.0,0.0,0.0,0.0,0.0,0.0,0.0,0.0,0.0,0.0,0.0,0.0,0.0,0.0,0.0,0.0,0.0,0.0,0.0,0.0,0.0,0.0,0.0,0.0,0.0,0.0,0.0,0.0,0.0,0.0,0.0,0.0,0.0,0.0,0.0,4.3539,4.5672,5.1342,5.2254,5.233,5.1975,5.0418,4.8839,4.7511,4.6296,0.0,0.0,0.0,0.0,0.0,0.0,0.0,0.0,0.0,0.0,0.0,0.0,0.0,0.0,0.0,0.0,0.0,0.0,0.0,0.0,0.0,0.0,0.0,0.0,0.0,0.0,0.0,0.0,0.0,0.0,0.0,0.0,0.0,0.0,0.0,0.0,0.0,0.0,0.0,0.0,0.0,0.0,0.0,0.0,0.0,0.0,0.0,0.0,0.0,0.0,0.0,0.0,0.0,0.0,0.0,0.0,0.0,0.0,0.0,0.0,0.0,0.0,0.0,0.0,0.0,0.0,0.0,0.0,0.0,0.0,0.0,0.0,0.0,0.0,0.0,0.0,0.0,0.0,0.0,0.0,0.0,0.0,0.0,0.0,0.0,0.0,0.0,0.0,0.0,0.0,0.0,0.0,0.0,0.0,0.0,0.0,0.0,0.0,0.0,0.0,0.0,0.0,0.0,4.321,4.9548,5.1338,5.1837,5.1178,4.9531,4.8201,4.7321,0.0,0.0,0.0,0.0,0.0,0.0,0.0,0.0,0.0,0.0,0.0,0.0,0.0,0.0,0.0,0.0,0.0,0.0,0.0,0.0,0.0,0.0,0.0,0.0,0.0,0.0,0.0,0.0,0.0,0.0,0.0,0.0,0.0,0.0,0.0,0.0,0.0,0.0,0.0,0.0,0.0,0.0,0.0,0.0,0.0,0.0,0.0,0.0,0.0,0.0,0.0,0.0,0.0,0.0,0.0,0.0,0.0,0.0,0.0,0.0,0.0,0.0,0.0,0.0,0.0,0.0,0.0,0.0,0.0,0.0,0.0,0.0,0.0,0.0,0.0,0.0,0.0,0.0,0.0,0.0,0.0,0.0,0.0,0.0,0.0,0.0,0.0,0.0,0.0,0.0,0.0,0.0,0.0,0.0,0.0,0.0,0.0,0.0,0.0,0.0,0.0,0.0,0.0,0.0,4.3105,4.4882,4.8236,5.0295,5.0157,4.8588,4.7283,4.647,0.0,0.0,0.0,0.0,0.0,0.0,0.0,0.0,0.0,0.0,0.0,0.0,0.0,0.0]}]]]